<?xml version="1.0" encoding="UTF-8" standalone="no" ?>
<gpx xmlns="http://www.topografix.com/GPX/1/1" xmlns:xsi="http://www.w3.org/2001/XMLSchema-instance" xsi:schemaLocation="http://www.topografix.com/GPX/1/1 http://www.topografix.com/GPX/1/1/gpx.xsd" version="1.1" creator="VisuGPX - https://www.visugpx.com">
  <metadata>
    <name>Via-rhôna de Lyon à Sète</name>
    <desc><![CDATA[Via Rhona de Lyon à Sète en 7 jours soit un total de 594 km]]></desc>
  </metadata>
  <trk>
    <name><![CDATA[2019-05-29 10:16:03]]></name>
    <trkseg>
      <trkpt lat="44.04164" lon="4.82354">
        <ele>29.64</ele>
        <time>2019-05-29T08:16:03.000Z</time>
      </trkpt>
      <trkpt lat="44.04159" lon="4.82367">
        <ele>26.61</ele>
        <time>2019-05-29T08:16:52.000Z</time>
      </trkpt>
      <trkpt lat="44.04146" lon="4.8238">
        <ele>28.36</ele>
        <time>2019-05-29T08:16:57.000Z</time>
      </trkpt>
      <trkpt lat="44.04139" lon="4.82393">
        <ele>27.63</ele>
        <time>2019-05-29T08:17:02.000Z</time>
      </trkpt>
      <trkpt lat="44.04139" lon="4.82409">
        <ele>27.63</ele>
        <time>2019-05-29T08:17:07.000Z</time>
      </trkpt>
      <trkpt lat="44.04147" lon="4.82398">
        <ele>27.38</ele>
        <time>2019-05-29T08:17:12.000Z</time>
      </trkpt>
      <trkpt lat="44.04137" lon="4.82395">
        <ele>29.64</ele>
        <time>2019-05-29T08:17:46.000Z</time>
      </trkpt>
      <trkpt lat="44.04134" lon="4.82416">
        <ele>27.13</ele>
        <time>2019-05-29T08:17:51.000Z</time>
      </trkpt>
      <trkpt lat="44.04142" lon="4.82441">
        <ele>25.38</ele>
        <time>2019-05-29T08:17:56.000Z</time>
      </trkpt>
      <trkpt lat="44.04153" lon="4.82469">
        <ele>26.37</ele>
        <time>2019-05-29T08:18:01.000Z</time>
      </trkpt>
      <trkpt lat="44.0417" lon="4.82484">
        <ele>25.63</ele>
        <time>2019-05-29T08:18:06.000Z</time>
      </trkpt>
      <trkpt lat="44.04189" lon="4.82498">
        <ele>26.38</ele>
        <time>2019-05-29T08:18:11.000Z</time>
      </trkpt>
      <trkpt lat="44.04196" lon="4.82528">
        <ele>27.12</ele>
        <time>2019-05-29T08:18:16.000Z</time>
      </trkpt>
      <trkpt lat="44.04212" lon="4.82551">
        <ele>24.89</ele>
        <time>2019-05-29T08:18:21.000Z</time>
      </trkpt>
      <trkpt lat="44.04233" lon="4.82566">
        <ele>25.37</ele>
        <time>2019-05-29T08:18:26.000Z</time>
      </trkpt>
      <trkpt lat="44.04256" lon="4.82577">
        <ele>24.87</ele>
        <time>2019-05-29T08:18:31.000Z</time>
      </trkpt>
      <trkpt lat="44.04277" lon="4.82588">
        <ele>25.62</ele>
        <time>2019-05-29T08:18:36.000Z</time>
      </trkpt>
      <trkpt lat="44.04299" lon="4.82597">
        <ele>26.62</ele>
        <time>2019-05-29T08:18:41.000Z</time>
      </trkpt>
      <trkpt lat="44.04317" lon="4.82609">
        <ele>28.37</ele>
        <time>2019-05-29T08:18:46.000Z</time>
      </trkpt>
      <trkpt lat="44.04332" lon="4.82617">
        <ele>29.62</ele>
        <time>2019-05-29T08:18:51.000Z</time>
      </trkpt>
      <trkpt lat="44.0434" lon="4.82628">
        <ele>29.62</ele>
        <time>2019-05-29T08:18:56.000Z</time>
      </trkpt>
      <trkpt lat="44.04346" lon="4.82639">
        <ele>29.62</ele>
        <time>2019-05-29T08:19:03.000Z</time>
      </trkpt>
      <trkpt lat="44.04351" lon="4.82651">
        <ele>28.87</ele>
        <time>2019-05-29T08:19:08.000Z</time>
      </trkpt>
      <trkpt lat="44.04358" lon="4.82662">
        <ele>29.62</ele>
        <time>2019-05-29T08:19:13.000Z</time>
      </trkpt>
      <trkpt lat="44.04363" lon="4.82673">
        <ele>30.87</ele>
        <time>2019-05-29T08:19:52.000Z</time>
      </trkpt>
      <trkpt lat="44.04374" lon="4.82687">
        <ele>32.37</ele>
        <time>2019-05-29T08:19:57.000Z</time>
      </trkpt>
      <trkpt lat="44.04385" lon="4.827">
        <ele>32.62</ele>
        <time>2019-05-29T08:20:02.000Z</time>
      </trkpt>
      <trkpt lat="44.04398" lon="4.82714">
        <ele>32.62</ele>
        <time>2019-05-29T08:20:07.000Z</time>
      </trkpt>
      <trkpt lat="44.04413" lon="4.82729">
        <ele>33.62</ele>
        <time>2019-05-29T08:20:12.000Z</time>
      </trkpt>
      <trkpt lat="44.04426" lon="4.82744">
        <ele>33.62</ele>
        <time>2019-05-29T08:20:17.000Z</time>
      </trkpt>
      <trkpt lat="44.04439" lon="4.82757">
        <ele>32.64</ele>
        <time>2019-05-29T08:20:22.000Z</time>
      </trkpt>
      <trkpt lat="44.04453" lon="4.82772">
        <ele>32.64</ele>
        <time>2019-05-29T08:20:27.000Z</time>
      </trkpt>
      <trkpt lat="44.04466" lon="4.82786">
        <ele>33.62</ele>
        <time>2019-05-29T08:20:32.000Z</time>
      </trkpt>
      <trkpt lat="44.04478" lon="4.828">
        <ele>34.6</ele>
        <time>2019-05-29T08:20:37.000Z</time>
      </trkpt>
      <trkpt lat="44.04492" lon="4.82814">
        <ele>33.62</ele>
        <time>2019-05-29T08:20:42.000Z</time>
      </trkpt>
      <trkpt lat="44.04508" lon="4.82829">
        <ele>33.62</ele>
        <time>2019-05-29T08:20:47.000Z</time>
      </trkpt>
      <trkpt lat="44.04524" lon="4.82844">
        <ele>34.6</ele>
        <time>2019-05-29T08:20:52.000Z</time>
      </trkpt>
      <trkpt lat="44.04541" lon="4.82862">
        <ele>32.87</ele>
        <time>2019-05-29T08:20:57.000Z</time>
      </trkpt>
      <trkpt lat="44.04557" lon="4.8288">
        <ele>33.62</ele>
        <time>2019-05-29T08:21:02.000Z</time>
      </trkpt>
      <trkpt lat="44.04574" lon="4.82896">
        <ele>33.37</ele>
        <time>2019-05-29T08:21:07.000Z</time>
      </trkpt>
      <trkpt lat="44.0459" lon="4.82913">
        <ele>32.62</ele>
        <time>2019-05-29T08:21:12.000Z</time>
      </trkpt>
      <trkpt lat="44.04606" lon="4.8293">
        <ele>32.62</ele>
        <time>2019-05-29T08:21:17.000Z</time>
      </trkpt>
      <trkpt lat="44.04623" lon="4.82946">
        <ele>31.63</ele>
        <time>2019-05-29T08:21:22.000Z</time>
      </trkpt>
      <trkpt lat="44.04642" lon="4.82958">
        <ele>32.62</ele>
        <time>2019-05-29T08:21:27.000Z</time>
      </trkpt>
      <trkpt lat="44.04661" lon="4.82967">
        <ele>33.62</ele>
        <time>2019-05-29T08:21:32.000Z</time>
      </trkpt>
      <trkpt lat="44.04681" lon="4.82977">
        <ele>33.62</ele>
        <time>2019-05-29T08:21:37.000Z</time>
      </trkpt>
      <trkpt lat="44.047" lon="4.82986">
        <ele>32.62</ele>
        <time>2019-05-29T08:21:42.000Z</time>
      </trkpt>
      <trkpt lat="44.04714" lon="4.82992">
        <ele>32.62</ele>
        <time>2019-05-29T08:21:47.000Z</time>
      </trkpt>
      <trkpt lat="44.04727" lon="4.83003">
        <ele>31.62</ele>
        <time>2019-05-29T08:21:52.000Z</time>
      </trkpt>
      <trkpt lat="44.04742" lon="4.83013">
        <ele>32.6</ele>
        <time>2019-05-29T08:21:57.000Z</time>
      </trkpt>
      <trkpt lat="44.04757" lon="4.83024">
        <ele>33.62</ele>
        <time>2019-05-29T08:22:02.000Z</time>
      </trkpt>
      <trkpt lat="44.0477" lon="4.83032">
        <ele>34.38</ele>
        <time>2019-05-29T08:22:07.000Z</time>
      </trkpt>
      <trkpt lat="44.04785" lon="4.83041">
        <ele>34.62</ele>
        <time>2019-05-29T08:22:12.000Z</time>
      </trkpt>
      <trkpt lat="44.04802" lon="4.8305">
        <ele>34.62</ele>
        <time>2019-05-29T08:22:17.000Z</time>
      </trkpt>
      <trkpt lat="44.0482" lon="4.83059">
        <ele>34.62</ele>
        <time>2019-05-29T08:22:22.000Z</time>
      </trkpt>
      <trkpt lat="44.04836" lon="4.83067">
        <ele>35.61</ele>
        <time>2019-05-29T08:22:27.000Z</time>
      </trkpt>
      <trkpt lat="44.04845" lon="4.83071">
        <ele>35.61</ele>
        <time>2019-05-29T08:22:32.000Z</time>
      </trkpt>
      <trkpt lat="44.04854" lon="4.83087">
        <ele>36.61</ele>
        <time>2019-05-29T08:22:37.000Z</time>
      </trkpt>
      <trkpt lat="44.0486" lon="4.83108">
        <ele>37.37</ele>
        <time>2019-05-29T08:22:42.000Z</time>
      </trkpt>
      <trkpt lat="44.04865" lon="4.83128">
        <ele>37.61</ele>
        <time>2019-05-29T08:22:47.000Z</time>
      </trkpt>
      <trkpt lat="44.04869" lon="4.83149">
        <ele>39.36</ele>
        <time>2019-05-29T08:22:52.000Z</time>
      </trkpt>
      <trkpt lat="44.04872" lon="4.8317">
        <ele>40.86</ele>
        <time>2019-05-29T08:22:57.000Z</time>
      </trkpt>
      <trkpt lat="44.04872" lon="4.83193">
        <ele>40.86</ele>
        <time>2019-05-29T08:23:02.000Z</time>
      </trkpt>
      <trkpt lat="44.04873" lon="4.83219">
        <ele>41.61</ele>
        <time>2019-05-29T08:23:07.000Z</time>
      </trkpt>
      <trkpt lat="44.04878" lon="4.83248">
        <ele>41.63</ele>
        <time>2019-05-29T08:23:12.000Z</time>
      </trkpt>
      <trkpt lat="44.0489" lon="4.83275">
        <ele>42.6</ele>
        <time>2019-05-29T08:23:17.000Z</time>
      </trkpt>
      <trkpt lat="44.04902" lon="4.83297">
        <ele>44.36</ele>
        <time>2019-05-29T08:23:22.000Z</time>
      </trkpt>
      <trkpt lat="44.04911" lon="4.83313">
        <ele>45.6</ele>
        <time>2019-05-29T08:23:27.000Z</time>
      </trkpt>
      <trkpt lat="44.0492" lon="4.83326">
        <ele>43.86</ele>
        <time>2019-05-29T08:23:32.000Z</time>
      </trkpt>
      <trkpt lat="44.04929" lon="4.83344">
        <ele>43.61</ele>
        <time>2019-05-29T08:23:37.000Z</time>
      </trkpt>
      <trkpt lat="44.0494" lon="4.83359">
        <ele>43.61</ele>
        <time>2019-05-29T08:23:42.000Z</time>
      </trkpt>
      <trkpt lat="44.0495" lon="4.83375">
        <ele>43.63</ele>
        <time>2019-05-29T08:23:47.000Z</time>
      </trkpt>
      <trkpt lat="44.04961" lon="4.83393">
        <ele>43.61</ele>
        <time>2019-05-29T08:23:52.000Z</time>
      </trkpt>
      <trkpt lat="44.04972" lon="4.83411">
        <ele>43.61</ele>
        <time>2019-05-29T08:23:57.000Z</time>
      </trkpt>
      <trkpt lat="44.04984" lon="4.83429">
        <ele>43.61</ele>
        <time>2019-05-29T08:24:02.000Z</time>
      </trkpt>
      <trkpt lat="44.04995" lon="4.83447">
        <ele>44.36</ele>
        <time>2019-05-29T08:24:07.000Z</time>
      </trkpt>
      <trkpt lat="44.05009" lon="4.83461">
        <ele>45.36</ele>
        <time>2019-05-29T08:24:12.000Z</time>
      </trkpt>
      <trkpt lat="44.05022" lon="4.83475">
        <ele>46.85</ele>
        <time>2019-05-29T08:24:17.000Z</time>
      </trkpt>
      <trkpt lat="44.05036" lon="4.83487">
        <ele>47.36</ele>
        <time>2019-05-29T08:24:22.000Z</time>
      </trkpt>
      <trkpt lat="44.0505" lon="4.83501">
        <ele>48.61</ele>
        <time>2019-05-29T08:24:27.000Z</time>
      </trkpt>
      <trkpt lat="44.05065" lon="4.8351">
        <ele>50.61</ele>
        <time>2019-05-29T08:24:32.000Z</time>
      </trkpt>
      <trkpt lat="44.05052" lon="4.83525">
        <ele>49.61</ele>
        <time>2019-05-29T08:24:37.000Z</time>
      </trkpt>
      <trkpt lat="44.05029" lon="4.83535">
        <ele>48.86</ele>
        <time>2019-05-29T08:24:42.000Z</time>
      </trkpt>
      <trkpt lat="44.05001" lon="4.83545">
        <ele>46.86</ele>
        <time>2019-05-29T08:24:47.000Z</time>
      </trkpt>
      <trkpt lat="44.04971" lon="4.83552">
        <ele>44.86</ele>
        <time>2019-05-29T08:24:52.000Z</time>
      </trkpt>
      <trkpt lat="44.04941" lon="4.83562">
        <ele>44.61</ele>
        <time>2019-05-29T08:24:57.000Z</time>
      </trkpt>
      <trkpt lat="44.04911" lon="4.83562">
        <ele>43.63</ele>
        <time>2019-05-29T08:25:02.000Z</time>
      </trkpt>
      <trkpt lat="44.04882" lon="4.83565">
        <ele>43.86</ele>
        <time>2019-05-29T08:25:07.000Z</time>
      </trkpt>
      <trkpt lat="44.04844" lon="4.83578">
        <ele>40.63</ele>
        <time>2019-05-29T08:25:12.000Z</time>
      </trkpt>
      <trkpt lat="44.04801" lon="4.83586">
        <ele>39.63</ele>
        <time>2019-05-29T08:25:17.000Z</time>
      </trkpt>
      <trkpt lat="44.04757" lon="4.83586">
        <ele>39.63</ele>
        <time>2019-05-29T08:25:22.000Z</time>
      </trkpt>
      <trkpt lat="44.04714" lon="4.83591">
        <ele>36.87</ele>
        <time>2019-05-29T08:25:27.000Z</time>
      </trkpt>
      <trkpt lat="44.04671" lon="4.836">
        <ele>36.61</ele>
        <time>2019-05-29T08:25:32.000Z</time>
      </trkpt>
      <trkpt lat="44.04629" lon="4.83612">
        <ele>34.63</ele>
        <time>2019-05-29T08:25:37.000Z</time>
      </trkpt>
      <trkpt lat="44.04586" lon="4.83613">
        <ele>32.87</ele>
        <time>2019-05-29T08:25:42.000Z</time>
      </trkpt>
      <trkpt lat="44.04546" lon="4.83594">
        <ele>31.62</ele>
        <time>2019-05-29T08:25:47.000Z</time>
      </trkpt>
      <trkpt lat="44.04505" lon="4.83577">
        <ele>30.62</ele>
        <time>2019-05-29T08:25:52.000Z</time>
      </trkpt>
      <trkpt lat="44.04461" lon="4.83576">
        <ele>30.37</ele>
        <time>2019-05-29T08:25:57.000Z</time>
      </trkpt>
      <trkpt lat="44.04417" lon="4.83581">
        <ele>30.62</ele>
        <time>2019-05-29T08:26:02.000Z</time>
      </trkpt>
      <trkpt lat="44.04375" lon="4.83591">
        <ele>30.62</ele>
        <time>2019-05-29T08:26:07.000Z</time>
      </trkpt>
      <trkpt lat="44.04332" lon="4.83603">
        <ele>30.62</ele>
        <time>2019-05-29T08:26:12.000Z</time>
      </trkpt>
      <trkpt lat="44.0429" lon="4.83613">
        <ele>31.62</ele>
        <time>2019-05-29T08:26:17.000Z</time>
      </trkpt>
      <trkpt lat="44.04248" lon="4.83619">
        <ele>31.62</ele>
        <time>2019-05-29T08:26:22.000Z</time>
      </trkpt>
      <trkpt lat="44.04206" lon="4.83622">
        <ele>31.62</ele>
        <time>2019-05-29T08:26:27.000Z</time>
      </trkpt>
      <trkpt lat="44.04165" lon="4.83622">
        <ele>31.62</ele>
        <time>2019-05-29T08:26:32.000Z</time>
      </trkpt>
      <trkpt lat="44.04126" lon="4.83623">
        <ele>31.62</ele>
        <time>2019-05-29T08:26:37.000Z</time>
      </trkpt>
      <trkpt lat="44.04089" lon="4.83626">
        <ele>31.62</ele>
        <time>2019-05-29T08:26:42.000Z</time>
      </trkpt>
      <trkpt lat="44.04052" lon="4.83634">
        <ele>31.62</ele>
        <time>2019-05-29T08:26:47.000Z</time>
      </trkpt>
      <trkpt lat="44.04015" lon="4.83644">
        <ele>31.62</ele>
        <time>2019-05-29T08:26:52.000Z</time>
      </trkpt>
      <trkpt lat="44.03978" lon="4.83656">
        <ele>32.62</ele>
        <time>2019-05-29T08:26:57.000Z</time>
      </trkpt>
      <trkpt lat="44.0394" lon="4.83664">
        <ele>33.61</ele>
        <time>2019-05-29T08:27:02.000Z</time>
      </trkpt>
      <trkpt lat="44.03901" lon="4.83673">
        <ele>33.61</ele>
        <time>2019-05-29T08:27:07.000Z</time>
      </trkpt>
      <trkpt lat="44.03861" lon="4.8368">
        <ele>32.86</ele>
        <time>2019-05-29T08:27:12.000Z</time>
      </trkpt>
      <trkpt lat="44.0382" lon="4.83688">
        <ele>33.38</ele>
        <time>2019-05-29T08:27:17.000Z</time>
      </trkpt>
      <trkpt lat="44.03779" lon="4.83695">
        <ele>33.63</ele>
        <time>2019-05-29T08:27:22.000Z</time>
      </trkpt>
      <trkpt lat="44.03739" lon="4.83703">
        <ele>33.63</ele>
        <time>2019-05-29T08:27:27.000Z</time>
      </trkpt>
      <trkpt lat="44.03699" lon="4.83711">
        <ele>33.63</ele>
        <time>2019-05-29T08:27:32.000Z</time>
      </trkpt>
      <trkpt lat="44.03659" lon="4.83721">
        <ele>33.63</ele>
        <time>2019-05-29T08:27:37.000Z</time>
      </trkpt>
      <trkpt lat="44.0362" lon="4.83727">
        <ele>33.63</ele>
        <time>2019-05-29T08:27:42.000Z</time>
      </trkpt>
      <trkpt lat="44.03579" lon="4.83733">
        <ele>32.88</ele>
        <time>2019-05-29T08:27:47.000Z</time>
      </trkpt>
      <trkpt lat="44.03539" lon="4.83741">
        <ele>34.38</ele>
        <time>2019-05-29T08:27:52.000Z</time>
      </trkpt>
      <trkpt lat="44.03499" lon="4.83752">
        <ele>34.38</ele>
        <time>2019-05-29T08:27:57.000Z</time>
      </trkpt>
      <trkpt lat="44.03457" lon="4.83766">
        <ele>34.63</ele>
        <time>2019-05-29T08:28:02.000Z</time>
      </trkpt>
      <trkpt lat="44.03416" lon="4.83779">
        <ele>33.65</ele>
        <time>2019-05-29T08:28:07.000Z</time>
      </trkpt>
      <trkpt lat="44.03373" lon="4.8379">
        <ele>33.63</ele>
        <time>2019-05-29T08:28:12.000Z</time>
      </trkpt>
      <trkpt lat="44.03328" lon="4.83802">
        <ele>33.63</ele>
        <time>2019-05-29T08:28:17.000Z</time>
      </trkpt>
      <trkpt lat="44.03279" lon="4.83815">
        <ele>31.65</ele>
        <time>2019-05-29T08:28:22.000Z</time>
      </trkpt>
      <trkpt lat="44.03228" lon="4.83842">
        <ele>29.63</ele>
        <time>2019-05-29T08:28:27.000Z</time>
      </trkpt>
      <trkpt lat="44.03187" lon="4.8388">
        <ele>27.88</ele>
        <time>2019-05-29T08:28:32.000Z</time>
      </trkpt>
      <trkpt lat="44.03151" lon="4.83913">
        <ele>27.63</ele>
        <time>2019-05-29T08:28:37.000Z</time>
      </trkpt>
      <trkpt lat="44.03116" lon="4.83937">
        <ele>26.65</ele>
        <time>2019-05-29T08:28:42.000Z</time>
      </trkpt>
      <trkpt lat="44.03082" lon="4.83963">
        <ele>29.62</ele>
        <time>2019-05-29T08:28:47.000Z</time>
      </trkpt>
      <trkpt lat="44.03052" lon="4.83992">
        <ele>28.65</ele>
        <time>2019-05-29T08:28:52.000Z</time>
      </trkpt>
      <trkpt lat="44.0302" lon="4.8402">
        <ele>27.88</ele>
        <time>2019-05-29T08:28:57.000Z</time>
      </trkpt>
      <trkpt lat="44.02991" lon="4.84049">
        <ele>26.89</ele>
        <time>2019-05-29T08:29:02.000Z</time>
      </trkpt>
      <trkpt lat="44.0296" lon="4.84079">
        <ele>26.88</ele>
        <time>2019-05-29T08:29:07.000Z</time>
      </trkpt>
      <trkpt lat="44.0293" lon="4.84114">
        <ele>28.62</ele>
        <time>2019-05-29T08:29:12.000Z</time>
      </trkpt>
      <trkpt lat="44.02903" lon="4.84146">
        <ele>28.87</ele>
        <time>2019-05-29T08:29:17.000Z</time>
      </trkpt>
      <trkpt lat="44.02876" lon="4.84181">
        <ele>27.65</ele>
        <time>2019-05-29T08:29:22.000Z</time>
      </trkpt>
      <trkpt lat="44.02847" lon="4.84212">
        <ele>29.14</ele>
        <time>2019-05-29T08:29:27.000Z</time>
      </trkpt>
      <trkpt lat="44.02819" lon="4.8424">
        <ele>30.38</ele>
        <time>2019-05-29T08:29:32.000Z</time>
      </trkpt>
      <trkpt lat="44.02791" lon="4.84267">
        <ele>29.65</ele>
        <time>2019-05-29T08:29:37.000Z</time>
      </trkpt>
      <trkpt lat="44.0276" lon="4.84297">
        <ele>28.89</ele>
        <time>2019-05-29T08:29:42.000Z</time>
      </trkpt>
      <trkpt lat="44.02729" lon="4.84321">
        <ele>27.64</ele>
        <time>2019-05-29T08:29:47.000Z</time>
      </trkpt>
      <trkpt lat="44.02697" lon="4.84334">
        <ele>28.64</ele>
        <time>2019-05-29T08:29:52.000Z</time>
      </trkpt>
      <trkpt lat="44.02661" lon="4.84351">
        <ele>26.62</ele>
        <time>2019-05-29T08:29:57.000Z</time>
      </trkpt>
      <trkpt lat="44.02625" lon="4.84365">
        <ele>28.39</ele>
        <time>2019-05-29T08:30:02.000Z</time>
      </trkpt>
      <trkpt lat="44.02592" lon="4.8438">
        <ele>28.61</ele>
        <time>2019-05-29T08:30:07.000Z</time>
      </trkpt>
      <trkpt lat="44.02557" lon="4.84385">
        <ele>26.65</ele>
        <time>2019-05-29T08:30:12.000Z</time>
      </trkpt>
      <trkpt lat="44.02526" lon="4.84396">
        <ele>26.62</ele>
        <time>2019-05-29T08:30:17.000Z</time>
      </trkpt>
      <trkpt lat="44.02494" lon="4.84408">
        <ele>27.39</ele>
        <time>2019-05-29T08:30:22.000Z</time>
      </trkpt>
      <trkpt lat="44.02462" lon="4.84422">
        <ele>26.65</ele>
        <time>2019-05-29T08:30:27.000Z</time>
      </trkpt>
      <trkpt lat="44.02432" lon="4.84434">
        <ele>28.64</ele>
        <time>2019-05-29T08:30:32.000Z</time>
      </trkpt>
      <trkpt lat="44.02407" lon="4.84459">
        <ele>31.37</ele>
        <time>2019-05-29T08:30:37.000Z</time>
      </trkpt>
      <trkpt lat="44.02401" lon="4.84497">
        <ele>31.87</ele>
        <time>2019-05-29T08:30:42.000Z</time>
      </trkpt>
      <trkpt lat="44.0238" lon="4.84526">
        <ele>29.89</ele>
        <time>2019-05-29T08:30:47.000Z</time>
      </trkpt>
      <trkpt lat="44.02347" lon="4.84544">
        <ele>30.39</ele>
        <time>2019-05-29T08:30:52.000Z</time>
      </trkpt>
      <trkpt lat="44.02313" lon="4.84562">
        <ele>27.89</ele>
        <time>2019-05-29T08:30:57.000Z</time>
      </trkpt>
      <trkpt lat="44.02284" lon="4.84581">
        <ele>27.64</ele>
        <time>2019-05-29T08:31:02.000Z</time>
      </trkpt>
      <trkpt lat="44.02257" lon="4.84605">
        <ele>28.39</ele>
        <time>2019-05-29T08:31:07.000Z</time>
      </trkpt>
      <trkpt lat="44.02226" lon="4.84624">
        <ele>26.89</ele>
        <time>2019-05-29T08:31:12.000Z</time>
      </trkpt>
      <trkpt lat="44.02193" lon="4.84647">
        <ele>27.63</ele>
        <time>2019-05-29T08:31:17.000Z</time>
      </trkpt>
      <trkpt lat="44.02158" lon="4.8467">
        <ele>25.64</ele>
        <time>2019-05-29T08:31:22.000Z</time>
      </trkpt>
      <trkpt lat="44.02124" lon="4.84695">
        <ele>26.64</ele>
        <time>2019-05-29T08:31:27.000Z</time>
      </trkpt>
      <trkpt lat="44.02088" lon="4.84719">
        <ele>26.64</ele>
        <time>2019-05-29T08:31:32.000Z</time>
      </trkpt>
      <trkpt lat="44.02051" lon="4.84743">
        <ele>27.64</ele>
        <time>2019-05-29T08:31:37.000Z</time>
      </trkpt>
      <trkpt lat="44.02016" lon="4.8477">
        <ele>27.64</ele>
        <time>2019-05-29T08:31:42.000Z</time>
      </trkpt>
      <trkpt lat="44.01982" lon="4.84799">
        <ele>25.89</ele>
        <time>2019-05-29T08:31:47.000Z</time>
      </trkpt>
      <trkpt lat="44.01947" lon="4.84827">
        <ele>26.41</ele>
        <time>2019-05-29T08:31:52.000Z</time>
      </trkpt>
      <trkpt lat="44.0191" lon="4.8486">
        <ele>26.89</ele>
        <time>2019-05-29T08:31:57.000Z</time>
      </trkpt>
      <trkpt lat="44.01875" lon="4.84892">
        <ele>25.88</ele>
        <time>2019-05-29T08:32:02.000Z</time>
      </trkpt>
      <trkpt lat="44.01841" lon="4.84928">
        <ele>24.9</ele>
        <time>2019-05-29T08:32:07.000Z</time>
      </trkpt>
      <trkpt lat="44.01808" lon="4.84961">
        <ele>25.65</ele>
        <time>2019-05-29T08:32:12.000Z</time>
      </trkpt>
      <trkpt lat="44.01772" lon="4.84997">
        <ele>24.65</ele>
        <time>2019-05-29T08:32:17.000Z</time>
      </trkpt>
      <trkpt lat="44.01737" lon="4.8503">
        <ele>23.65</ele>
        <time>2019-05-29T08:32:22.000Z</time>
      </trkpt>
      <trkpt lat="44.01703" lon="4.85063">
        <ele>21.91</ele>
        <time>2019-05-29T08:32:27.000Z</time>
      </trkpt>
      <trkpt lat="44.0167" lon="4.85098">
        <ele>21.9</ele>
        <time>2019-05-29T08:32:32.000Z</time>
      </trkpt>
      <trkpt lat="44.01637" lon="4.85129">
        <ele>24.38</ele>
        <time>2019-05-29T08:32:37.000Z</time>
      </trkpt>
      <trkpt lat="44.01606" lon="4.8516">
        <ele>25.65</ele>
        <time>2019-05-29T08:32:42.000Z</time>
      </trkpt>
      <trkpt lat="44.01577" lon="4.85191">
        <ele>26.65</ele>
        <time>2019-05-29T08:32:47.000Z</time>
      </trkpt>
      <trkpt lat="44.01549" lon="4.85218">
        <ele>27.65</ele>
        <time>2019-05-29T08:32:52.000Z</time>
      </trkpt>
      <trkpt lat="44.01522" lon="4.85246">
        <ele>28.63</ele>
        <time>2019-05-29T08:32:57.000Z</time>
      </trkpt>
      <trkpt lat="44.01499" lon="4.85281">
        <ele>28.65</ele>
        <time>2019-05-29T08:33:02.000Z</time>
      </trkpt>
      <trkpt lat="44.01481" lon="4.85323">
        <ele>27.67</ele>
        <time>2019-05-29T08:33:07.000Z</time>
      </trkpt>
      <trkpt lat="44.01469" lon="4.85366">
        <ele>26.66</ele>
        <time>2019-05-29T08:33:12.000Z</time>
      </trkpt>
      <trkpt lat="44.01462" lon="4.85413">
        <ele>27.65</ele>
        <time>2019-05-29T08:33:17.000Z</time>
      </trkpt>
      <trkpt lat="44.01463" lon="4.85465">
        <ele>26.9</ele>
        <time>2019-05-29T08:33:22.000Z</time>
      </trkpt>
      <trkpt lat="44.01468" lon="4.85515">
        <ele>27.4</ele>
        <time>2019-05-29T08:33:27.000Z</time>
      </trkpt>
      <trkpt lat="44.01473" lon="4.85565">
        <ele>29.63</ele>
        <time>2019-05-29T08:33:32.000Z</time>
      </trkpt>
      <trkpt lat="44.01479" lon="4.8561">
        <ele>28.65</ele>
        <time>2019-05-29T08:33:37.000Z</time>
      </trkpt>
      <trkpt lat="44.01482" lon="4.85653">
        <ele>27.66</ele>
        <time>2019-05-29T08:33:42.000Z</time>
      </trkpt>
      <trkpt lat="44.01486" lon="4.85695">
        <ele>26.65</ele>
        <time>2019-05-29T08:33:47.000Z</time>
      </trkpt>
      <trkpt lat="44.01489" lon="4.85734">
        <ele>28.4</ele>
        <time>2019-05-29T08:33:52.000Z</time>
      </trkpt>
      <trkpt lat="44.01494" lon="4.85773">
        <ele>28.41</ele>
        <time>2019-05-29T08:33:57.000Z</time>
      </trkpt>
      <trkpt lat="44.01497" lon="4.85813">
        <ele>29.65</ele>
        <time>2019-05-29T08:34:02.000Z</time>
      </trkpt>
      <trkpt lat="44.01503" lon="4.85855">
        <ele>29.41</ele>
        <time>2019-05-29T08:34:07.000Z</time>
      </trkpt>
      <trkpt lat="44.01509" lon="4.85896">
        <ele>27.65</ele>
        <time>2019-05-29T08:34:12.000Z</time>
      </trkpt>
      <trkpt lat="44.01515" lon="4.85937">
        <ele>26.63</ele>
        <time>2019-05-29T08:34:17.000Z</time>
      </trkpt>
      <trkpt lat="44.01518" lon="4.85976">
        <ele>26.65</ele>
        <time>2019-05-29T08:34:22.000Z</time>
      </trkpt>
      <trkpt lat="44.01513" lon="4.86009">
        <ele>28.4</ele>
        <time>2019-05-29T08:34:27.000Z</time>
      </trkpt>
      <trkpt lat="44.015" lon="4.86036">
        <ele>27.9</ele>
        <time>2019-05-29T08:34:32.000Z</time>
      </trkpt>
      <trkpt lat="44.01488" lon="4.86064">
        <ele>28.86</ele>
        <time>2019-05-29T08:34:37.000Z</time>
      </trkpt>
      <trkpt lat="44.01479" lon="4.86096">
        <ele>29.4</ele>
        <time>2019-05-29T08:34:42.000Z</time>
      </trkpt>
      <trkpt lat="44.01473" lon="4.86128">
        <ele>27.9</ele>
        <time>2019-05-29T08:34:47.000Z</time>
      </trkpt>
      <trkpt lat="44.01471" lon="4.86165">
        <ele>27.41</ele>
        <time>2019-05-29T08:34:52.000Z</time>
      </trkpt>
      <trkpt lat="44.01471" lon="4.862">
        <ele>29.63</ele>
        <time>2019-05-29T08:34:57.000Z</time>
      </trkpt>
      <trkpt lat="44.01469" lon="4.86239">
        <ele>28.9</ele>
        <time>2019-05-29T08:35:02.000Z</time>
      </trkpt>
      <trkpt lat="44.01469" lon="4.86275">
        <ele>30.63</ele>
        <time>2019-05-29T08:35:07.000Z</time>
      </trkpt>
      <trkpt lat="44.0147" lon="4.86306">
        <ele>30.65</ele>
        <time>2019-05-29T08:35:12.000Z</time>
      </trkpt>
      <trkpt lat="44.0147" lon="4.86338">
        <ele>29.66</ele>
        <time>2019-05-29T08:35:17.000Z</time>
      </trkpt>
      <trkpt lat="44.01467" lon="4.86369">
        <ele>28.65</ele>
        <time>2019-05-29T08:35:22.000Z</time>
      </trkpt>
      <trkpt lat="44.01464" lon="4.86405">
        <ele>29.64</ele>
        <time>2019-05-29T08:35:27.000Z</time>
      </trkpt>
      <trkpt lat="44.0146" lon="4.86444">
        <ele>28.64</ele>
        <time>2019-05-29T08:35:32.000Z</time>
      </trkpt>
      <trkpt lat="44.01457" lon="4.86489">
        <ele>28.64</ele>
        <time>2019-05-29T08:35:37.000Z</time>
      </trkpt>
      <trkpt lat="44.01459" lon="4.86531">
        <ele>27.88</ele>
        <time>2019-05-29T08:35:42.000Z</time>
      </trkpt>
      <trkpt lat="44.01463" lon="4.86574">
        <ele>26.91</ele>
        <time>2019-05-29T08:35:47.000Z</time>
      </trkpt>
      <trkpt lat="44.01464" lon="4.86616">
        <ele>25.89</ele>
        <time>2019-05-29T08:35:52.000Z</time>
      </trkpt>
      <trkpt lat="44.01462" lon="4.86663">
        <ele>26.63</ele>
        <time>2019-05-29T08:35:57.000Z</time>
      </trkpt>
      <trkpt lat="44.01454" lon="4.86706">
        <ele>26.64</ele>
        <time>2019-05-29T08:36:02.000Z</time>
      </trkpt>
      <trkpt lat="44.01444" lon="4.86755">
        <ele>27.14</ele>
        <time>2019-05-29T08:36:07.000Z</time>
      </trkpt>
      <trkpt lat="44.01434" lon="4.86801">
        <ele>28.64</ele>
        <time>2019-05-29T08:36:12.000Z</time>
      </trkpt>
      <trkpt lat="44.01421" lon="4.86847">
        <ele>28.64</ele>
        <time>2019-05-29T08:36:17.000Z</time>
      </trkpt>
      <trkpt lat="44.01409" lon="4.86893">
        <ele>27.64</ele>
        <time>2019-05-29T08:36:22.000Z</time>
      </trkpt>
      <trkpt lat="44.01396" lon="4.86938">
        <ele>26.66</ele>
        <time>2019-05-29T08:36:27.000Z</time>
      </trkpt>
      <trkpt lat="44.01381" lon="4.86982">
        <ele>26.64</ele>
        <time>2019-05-29T08:36:32.000Z</time>
      </trkpt>
      <trkpt lat="44.01369" lon="4.87017">
        <ele>26.64</ele>
        <time>2019-05-29T08:36:37.000Z</time>
      </trkpt>
      <trkpt lat="44.01365" lon="4.87043">
        <ele>25.64</ele>
        <time>2019-05-29T08:36:42.000Z</time>
      </trkpt>
      <trkpt lat="44.01367" lon="4.87071">
        <ele>24.64</ele>
        <time>2019-05-29T08:36:47.000Z</time>
      </trkpt>
      <trkpt lat="44.01369" lon="4.87086">
        <ele>26.63</ele>
        <time>2019-05-29T08:36:52.000Z</time>
      </trkpt>
      <trkpt lat="44.01373" lon="4.87102">
        <ele>27.64</ele>
        <time>2019-05-29T08:37:12.000Z</time>
      </trkpt>
      <trkpt lat="44.01379" lon="4.87123">
        <ele>27.63</ele>
        <time>2019-05-29T08:37:17.000Z</time>
      </trkpt>
      <trkpt lat="44.01384" lon="4.87136">
        <ele>27.64</ele>
        <time>2019-05-29T08:37:22.000Z</time>
      </trkpt>
      <trkpt lat="44.01375" lon="4.87151">
        <ele>29.39</ele>
        <time>2019-05-29T08:37:27.000Z</time>
      </trkpt>
      <trkpt lat="44.01353" lon="4.87169">
        <ele>29.64</ele>
        <time>2019-05-29T08:37:32.000Z</time>
      </trkpt>
      <trkpt lat="44.0133" lon="4.87186">
        <ele>29.66</ele>
        <time>2019-05-29T08:37:37.000Z</time>
      </trkpt>
      <trkpt lat="44.01315" lon="4.8721">
        <ele>28.64</ele>
        <time>2019-05-29T08:37:42.000Z</time>
      </trkpt>
      <trkpt lat="44.01309" lon="4.8723">
        <ele>28.89</ele>
        <time>2019-05-29T08:37:47.000Z</time>
      </trkpt>
      <trkpt lat="44.01308" lon="4.87256">
        <ele>27.66</ele>
        <time>2019-05-29T08:37:52.000Z</time>
      </trkpt>
      <trkpt lat="44.01301" lon="4.87279">
        <ele>27.64</ele>
        <time>2019-05-29T08:37:57.000Z</time>
      </trkpt>
      <trkpt lat="44.01273" lon="4.87272">
        <ele>25.39</ele>
        <time>2019-05-29T08:38:02.000Z</time>
      </trkpt>
      <trkpt lat="44.01251" lon="4.87268">
        <ele>25.65</ele>
        <time>2019-05-29T08:38:07.000Z</time>
      </trkpt>
      <trkpt lat="44.01226" lon="4.87264">
        <ele>23.65</ele>
        <time>2019-05-29T08:38:12.000Z</time>
      </trkpt>
      <trkpt lat="44.01212" lon="4.87278">
        <ele>25.63</ele>
        <time>2019-05-29T08:38:17.000Z</time>
      </trkpt>
      <trkpt lat="44.01211" lon="4.87312">
        <ele>26.89</ele>
        <time>2019-05-29T08:38:22.000Z</time>
      </trkpt>
      <trkpt lat="44.01205" lon="4.87328">
        <ele>26.64</ele>
        <time>2019-05-29T08:38:27.000Z</time>
      </trkpt>
      <trkpt lat="44.01179" lon="4.87321">
        <ele>26.65</ele>
        <time>2019-05-29T08:38:32.000Z</time>
      </trkpt>
      <trkpt lat="44.01153" lon="4.87317">
        <ele>25.65</ele>
        <time>2019-05-29T08:38:37.000Z</time>
      </trkpt>
      <trkpt lat="44.01124" lon="4.87309">
        <ele>27.61</ele>
        <time>2019-05-29T08:38:42.000Z</time>
      </trkpt>
      <trkpt lat="44.01101" lon="4.87302">
        <ele>26.65</ele>
        <time>2019-05-29T08:38:47.000Z</time>
      </trkpt>
      <trkpt lat="44.01076" lon="4.87286">
        <ele>25.65</ele>
        <time>2019-05-29T08:38:52.000Z</time>
      </trkpt>
      <trkpt lat="44.01052" lon="4.87268">
        <ele>25.9</ele>
        <time>2019-05-29T08:38:57.000Z</time>
      </trkpt>
      <trkpt lat="44.01033" lon="4.8726">
        <ele>28.37</ele>
        <time>2019-05-29T08:39:02.000Z</time>
      </trkpt>
      <trkpt lat="44.01009" lon="4.87238">
        <ele>29.4</ele>
        <time>2019-05-29T08:39:07.000Z</time>
      </trkpt>
      <trkpt lat="44.01002" lon="4.87227">
        <ele>29.62</ele>
        <time>2019-05-29T08:39:12.000Z</time>
      </trkpt>
      <trkpt lat="44.00993" lon="4.87231">
        <ele>33.88</ele>
        <time>2019-05-29T08:39:18.000Z</time>
      </trkpt>
      <trkpt lat="44.00987" lon="4.8725">
        <ele>30.38</ele>
        <time>2019-05-29T08:39:23.000Z</time>
      </trkpt>
      <trkpt lat="44.00981" lon="4.87263">
        <ele>30.66</ele>
        <time>2019-05-29T08:39:28.000Z</time>
      </trkpt>
      <trkpt lat="44.00968" lon="4.87276">
        <ele>27.65</ele>
        <time>2019-05-29T08:39:33.000Z</time>
      </trkpt>
      <trkpt lat="44.00952" lon="4.87291">
        <ele>27.66</ele>
        <time>2019-05-29T08:39:38.000Z</time>
      </trkpt>
      <trkpt lat="44.00938" lon="4.87305">
        <ele>26.65</ele>
        <time>2019-05-29T08:39:43.000Z</time>
      </trkpt>
      <trkpt lat="44.00919" lon="4.87315">
        <ele>27.65</ele>
        <time>2019-05-29T08:39:48.000Z</time>
      </trkpt>
      <trkpt lat="44.00902" lon="4.87297">
        <ele>28.38</ele>
        <time>2019-05-29T08:39:53.000Z</time>
      </trkpt>
      <trkpt lat="44.00887" lon="4.87274">
        <ele>30.65</ele>
        <time>2019-05-29T08:39:58.000Z</time>
      </trkpt>
      <trkpt lat="44.00874" lon="4.87259">
        <ele>29.66</ele>
        <time>2019-05-29T08:40:03.000Z</time>
      </trkpt>
      <trkpt lat="44.00857" lon="4.87272">
        <ele>30.4</ele>
        <time>2019-05-29T08:40:08.000Z</time>
      </trkpt>
      <trkpt lat="44.00841" lon="4.87275">
        <ele>32.37</ele>
        <time>2019-05-29T08:40:13.000Z</time>
      </trkpt>
      <trkpt lat="44.00828" lon="4.87299">
        <ele>33.9</ele>
        <time>2019-05-29T08:40:18.000Z</time>
      </trkpt>
      <trkpt lat="44.00816" lon="4.87329">
        <ele>31.64</ele>
        <time>2019-05-29T08:40:23.000Z</time>
      </trkpt>
      <trkpt lat="44.00804" lon="4.87356">
        <ele>32.9</ele>
        <time>2019-05-29T08:40:28.000Z</time>
      </trkpt>
      <trkpt lat="44.00791" lon="4.87385">
        <ele>31.67</ele>
        <time>2019-05-29T08:40:33.000Z</time>
      </trkpt>
      <trkpt lat="44.00777" lon="4.87411">
        <ele>32.63</ele>
        <time>2019-05-29T08:40:38.000Z</time>
      </trkpt>
      <trkpt lat="44.00781" lon="4.87441">
        <ele>32.43</ele>
        <time>2019-05-29T08:40:43.000Z</time>
      </trkpt>
      <trkpt lat="44.00767" lon="4.87467">
        <ele>35.4</ele>
        <time>2019-05-29T08:40:48.000Z</time>
      </trkpt>
      <trkpt lat="44.00746" lon="4.8749">
        <ele>34.42</ele>
        <time>2019-05-29T08:40:53.000Z</time>
      </trkpt>
      <trkpt lat="44.0072" lon="4.87511">
        <ele>34.9</ele>
        <time>2019-05-29T08:40:58.000Z</time>
      </trkpt>
      <trkpt lat="44.00692" lon="4.87538">
        <ele>33.65</ele>
        <time>2019-05-29T08:41:03.000Z</time>
      </trkpt>
      <trkpt lat="44.00665" lon="4.87561">
        <ele>34.65</ele>
        <time>2019-05-29T08:41:08.000Z</time>
      </trkpt>
      <trkpt lat="44.00638" lon="4.87591">
        <ele>33.65</ele>
        <time>2019-05-29T08:41:13.000Z</time>
      </trkpt>
      <trkpt lat="44.00609" lon="4.87621">
        <ele>32.67</ele>
        <time>2019-05-29T08:41:18.000Z</time>
      </trkpt>
      <trkpt lat="44.00574" lon="4.87637">
        <ele>32.9</ele>
        <time>2019-05-29T08:41:23.000Z</time>
      </trkpt>
      <trkpt lat="44.00557" lon="4.87646">
        <ele>37.62</ele>
        <time>2019-05-29T08:41:28.000Z</time>
      </trkpt>
      <trkpt lat="44.00545" lon="4.87651">
        <ele>35.15</ele>
        <time>2019-05-29T08:41:34.000Z</time>
      </trkpt>
      <trkpt lat="44.00524" lon="4.87661">
        <ele>33.89</ele>
        <time>2019-05-29T08:41:39.000Z</time>
      </trkpt>
      <trkpt lat="44.005" lon="4.87672">
        <ele>33.65</ele>
        <time>2019-05-29T08:41:44.000Z</time>
      </trkpt>
      <trkpt lat="44.00474" lon="4.87686">
        <ele>32.65</ele>
        <time>2019-05-29T08:41:49.000Z</time>
      </trkpt>
      <trkpt lat="44.00444" lon="4.87697">
        <ele>33.89</ele>
        <time>2019-05-29T08:41:54.000Z</time>
      </trkpt>
      <trkpt lat="44.00414" lon="4.87709">
        <ele>33.64</ele>
        <time>2019-05-29T08:41:59.000Z</time>
      </trkpt>
      <trkpt lat="44.00379" lon="4.87721">
        <ele>32.64</ele>
        <time>2019-05-29T08:42:04.000Z</time>
      </trkpt>
      <trkpt lat="44.00348" lon="4.87729">
        <ele>33.4</ele>
        <time>2019-05-29T08:42:09.000Z</time>
      </trkpt>
      <trkpt lat="44.00314" lon="4.87739">
        <ele>33.9</ele>
        <time>2019-05-29T08:42:14.000Z</time>
      </trkpt>
      <trkpt lat="44.00281" lon="4.87746">
        <ele>33.66</ele>
        <time>2019-05-29T08:42:19.000Z</time>
      </trkpt>
      <trkpt lat="44.00263" lon="4.87749">
        <ele>33.64</ele>
        <time>2019-05-29T08:42:24.000Z</time>
      </trkpt>
      <trkpt lat="44.00254" lon="4.87745">
        <ele>32.66</ele>
        <time>2019-05-29T08:42:33.000Z</time>
      </trkpt>
      <trkpt lat="44.00237" lon="4.87735">
        <ele>31.89</ele>
        <time>2019-05-29T08:42:38.000Z</time>
      </trkpt>
      <trkpt lat="44.00215" lon="4.87716">
        <ele>31.67</ele>
        <time>2019-05-29T08:42:43.000Z</time>
      </trkpt>
      <trkpt lat="44.00199" lon="4.87685">
        <ele>32.66</ele>
        <time>2019-05-29T08:42:48.000Z</time>
      </trkpt>
      <trkpt lat="44.00181" lon="4.87651">
        <ele>32.66</ele>
        <time>2019-05-29T08:42:53.000Z</time>
      </trkpt>
      <trkpt lat="44.00161" lon="4.87615">
        <ele>31.91</ele>
        <time>2019-05-29T08:42:58.000Z</time>
      </trkpt>
      <trkpt lat="44.0014" lon="4.87577">
        <ele>31.67</ele>
        <time>2019-05-29T08:43:03.000Z</time>
      </trkpt>
      <trkpt lat="44.00122" lon="4.87539">
        <ele>30.66</ele>
        <time>2019-05-29T08:43:08.000Z</time>
      </trkpt>
      <trkpt lat="44.001" lon="4.87502">
        <ele>30.66</ele>
        <time>2019-05-29T08:43:13.000Z</time>
      </trkpt>
      <trkpt lat="44.00078" lon="4.87465">
        <ele>29.66</ele>
        <time>2019-05-29T08:43:18.000Z</time>
      </trkpt>
      <trkpt lat="44.00055" lon="4.87431">
        <ele>29.66</ele>
        <time>2019-05-29T08:43:23.000Z</time>
      </trkpt>
      <trkpt lat="44.00022" lon="4.87413">
        <ele>30.66</ele>
        <time>2019-05-29T08:43:28.000Z</time>
      </trkpt>
      <trkpt lat="43.99989" lon="4.87422">
        <ele>29.66</ele>
        <time>2019-05-29T08:43:33.000Z</time>
      </trkpt>
      <trkpt lat="43.99955" lon="4.87435">
        <ele>30.66</ele>
        <time>2019-05-29T08:43:38.000Z</time>
      </trkpt>
      <trkpt lat="43.99919" lon="4.87439">
        <ele>31.66</ele>
        <time>2019-05-29T08:43:43.000Z</time>
      </trkpt>
      <trkpt lat="43.99883" lon="4.87434">
        <ele>30.91</ele>
        <time>2019-05-29T08:43:48.000Z</time>
      </trkpt>
      <trkpt lat="43.99848" lon="4.87422">
        <ele>31.41</ele>
        <time>2019-05-29T08:43:53.000Z</time>
      </trkpt>
      <trkpt lat="43.99813" lon="4.87413">
        <ele>30.68</ele>
        <time>2019-05-29T08:43:58.000Z</time>
      </trkpt>
      <trkpt lat="43.99778" lon="4.87404">
        <ele>30.66</ele>
        <time>2019-05-29T08:44:03.000Z</time>
      </trkpt>
      <trkpt lat="43.99744" lon="4.87393">
        <ele>30.66</ele>
        <time>2019-05-29T08:44:08.000Z</time>
      </trkpt>
      <trkpt lat="43.9971" lon="4.87385">
        <ele>31.66</ele>
        <time>2019-05-29T08:44:13.000Z</time>
      </trkpt>
      <trkpt lat="43.99684" lon="4.87353">
        <ele>31.66</ele>
        <time>2019-05-29T08:44:18.000Z</time>
      </trkpt>
      <trkpt lat="43.99667" lon="4.87314">
        <ele>30.91</ele>
        <time>2019-05-29T08:44:23.000Z</time>
      </trkpt>
      <trkpt lat="43.99647" lon="4.87275">
        <ele>31.66</ele>
        <time>2019-05-29T08:44:28.000Z</time>
      </trkpt>
      <trkpt lat="43.9962" lon="4.87247">
        <ele>30.91</ele>
        <time>2019-05-29T08:44:33.000Z</time>
      </trkpt>
      <trkpt lat="43.99589" lon="4.87229">
        <ele>31.66</ele>
        <time>2019-05-29T08:44:38.000Z</time>
      </trkpt>
      <trkpt lat="43.99555" lon="4.87214">
        <ele>31.43</ele>
        <time>2019-05-29T08:44:43.000Z</time>
      </trkpt>
      <trkpt lat="43.99522" lon="4.872">
        <ele>30.66</ele>
        <time>2019-05-29T08:44:48.000Z</time>
      </trkpt>
      <trkpt lat="43.9949" lon="4.87184">
        <ele>30.67</ele>
        <time>2019-05-29T08:44:53.000Z</time>
      </trkpt>
      <trkpt lat="43.99456" lon="4.87168">
        <ele>31.67</ele>
        <time>2019-05-29T08:44:58.000Z</time>
      </trkpt>
      <trkpt lat="43.99423" lon="4.87155">
        <ele>30.67</ele>
        <time>2019-05-29T08:45:03.000Z</time>
      </trkpt>
      <trkpt lat="43.99389" lon="4.87139">
        <ele>29.92</ele>
        <time>2019-05-29T08:45:08.000Z</time>
      </trkpt>
      <trkpt lat="43.99353" lon="4.87123">
        <ele>30.42</ele>
        <time>2019-05-29T08:45:13.000Z</time>
      </trkpt>
      <trkpt lat="43.9932" lon="4.87106">
        <ele>33.4</ele>
        <time>2019-05-29T08:45:18.000Z</time>
      </trkpt>
      <trkpt lat="43.99297" lon="4.87087">
        <ele>34.67</ele>
        <time>2019-05-29T08:45:23.000Z</time>
      </trkpt>
      <trkpt lat="43.99281" lon="4.87066">
        <ele>33.93</ele>
        <time>2019-05-29T08:45:28.000Z</time>
      </trkpt>
      <trkpt lat="43.99271" lon="4.87046">
        <ele>35.65</ele>
        <time>2019-05-29T08:45:33.000Z</time>
      </trkpt>
      <trkpt lat="43.99263" lon="4.87022">
        <ele>36.67</ele>
        <time>2019-05-29T08:45:38.000Z</time>
      </trkpt>
      <trkpt lat="43.99255" lon="4.86993">
        <ele>37.42</ele>
        <time>2019-05-29T08:45:43.000Z</time>
      </trkpt>
      <trkpt lat="43.99248" lon="4.86962">
        <ele>36.68</ele>
        <time>2019-05-29T08:45:48.000Z</time>
      </trkpt>
      <trkpt lat="43.99238" lon="4.86923">
        <ele>35.67</ele>
        <time>2019-05-29T08:45:53.000Z</time>
      </trkpt>
      <trkpt lat="43.99228" lon="4.86875">
        <ele>33.92</ele>
        <time>2019-05-29T08:45:58.000Z</time>
      </trkpt>
      <trkpt lat="43.99216" lon="4.8682">
        <ele>32.67</ele>
        <time>2019-05-29T08:46:03.000Z</time>
      </trkpt>
      <trkpt lat="43.99206" lon="4.86767">
        <ele>30.68</ele>
        <time>2019-05-29T08:46:08.000Z</time>
      </trkpt>
      <trkpt lat="43.99198" lon="4.86719">
        <ele>29.92</ele>
        <time>2019-05-29T08:46:13.000Z</time>
      </trkpt>
      <trkpt lat="43.99194" lon="4.86675">
        <ele>29.67</ele>
        <time>2019-05-29T08:46:18.000Z</time>
      </trkpt>
      <trkpt lat="43.99187" lon="4.86632">
        <ele>28.67</ele>
        <time>2019-05-29T08:46:23.000Z</time>
      </trkpt>
      <trkpt lat="43.99191" lon="4.86592">
        <ele>27.69</ele>
        <time>2019-05-29T08:46:28.000Z</time>
      </trkpt>
      <trkpt lat="43.99203" lon="4.86562">
        <ele>29.65</ele>
        <time>2019-05-29T08:46:33.000Z</time>
      </trkpt>
      <trkpt lat="43.99213" lon="4.86528">
        <ele>29.69</ele>
        <time>2019-05-29T08:46:38.000Z</time>
      </trkpt>
      <trkpt lat="43.99224" lon="4.86492">
        <ele>31.42</ele>
        <time>2019-05-29T08:46:43.000Z</time>
      </trkpt>
      <trkpt lat="43.99233" lon="4.86462">
        <ele>29.69</ele>
        <time>2019-05-29T08:46:48.000Z</time>
      </trkpt>
      <trkpt lat="43.9924" lon="4.86454">
        <ele>27.67</ele>
        <time>2019-05-29T08:47:02.000Z</time>
      </trkpt>
      <trkpt lat="43.99231" lon="4.86461">
        <ele>28.67</ele>
        <time>2019-05-29T08:47:20.000Z</time>
      </trkpt>
      <trkpt lat="43.99224" lon="4.86483">
        <ele>28.9</ele>
        <time>2019-05-29T08:47:25.000Z</time>
      </trkpt>
      <trkpt lat="43.99221" lon="4.865">
        <ele>28.68</ele>
        <time>2019-05-29T08:47:42.000Z</time>
      </trkpt>
      <trkpt lat="43.9921" lon="4.86525">
        <ele>29.67</ele>
        <time>2019-05-29T08:47:47.000Z</time>
      </trkpt>
      <trkpt lat="43.99201" lon="4.86555">
        <ele>28.67</ele>
        <time>2019-05-29T08:47:52.000Z</time>
      </trkpt>
      <trkpt lat="43.9919" lon="4.86588">
        <ele>27.66</ele>
        <time>2019-05-29T08:47:57.000Z</time>
      </trkpt>
      <trkpt lat="43.99182" lon="4.86617">
        <ele>28.67</ele>
        <time>2019-05-29T08:48:02.000Z</time>
      </trkpt>
      <trkpt lat="43.99184" lon="4.86655">
        <ele>27.67</ele>
        <time>2019-05-29T08:48:07.000Z</time>
      </trkpt>
      <trkpt lat="43.99189" lon="4.86692">
        <ele>27.67</ele>
        <time>2019-05-29T08:48:12.000Z</time>
      </trkpt>
      <trkpt lat="43.99194" lon="4.86729">
        <ele>26.92</ele>
        <time>2019-05-29T08:48:17.000Z</time>
      </trkpt>
      <trkpt lat="43.99197" lon="4.86766">
        <ele>26.92</ele>
        <time>2019-05-29T08:48:22.000Z</time>
      </trkpt>
      <trkpt lat="43.99204" lon="4.868">
        <ele>27.67</ele>
        <time>2019-05-29T08:48:27.000Z</time>
      </trkpt>
      <trkpt lat="43.99211" lon="4.86834">
        <ele>28.67</ele>
        <time>2019-05-29T08:48:32.000Z</time>
      </trkpt>
      <trkpt lat="43.99218" lon="4.86863">
        <ele>30.42</ele>
        <time>2019-05-29T08:48:37.000Z</time>
      </trkpt>
      <trkpt lat="43.99221" lon="4.86885">
        <ele>31.65</ele>
        <time>2019-05-29T08:48:42.000Z</time>
      </trkpt>
      <trkpt lat="43.99226" lon="4.86906">
        <ele>32.43</ele>
        <time>2019-05-29T08:48:47.000Z</time>
      </trkpt>
      <trkpt lat="43.9923" lon="4.86927">
        <ele>33.65</ele>
        <time>2019-05-29T08:48:52.000Z</time>
      </trkpt>
      <trkpt lat="43.99234" lon="4.86948">
        <ele>34.65</ele>
        <time>2019-05-29T08:48:57.000Z</time>
      </trkpt>
      <trkpt lat="43.99239" lon="4.8697">
        <ele>34.67</ele>
        <time>2019-05-29T08:49:02.000Z</time>
      </trkpt>
      <trkpt lat="43.99245" lon="4.86993">
        <ele>35.42</ele>
        <time>2019-05-29T08:49:07.000Z</time>
      </trkpt>
      <trkpt lat="43.99252" lon="4.87018">
        <ele>35.67</ele>
        <time>2019-05-29T08:49:12.000Z</time>
      </trkpt>
      <trkpt lat="43.99262" lon="4.87048">
        <ele>34.67</ele>
        <time>2019-05-29T08:49:17.000Z</time>
      </trkpt>
      <trkpt lat="43.99276" lon="4.87074">
        <ele>33.67</ele>
        <time>2019-05-29T08:49:22.000Z</time>
      </trkpt>
      <trkpt lat="43.99285" lon="4.87093">
        <ele>32.67</ele>
        <time>2019-05-29T08:49:27.000Z</time>
      </trkpt>
      <trkpt lat="43.99277" lon="4.87101">
        <ele>32.65</ele>
        <time>2019-05-29T08:52:25.000Z</time>
      </trkpt>
      <trkpt lat="43.99268" lon="4.87108">
        <ele>32.67</ele>
        <time>2019-05-29T08:52:30.000Z</time>
      </trkpt>
      <trkpt lat="43.99252" lon="4.87095">
        <ele>31.92</ele>
        <time>2019-05-29T08:52:35.000Z</time>
      </trkpt>
      <trkpt lat="43.99228" lon="4.87072">
        <ele>30.67</ele>
        <time>2019-05-29T08:52:40.000Z</time>
      </trkpt>
      <trkpt lat="43.99199" lon="4.87058">
        <ele>28.92</ele>
        <time>2019-05-29T08:52:45.000Z</time>
      </trkpt>
      <trkpt lat="43.99168" lon="4.87046">
        <ele>29.67</ele>
        <time>2019-05-29T08:52:50.000Z</time>
      </trkpt>
      <trkpt lat="43.99137" lon="4.87035">
        <ele>29.42</ele>
        <time>2019-05-29T08:52:55.000Z</time>
      </trkpt>
      <trkpt lat="43.99108" lon="4.87024">
        <ele>28.43</ele>
        <time>2019-05-29T08:53:00.000Z</time>
      </trkpt>
      <trkpt lat="43.9908" lon="4.87015">
        <ele>29.65</ele>
        <time>2019-05-29T08:53:05.000Z</time>
      </trkpt>
      <trkpt lat="43.99052" lon="4.87008">
        <ele>29.67</ele>
        <time>2019-05-29T08:53:10.000Z</time>
      </trkpt>
      <trkpt lat="43.99023" lon="4.86999">
        <ele>29.67</ele>
        <time>2019-05-29T08:53:15.000Z</time>
      </trkpt>
      <trkpt lat="43.98995" lon="4.8699">
        <ele>29.66</ele>
        <time>2019-05-29T08:53:20.000Z</time>
      </trkpt>
      <trkpt lat="43.98969" lon="4.86978">
        <ele>28.67</ele>
        <time>2019-05-29T08:53:25.000Z</time>
      </trkpt>
      <trkpt lat="43.98943" lon="4.86965">
        <ele>29.67</ele>
        <time>2019-05-29T08:53:30.000Z</time>
      </trkpt>
      <trkpt lat="43.98917" lon="4.86953">
        <ele>29.67</ele>
        <time>2019-05-29T08:53:35.000Z</time>
      </trkpt>
      <trkpt lat="43.98891" lon="4.86939">
        <ele>28.69</ele>
        <time>2019-05-29T08:53:40.000Z</time>
      </trkpt>
      <trkpt lat="43.98864" lon="4.86926">
        <ele>29.67</ele>
        <time>2019-05-29T08:53:45.000Z</time>
      </trkpt>
      <trkpt lat="43.98839" lon="4.86913">
        <ele>29.67</ele>
        <time>2019-05-29T08:53:50.000Z</time>
      </trkpt>
      <trkpt lat="43.98821" lon="4.86902">
        <ele>28.69</ele>
        <time>2019-05-29T08:53:55.000Z</time>
      </trkpt>
      <trkpt lat="43.98799" lon="4.8689">
        <ele>23.94</ele>
        <time>2019-05-29T08:54:00.000Z</time>
      </trkpt>
      <trkpt lat="43.98775" lon="4.86873">
        <ele>25.66</ele>
        <time>2019-05-29T08:54:05.000Z</time>
      </trkpt>
      <trkpt lat="43.98753" lon="4.86858">
        <ele>25.67</ele>
        <time>2019-05-29T08:54:10.000Z</time>
      </trkpt>
      <trkpt lat="43.98731" lon="4.86841">
        <ele>25.92</ele>
        <time>2019-05-29T08:54:15.000Z</time>
      </trkpt>
      <trkpt lat="43.98709" lon="4.86826">
        <ele>25.66</ele>
        <time>2019-05-29T08:54:20.000Z</time>
      </trkpt>
      <trkpt lat="43.98688" lon="4.8681">
        <ele>25.67</ele>
        <time>2019-05-29T08:54:25.000Z</time>
      </trkpt>
      <trkpt lat="43.98673" lon="4.86799">
        <ele>26.67</ele>
        <time>2019-05-29T08:54:30.000Z</time>
      </trkpt>
      <trkpt lat="43.9868" lon="4.86811">
        <ele>27.67</ele>
        <time>2019-05-29T08:54:43.000Z</time>
      </trkpt>
      <trkpt lat="43.98695" lon="4.86821">
        <ele>29.42</ele>
        <time>2019-05-29T08:54:48.000Z</time>
      </trkpt>
      <trkpt lat="43.9871" lon="4.86832">
        <ele>29.42</ele>
        <time>2019-05-29T08:54:53.000Z</time>
      </trkpt>
      <trkpt lat="43.98714" lon="4.86855">
        <ele>29.67</ele>
        <time>2019-05-29T08:54:58.000Z</time>
      </trkpt>
      <trkpt lat="43.98705" lon="4.8688">
        <ele>31.42</ele>
        <time>2019-05-29T08:55:03.000Z</time>
      </trkpt>
      <trkpt lat="43.98696" lon="4.86904">
        <ele>30.67</ele>
        <time>2019-05-29T08:55:08.000Z</time>
      </trkpt>
      <trkpt lat="43.98688" lon="4.8693">
        <ele>31.67</ele>
        <time>2019-05-29T08:55:13.000Z</time>
      </trkpt>
      <trkpt lat="43.9868" lon="4.86956">
        <ele>33.42</ele>
        <time>2019-05-29T08:55:18.000Z</time>
      </trkpt>
      <trkpt lat="43.9867" lon="4.86985">
        <ele>32.67</ele>
        <time>2019-05-29T08:55:23.000Z</time>
      </trkpt>
      <trkpt lat="43.98661" lon="4.87016">
        <ele>31.67</ele>
        <time>2019-05-29T08:55:28.000Z</time>
      </trkpt>
      <trkpt lat="43.98651" lon="4.87047">
        <ele>31.67</ele>
        <time>2019-05-29T08:55:33.000Z</time>
      </trkpt>
      <trkpt lat="43.98638" lon="4.87079">
        <ele>32.67</ele>
        <time>2019-05-29T08:55:38.000Z</time>
      </trkpt>
      <trkpt lat="43.98624" lon="4.87107">
        <ele>34.42</ele>
        <time>2019-05-29T08:55:43.000Z</time>
      </trkpt>
      <trkpt lat="43.98614" lon="4.87137">
        <ele>32.69</ele>
        <time>2019-05-29T08:55:48.000Z</time>
      </trkpt>
      <trkpt lat="43.98603" lon="4.87166">
        <ele>31.92</ele>
        <time>2019-05-29T08:55:53.000Z</time>
      </trkpt>
      <trkpt lat="43.98592" lon="4.87196">
        <ele>32.67</ele>
        <time>2019-05-29T08:55:58.000Z</time>
      </trkpt>
      <trkpt lat="43.98581" lon="4.87225">
        <ele>31.69</ele>
        <time>2019-05-29T08:56:03.000Z</time>
      </trkpt>
      <trkpt lat="43.9857" lon="4.87255">
        <ele>31.67</ele>
        <time>2019-05-29T08:56:08.000Z</time>
      </trkpt>
      <trkpt lat="43.98558" lon="4.87285">
        <ele>31.67</ele>
        <time>2019-05-29T08:56:13.000Z</time>
      </trkpt>
      <trkpt lat="43.98547" lon="4.87316">
        <ele>31.67</ele>
        <time>2019-05-29T08:56:18.000Z</time>
      </trkpt>
      <trkpt lat="43.98541" lon="4.87335">
        <ele>31.67</ele>
        <time>2019-05-29T08:56:23.000Z</time>
      </trkpt>
      <trkpt lat="43.98532" lon="4.8733">
        <ele>30.92</ele>
        <time>2019-05-29T08:56:29.000Z</time>
      </trkpt>
      <trkpt lat="43.98522" lon="4.87321">
        <ele>31.42</ele>
        <time>2019-05-29T08:56:34.000Z</time>
      </trkpt>
      <trkpt lat="43.98528" lon="4.87331">
        <ele>30.67</ele>
        <time>2019-05-29T08:56:44.000Z</time>
      </trkpt>
      <trkpt lat="43.98543" lon="4.87345">
        <ele>31.66</ele>
        <time>2019-05-29T08:56:49.000Z</time>
      </trkpt>
      <trkpt lat="43.98557" lon="4.87359">
        <ele>30.92</ele>
        <time>2019-05-29T08:56:54.000Z</time>
      </trkpt>
      <trkpt lat="43.98571" lon="4.87373">
        <ele>29.67</ele>
        <time>2019-05-29T08:56:59.000Z</time>
      </trkpt>
      <trkpt lat="43.98581" lon="4.87389">
        <ele>31.42</ele>
        <time>2019-05-29T08:57:04.000Z</time>
      </trkpt>
      <trkpt lat="43.9859" lon="4.87404">
        <ele>31.67</ele>
        <time>2019-05-29T08:57:09.000Z</time>
      </trkpt>
      <trkpt lat="43.98598" lon="4.87419">
        <ele>31.67</ele>
        <time>2019-05-29T08:57:14.000Z</time>
      </trkpt>
      <trkpt lat="43.98606" lon="4.87435">
        <ele>31.69</ele>
        <time>2019-05-29T08:57:19.000Z</time>
      </trkpt>
      <trkpt lat="43.98618" lon="4.87454">
        <ele>31.67</ele>
        <time>2019-05-29T08:57:24.000Z</time>
      </trkpt>
      <trkpt lat="43.98629" lon="4.87474">
        <ele>29.69</ele>
        <time>2019-05-29T08:57:29.000Z</time>
      </trkpt>
      <trkpt lat="43.98624" lon="4.87492">
        <ele>31.67</ele>
        <time>2019-05-29T08:57:34.000Z</time>
      </trkpt>
      <trkpt lat="43.98615" lon="4.87514">
        <ele>32.66</ele>
        <time>2019-05-29T08:57:39.000Z</time>
      </trkpt>
      <trkpt lat="43.986" lon="4.87538">
        <ele>34.41</ele>
        <time>2019-05-29T08:57:44.000Z</time>
      </trkpt>
      <trkpt lat="43.98587" lon="4.87563">
        <ele>34.66</ele>
        <time>2019-05-29T08:57:49.000Z</time>
      </trkpt>
      <trkpt lat="43.98575" lon="4.87591">
        <ele>34.67</ele>
        <time>2019-05-29T08:57:54.000Z</time>
      </trkpt>
      <trkpt lat="43.9856" lon="4.87618">
        <ele>34.67</ele>
        <time>2019-05-29T08:57:59.000Z</time>
      </trkpt>
      <trkpt lat="43.98545" lon="4.87645">
        <ele>34.67</ele>
        <time>2019-05-29T08:58:04.000Z</time>
      </trkpt>
      <trkpt lat="43.98532" lon="4.87675">
        <ele>35.42</ele>
        <time>2019-05-29T08:58:09.000Z</time>
      </trkpt>
      <trkpt lat="43.98517" lon="4.87706">
        <ele>36.42</ele>
        <time>2019-05-29T08:58:14.000Z</time>
      </trkpt>
      <trkpt lat="43.98501" lon="4.87732">
        <ele>36.67</ele>
        <time>2019-05-29T08:58:19.000Z</time>
      </trkpt>
      <trkpt lat="43.98488" lon="4.87756">
        <ele>38.66</ele>
        <time>2019-05-29T08:58:24.000Z</time>
      </trkpt>
      <trkpt lat="43.98477" lon="4.8778">
        <ele>40.64</ele>
        <time>2019-05-29T08:58:29.000Z</time>
      </trkpt>
      <trkpt lat="43.98464" lon="4.87805">
        <ele>41.67</ele>
        <time>2019-05-29T08:58:34.000Z</time>
      </trkpt>
      <trkpt lat="43.98451" lon="4.87832">
        <ele>41.69</ele>
        <time>2019-05-29T08:58:39.000Z</time>
      </trkpt>
      <trkpt lat="43.98439" lon="4.87858">
        <ele>40.66</ele>
        <time>2019-05-29T08:58:44.000Z</time>
      </trkpt>
      <trkpt lat="43.98426" lon="4.87884">
        <ele>41.66</ele>
        <time>2019-05-29T08:58:49.000Z</time>
      </trkpt>
      <trkpt lat="43.98431" lon="4.87912">
        <ele>39.67</ele>
        <time>2019-05-29T08:58:54.000Z</time>
      </trkpt>
      <trkpt lat="43.98436" lon="4.87937">
        <ele>38.67</ele>
        <time>2019-05-29T08:58:59.000Z</time>
      </trkpt>
      <trkpt lat="43.98436" lon="4.8796">
        <ele>36.66</ele>
        <time>2019-05-29T08:59:04.000Z</time>
      </trkpt>
      <trkpt lat="43.98428" lon="4.8797">
        <ele>34.92</ele>
        <time>2019-05-29T08:59:58.000Z</time>
      </trkpt>
      <trkpt lat="43.98414" lon="4.87968">
        <ele>35.66</ele>
        <time>2019-05-29T09:00:03.000Z</time>
      </trkpt>
      <trkpt lat="43.98404" lon="4.87937">
        <ele>35.67</ele>
        <time>2019-05-29T09:00:08.000Z</time>
      </trkpt>
      <trkpt lat="43.98393" lon="4.87907">
        <ele>34.67</ele>
        <time>2019-05-29T09:00:13.000Z</time>
      </trkpt>
      <trkpt lat="43.98382" lon="4.87876">
        <ele>34.67</ele>
        <time>2019-05-29T09:00:18.000Z</time>
      </trkpt>
      <trkpt lat="43.9837" lon="4.87842">
        <ele>34.67</ele>
        <time>2019-05-29T09:00:23.000Z</time>
      </trkpt>
      <trkpt lat="43.98358" lon="4.87806">
        <ele>34.67</ele>
        <time>2019-05-29T09:00:28.000Z</time>
      </trkpt>
      <trkpt lat="43.98347" lon="4.8777">
        <ele>32.47</ele>
        <time>2019-05-29T09:00:33.000Z</time>
      </trkpt>
      <trkpt lat="43.98347" lon="4.87733">
        <ele>33.66</ele>
        <time>2019-05-29T09:00:38.000Z</time>
      </trkpt>
      <trkpt lat="43.98328" lon="4.87707">
        <ele>32.47</ele>
        <time>2019-05-29T09:00:43.000Z</time>
      </trkpt>
      <trkpt lat="43.98303" lon="4.87725">
        <ele>34.42</ele>
        <time>2019-05-29T09:00:48.000Z</time>
      </trkpt>
      <trkpt lat="43.9828" lon="4.87756">
        <ele>32.47</ele>
        <time>2019-05-29T09:00:53.000Z</time>
      </trkpt>
      <trkpt lat="43.98249" lon="4.87778">
        <ele>33.67</ele>
        <time>2019-05-29T09:00:58.000Z</time>
      </trkpt>
      <trkpt lat="43.98219" lon="4.878">
        <ele>33.67</ele>
        <time>2019-05-29T09:01:03.000Z</time>
      </trkpt>
      <trkpt lat="43.98189" lon="4.87821">
        <ele>34.67</ele>
        <time>2019-05-29T09:01:08.000Z</time>
      </trkpt>
      <trkpt lat="43.98159" lon="4.87825">
        <ele>33.69</ele>
        <time>2019-05-29T09:01:13.000Z</time>
      </trkpt>
      <trkpt lat="43.98136" lon="4.87804">
        <ele>32.93</ele>
        <time>2019-05-29T09:01:18.000Z</time>
      </trkpt>
      <trkpt lat="43.98114" lon="4.8778">
        <ele>32.43</ele>
        <time>2019-05-29T09:01:23.000Z</time>
      </trkpt>
      <trkpt lat="43.9809" lon="4.87807">
        <ele>33.44</ele>
        <time>2019-05-29T09:01:28.000Z</time>
      </trkpt>
      <trkpt lat="43.98062" lon="4.87827">
        <ele>32.91</ele>
        <time>2019-05-29T09:01:33.000Z</time>
      </trkpt>
      <trkpt lat="43.98052" lon="4.87833">
        <ele>34.67</ele>
        <time>2019-05-29T09:01:39.000Z</time>
      </trkpt>
      <trkpt lat="43.98038" lon="4.87843">
        <ele>35.68</ele>
        <time>2019-05-29T09:01:44.000Z</time>
      </trkpt>
      <trkpt lat="43.98017" lon="4.87858">
        <ele>36.43</ele>
        <time>2019-05-29T09:01:49.000Z</time>
      </trkpt>
      <trkpt lat="43.97993" lon="4.87872">
        <ele>36.68</ele>
        <time>2019-05-29T09:01:54.000Z</time>
      </trkpt>
      <trkpt lat="43.97966" lon="4.87873">
        <ele>34.66</ele>
        <time>2019-05-29T09:01:59.000Z</time>
      </trkpt>
      <trkpt lat="43.9795" lon="4.87899">
        <ele>34.93</ele>
        <time>2019-05-29T09:02:04.000Z</time>
      </trkpt>
      <trkpt lat="43.97968" lon="4.87927">
        <ele>34.41</ele>
        <time>2019-05-29T09:02:09.000Z</time>
      </trkpt>
      <trkpt lat="43.97982" lon="4.87962">
        <ele>34.68</ele>
        <time>2019-05-29T09:02:14.000Z</time>
      </trkpt>
      <trkpt lat="43.97997" lon="4.87994">
        <ele>34.41</ele>
        <time>2019-05-29T09:02:19.000Z</time>
      </trkpt>
      <trkpt lat="43.98014" lon="4.88024">
        <ele>33.66</ele>
        <time>2019-05-29T09:02:24.000Z</time>
      </trkpt>
      <trkpt lat="43.98029" lon="4.88052">
        <ele>33.68</ele>
        <time>2019-05-29T09:02:29.000Z</time>
      </trkpt>
      <trkpt lat="43.98046" lon="4.88082">
        <ele>33.43</ele>
        <time>2019-05-29T09:02:34.000Z</time>
      </trkpt>
      <trkpt lat="43.98064" lon="4.88111">
        <ele>34.67</ele>
        <time>2019-05-29T09:02:39.000Z</time>
      </trkpt>
      <trkpt lat="43.98081" lon="4.88142">
        <ele>33.66</ele>
        <time>2019-05-29T09:02:44.000Z</time>
      </trkpt>
      <trkpt lat="43.98096" lon="4.8817">
        <ele>34.67</ele>
        <time>2019-05-29T09:02:49.000Z</time>
      </trkpt>
      <trkpt lat="43.98113" lon="4.882">
        <ele>34.41</ele>
        <time>2019-05-29T09:02:54.000Z</time>
      </trkpt>
      <trkpt lat="43.98127" lon="4.88227">
        <ele>35.67</ele>
        <time>2019-05-29T09:02:59.000Z</time>
      </trkpt>
      <trkpt lat="43.98138" lon="4.8825">
        <ele>36.42</ele>
        <time>2019-05-29T09:03:04.000Z</time>
      </trkpt>
      <trkpt lat="43.98148" lon="4.88274">
        <ele>34.41</ele>
        <time>2019-05-29T09:03:09.000Z</time>
      </trkpt>
      <trkpt lat="43.98153" lon="4.88289">
        <ele>33.69</ele>
        <time>2019-05-29T09:03:44.000Z</time>
      </trkpt>
      <trkpt lat="43.98164" lon="4.8831">
        <ele>33.92</ele>
        <time>2019-05-29T09:03:49.000Z</time>
      </trkpt>
      <trkpt lat="43.98178" lon="4.88341">
        <ele>32.41</ele>
        <time>2019-05-29T09:03:54.000Z</time>
      </trkpt>
      <trkpt lat="43.98187" lon="4.88376">
        <ele>35.41</ele>
        <time>2019-05-29T09:03:59.000Z</time>
      </trkpt>
      <trkpt lat="43.98199" lon="4.88401">
        <ele>36.16</ele>
        <time>2019-05-29T09:04:04.000Z</time>
      </trkpt>
      <trkpt lat="43.98219" lon="4.88397">
        <ele>35.67</ele>
        <time>2019-05-29T09:04:09.000Z</time>
      </trkpt>
      <trkpt lat="43.98236" lon="4.88388">
        <ele>35.67</ele>
        <time>2019-05-29T09:04:14.000Z</time>
      </trkpt>
      <trkpt lat="43.98255" lon="4.88378">
        <ele>34.67</ele>
        <time>2019-05-29T09:04:19.000Z</time>
      </trkpt>
      <trkpt lat="43.98276" lon="4.88378">
        <ele>35.44</ele>
        <time>2019-05-29T09:04:24.000Z</time>
      </trkpt>
      <trkpt lat="43.98283" lon="4.88405">
        <ele>33.7</ele>
        <time>2019-05-29T09:04:29.000Z</time>
      </trkpt>
      <trkpt lat="43.98284" lon="4.8843">
        <ele>36.42</ele>
        <time>2019-05-29T09:04:34.000Z</time>
      </trkpt>
      <trkpt lat="43.98278" lon="4.88451">
        <ele>36.47</ele>
        <time>2019-05-29T09:04:39.000Z</time>
      </trkpt>
      <trkpt lat="43.98261" lon="4.88466">
        <ele>39.67</ele>
        <time>2019-05-29T09:04:44.000Z</time>
      </trkpt>
      <trkpt lat="43.98244" lon="4.88476">
        <ele>38.47</ele>
        <time>2019-05-29T09:04:49.000Z</time>
      </trkpt>
      <trkpt lat="43.98227" lon="4.88484">
        <ele>41.66</ele>
        <time>2019-05-29T09:04:54.000Z</time>
      </trkpt>
      <trkpt lat="43.98211" lon="4.88492">
        <ele>40.02</ele>
        <time>2019-05-29T09:04:59.000Z</time>
      </trkpt>
      <trkpt lat="43.98195" lon="4.885">
        <ele>44.66</ele>
        <time>2019-05-29T09:05:04.000Z</time>
      </trkpt>
      <trkpt lat="43.98178" lon="4.88509">
        <ele>44.67</ele>
        <time>2019-05-29T09:05:09.000Z</time>
      </trkpt>
      <trkpt lat="43.98156" lon="4.8852">
        <ele>44.67</ele>
        <time>2019-05-29T09:05:14.000Z</time>
      </trkpt>
      <trkpt lat="43.98127" lon="4.88534">
        <ele>43.67</ele>
        <time>2019-05-29T09:05:19.000Z</time>
      </trkpt>
      <trkpt lat="43.9809" lon="4.88554">
        <ele>40.69</ele>
        <time>2019-05-29T09:05:24.000Z</time>
      </trkpt>
      <trkpt lat="43.98044" lon="4.8858">
        <ele>37.69</ele>
        <time>2019-05-29T09:05:29.000Z</time>
      </trkpt>
      <trkpt lat="43.98014" lon="4.88617">
        <ele>35.67</ele>
        <time>2019-05-29T09:05:34.000Z</time>
      </trkpt>
      <trkpt lat="43.98007" lon="4.88662">
        <ele>33.92</ele>
        <time>2019-05-29T09:05:39.000Z</time>
      </trkpt>
      <trkpt lat="43.97992" lon="4.8868">
        <ele>35.94</ele>
        <time>2019-05-29T09:05:44.000Z</time>
      </trkpt>
      <trkpt lat="43.97983" lon="4.88688">
        <ele>37.67</ele>
        <time>2019-05-29T09:06:08.000Z</time>
      </trkpt>
      <trkpt lat="43.97964" lon="4.88697">
        <ele>36.68</ele>
        <time>2019-05-29T09:06:13.000Z</time>
      </trkpt>
      <trkpt lat="43.97938" lon="4.88699">
        <ele>34.69</ele>
        <time>2019-05-29T09:06:18.000Z</time>
      </trkpt>
      <trkpt lat="43.97908" lon="4.887">
        <ele>36.66</ele>
        <time>2019-05-29T09:06:23.000Z</time>
      </trkpt>
      <trkpt lat="43.97876" lon="4.88701">
        <ele>38.66</ele>
        <time>2019-05-29T09:06:28.000Z</time>
      </trkpt>
      <trkpt lat="43.97845" lon="4.887">
        <ele>36.93</ele>
        <time>2019-05-29T09:06:33.000Z</time>
      </trkpt>
      <trkpt lat="43.9781" lon="4.88697">
        <ele>34.69</ele>
        <time>2019-05-29T09:06:38.000Z</time>
      </trkpt>
      <trkpt lat="43.97781" lon="4.88679">
        <ele>34.68</ele>
        <time>2019-05-29T09:06:43.000Z</time>
      </trkpt>
      <trkpt lat="43.97754" lon="4.88661">
        <ele>33.69</ele>
        <time>2019-05-29T09:06:48.000Z</time>
      </trkpt>
      <trkpt lat="43.97727" lon="4.88687">
        <ele>33.66</ele>
        <time>2019-05-29T09:06:53.000Z</time>
      </trkpt>
      <trkpt lat="43.97708" lon="4.8872">
        <ele>33.68</ele>
        <time>2019-05-29T09:06:58.000Z</time>
      </trkpt>
      <trkpt lat="43.97677" lon="4.88746">
        <ele>32.69</ele>
        <time>2019-05-29T09:07:03.000Z</time>
      </trkpt>
      <trkpt lat="43.97646" lon="4.8877">
        <ele>32.68</ele>
        <time>2019-05-29T09:07:08.000Z</time>
      </trkpt>
      <trkpt lat="43.9762" lon="4.88791">
        <ele>31.69</ele>
        <time>2019-05-29T09:07:13.000Z</time>
      </trkpt>
      <trkpt lat="43.97591" lon="4.88812">
        <ele>31.93</ele>
        <time>2019-05-29T09:07:18.000Z</time>
      </trkpt>
      <trkpt lat="43.97563" lon="4.88835">
        <ele>30.69</ele>
        <time>2019-05-29T09:07:23.000Z</time>
      </trkpt>
      <trkpt lat="43.97532" lon="4.88858">
        <ele>30.44</ele>
        <time>2019-05-29T09:07:28.000Z</time>
      </trkpt>
      <trkpt lat="43.97499" lon="4.88872">
        <ele>29.93</ele>
        <time>2019-05-29T09:07:33.000Z</time>
      </trkpt>
      <trkpt lat="43.97464" lon="4.88876">
        <ele>28.68</ele>
        <time>2019-05-29T09:07:38.000Z</time>
      </trkpt>
      <trkpt lat="43.97426" lon="4.88871">
        <ele>29.69</ele>
        <time>2019-05-29T09:07:43.000Z</time>
      </trkpt>
      <trkpt lat="43.97389" lon="4.88859">
        <ele>29.68</ele>
        <time>2019-05-29T09:07:48.000Z</time>
      </trkpt>
      <trkpt lat="43.97353" lon="4.88847">
        <ele>28.68</ele>
        <time>2019-05-29T09:07:53.000Z</time>
      </trkpt>
      <trkpt lat="43.97315" lon="4.88836">
        <ele>30.43</ele>
        <time>2019-05-29T09:07:58.000Z</time>
      </trkpt>
      <trkpt lat="43.97277" lon="4.88824">
        <ele>32.68</ele>
        <time>2019-05-29T09:08:03.000Z</time>
      </trkpt>
      <trkpt lat="43.97238" lon="4.88809">
        <ele>32.68</ele>
        <time>2019-05-29T09:08:08.000Z</time>
      </trkpt>
      <trkpt lat="43.97199" lon="4.88801">
        <ele>32.91</ele>
        <time>2019-05-29T09:08:13.000Z</time>
      </trkpt>
      <trkpt lat="43.97164" lon="4.88808">
        <ele>32.67</ele>
        <time>2019-05-29T09:08:18.000Z</time>
      </trkpt>
      <trkpt lat="43.97147" lon="4.88818">
        <ele>32.68</ele>
        <time>2019-05-29T09:08:23.000Z</time>
      </trkpt>
      <trkpt lat="43.97136" lon="4.88824">
        <ele>30.7</ele>
        <time>2019-05-29T09:08:28.000Z</time>
      </trkpt>
      <trkpt lat="43.97118" lon="4.88832">
        <ele>31.68</ele>
        <time>2019-05-29T09:08:33.000Z</time>
      </trkpt>
      <trkpt lat="43.97101" lon="4.8882">
        <ele>32.68</ele>
        <time>2019-05-29T09:08:38.000Z</time>
      </trkpt>
      <trkpt lat="43.9709" lon="4.88788">
        <ele>32.68</ele>
        <time>2019-05-29T09:08:43.000Z</time>
      </trkpt>
      <trkpt lat="43.97084" lon="4.88777">
        <ele>32.68</ele>
        <time>2019-05-29T09:09:04.000Z</time>
      </trkpt>
      <trkpt lat="43.97073" lon="4.88754">
        <ele>31.68</ele>
        <time>2019-05-29T09:09:09.000Z</time>
      </trkpt>
      <trkpt lat="43.97055" lon="4.88722">
        <ele>31.68</ele>
        <time>2019-05-29T09:09:14.000Z</time>
      </trkpt>
      <trkpt lat="43.97036" lon="4.88688">
        <ele>30.68</ele>
        <time>2019-05-29T09:09:19.000Z</time>
      </trkpt>
      <trkpt lat="43.97018" lon="4.88649">
        <ele>29.7</ele>
        <time>2019-05-29T09:09:24.000Z</time>
      </trkpt>
      <trkpt lat="43.96997" lon="4.88611">
        <ele>30.68</ele>
        <time>2019-05-29T09:09:29.000Z</time>
      </trkpt>
      <trkpt lat="43.96976" lon="4.88573">
        <ele>30.68</ele>
        <time>2019-05-29T09:09:34.000Z</time>
      </trkpt>
      <trkpt lat="43.96957" lon="4.88535">
        <ele>30.68</ele>
        <time>2019-05-29T09:09:39.000Z</time>
      </trkpt>
      <trkpt lat="43.9694" lon="4.885">
        <ele>31.43</ele>
        <time>2019-05-29T09:09:44.000Z</time>
      </trkpt>
      <trkpt lat="43.96927" lon="4.88462">
        <ele>31.43</ele>
        <time>2019-05-29T09:09:49.000Z</time>
      </trkpt>
      <trkpt lat="43.9692" lon="4.88441">
        <ele>32.68</ele>
        <time>2019-05-29T09:09:54.000Z</time>
      </trkpt>
      <trkpt lat="43.96915" lon="4.88428">
        <ele>29.69</ele>
        <time>2019-05-29T09:10:09.000Z</time>
      </trkpt>
      <trkpt lat="43.96905" lon="4.88402">
        <ele>30.67</ele>
        <time>2019-05-29T09:10:14.000Z</time>
      </trkpt>
      <trkpt lat="43.96894" lon="4.88371">
        <ele>31.68</ele>
        <time>2019-05-29T09:10:19.000Z</time>
      </trkpt>
      <trkpt lat="43.96882" lon="4.88337">
        <ele>32.67</ele>
        <time>2019-05-29T09:10:24.000Z</time>
      </trkpt>
      <trkpt lat="43.96869" lon="4.883">
        <ele>31.93</ele>
        <time>2019-05-29T09:10:29.000Z</time>
      </trkpt>
      <trkpt lat="43.96855" lon="4.88265">
        <ele>32.68</ele>
        <time>2019-05-29T09:10:34.000Z</time>
      </trkpt>
      <trkpt lat="43.96838" lon="4.88229">
        <ele>32.45</ele>
        <time>2019-05-29T09:10:39.000Z</time>
      </trkpt>
      <trkpt lat="43.96815" lon="4.88219">
        <ele>30.72</ele>
        <time>2019-05-29T09:10:44.000Z</time>
      </trkpt>
      <trkpt lat="43.96782" lon="4.88231">
        <ele>30.45</ele>
        <time>2019-05-29T09:10:49.000Z</time>
      </trkpt>
      <trkpt lat="43.96747" lon="4.88233">
        <ele>30.67</ele>
        <time>2019-05-29T09:10:54.000Z</time>
      </trkpt>
      <trkpt lat="43.9671" lon="4.88238">
        <ele>31.69</ele>
        <time>2019-05-29T09:10:59.000Z</time>
      </trkpt>
      <trkpt lat="43.96672" lon="4.88243">
        <ele>29.94</ele>
        <time>2019-05-29T09:11:04.000Z</time>
      </trkpt>
      <trkpt lat="43.96635" lon="4.88246">
        <ele>32.67</ele>
        <time>2019-05-29T09:11:09.000Z</time>
      </trkpt>
      <trkpt lat="43.96598" lon="4.88249">
        <ele>32.69</ele>
        <time>2019-05-29T09:11:14.000Z</time>
      </trkpt>
      <trkpt lat="43.96561" lon="4.88254">
        <ele>30.69</ele>
        <time>2019-05-29T09:11:19.000Z</time>
      </trkpt>
      <trkpt lat="43.96547" lon="4.8825">
        <ele>30.69</ele>
        <time>2019-05-29T09:11:24.000Z</time>
      </trkpt>
      <trkpt lat="43.9654" lon="4.88241">
        <ele>31.94</ele>
        <time>2019-05-29T09:11:47.000Z</time>
      </trkpt>
      <trkpt lat="43.96538" lon="4.8822">
        <ele>30.7</ele>
        <time>2019-05-29T09:11:52.000Z</time>
      </trkpt>
      <trkpt lat="43.96537" lon="4.88191">
        <ele>30.69</ele>
        <time>2019-05-29T09:11:57.000Z</time>
      </trkpt>
      <trkpt lat="43.96536" lon="4.88159">
        <ele>30.69</ele>
        <time>2019-05-29T09:12:02.000Z</time>
      </trkpt>
      <trkpt lat="43.96534" lon="4.88127">
        <ele>30.69</ele>
        <time>2019-05-29T09:12:07.000Z</time>
      </trkpt>
      <trkpt lat="43.96532" lon="4.88094">
        <ele>30.44</ele>
        <time>2019-05-29T09:12:12.000Z</time>
      </trkpt>
      <trkpt lat="43.96529" lon="4.88062">
        <ele>31.44</ele>
        <time>2019-05-29T09:12:17.000Z</time>
      </trkpt>
      <trkpt lat="43.96528" lon="4.88029">
        <ele>31.69</ele>
        <time>2019-05-29T09:12:22.000Z</time>
      </trkpt>
      <trkpt lat="43.96524" lon="4.87996">
        <ele>31.69</ele>
        <time>2019-05-29T09:12:27.000Z</time>
      </trkpt>
      <trkpt lat="43.965" lon="4.87993">
        <ele>30.69</ele>
        <time>2019-05-29T09:12:32.000Z</time>
      </trkpt>
      <trkpt lat="43.96475" lon="4.87998">
        <ele>31.44</ele>
        <time>2019-05-29T09:12:37.000Z</time>
      </trkpt>
      <trkpt lat="43.96448" lon="4.87999">
        <ele>31.69</ele>
        <time>2019-05-29T09:12:42.000Z</time>
      </trkpt>
      <trkpt lat="43.96422" lon="4.88001">
        <ele>33.44</ele>
        <time>2019-05-29T09:12:47.000Z</time>
      </trkpt>
      <trkpt lat="43.96398" lon="4.88004">
        <ele>31.96</ele>
        <time>2019-05-29T09:12:52.000Z</time>
      </trkpt>
      <trkpt lat="43.96374" lon="4.88007">
        <ele>33.67</ele>
        <time>2019-05-29T09:12:57.000Z</time>
      </trkpt>
      <trkpt lat="43.96348" lon="4.8801">
        <ele>33.69</ele>
        <time>2019-05-29T09:13:02.000Z</time>
      </trkpt>
      <trkpt lat="43.9632" lon="4.88011">
        <ele>32.92</ele>
        <time>2019-05-29T09:13:07.000Z</time>
      </trkpt>
      <trkpt lat="43.96289" lon="4.88014">
        <ele>33.69</ele>
        <time>2019-05-29T09:13:12.000Z</time>
      </trkpt>
      <trkpt lat="43.96258" lon="4.88018">
        <ele>33.43</ele>
        <time>2019-05-29T09:13:17.000Z</time>
      </trkpt>
      <trkpt lat="43.96227" lon="4.88022">
        <ele>34.68</ele>
        <time>2019-05-29T09:13:22.000Z</time>
      </trkpt>
      <trkpt lat="43.96195" lon="4.88024">
        <ele>33.69</ele>
        <time>2019-05-29T09:13:27.000Z</time>
      </trkpt>
      <trkpt lat="43.96166" lon="4.88025">
        <ele>32.19</ele>
        <time>2019-05-29T09:13:32.000Z</time>
      </trkpt>
      <trkpt lat="43.96145" lon="4.88027">
        <ele>33.69</ele>
        <time>2019-05-29T09:13:37.000Z</time>
      </trkpt>
      <trkpt lat="43.96143" lon="4.88011">
        <ele>32.69</ele>
        <time>2019-05-29T09:13:44.000Z</time>
      </trkpt>
      <trkpt lat="43.96141" lon="4.87981">
        <ele>33.68</ele>
        <time>2019-05-29T09:13:49.000Z</time>
      </trkpt>
      <trkpt lat="43.96144" lon="4.8795">
        <ele>31.68</ele>
        <time>2019-05-29T09:13:54.000Z</time>
      </trkpt>
      <trkpt lat="43.96163" lon="4.87946">
        <ele>32.46</ele>
        <time>2019-05-29T09:13:59.000Z</time>
      </trkpt>
      <trkpt lat="43.96175" lon="4.87927">
        <ele>31.44</ele>
        <time>2019-05-29T09:14:04.000Z</time>
      </trkpt>
      <trkpt lat="43.96173" lon="4.87892">
        <ele>29.71</ele>
        <time>2019-05-29T09:14:09.000Z</time>
      </trkpt>
      <trkpt lat="43.96172" lon="4.87854">
        <ele>29.69</ele>
        <time>2019-05-29T09:14:14.000Z</time>
      </trkpt>
      <trkpt lat="43.9617" lon="4.87817">
        <ele>30.46</ele>
        <time>2019-05-29T09:14:19.000Z</time>
      </trkpt>
      <trkpt lat="43.96168" lon="4.87778">
        <ele>28.93</ele>
        <time>2019-05-29T09:14:24.000Z</time>
      </trkpt>
      <trkpt lat="43.96166" lon="4.87739">
        <ele>30.18</ele>
        <time>2019-05-29T09:14:29.000Z</time>
      </trkpt>
      <trkpt lat="43.96164" lon="4.877">
        <ele>28.68</ele>
        <time>2019-05-29T09:14:34.000Z</time>
      </trkpt>
      <trkpt lat="43.9616" lon="4.87662">
        <ele>30.44</ele>
        <time>2019-05-29T09:14:39.000Z</time>
      </trkpt>
      <trkpt lat="43.96159" lon="4.87622">
        <ele>28.69</ele>
        <time>2019-05-29T09:14:44.000Z</time>
      </trkpt>
      <trkpt lat="43.96158" lon="4.87585">
        <ele>29.71</ele>
        <time>2019-05-29T09:14:49.000Z</time>
      </trkpt>
      <trkpt lat="43.96164" lon="4.87548">
        <ele>27.69</ele>
        <time>2019-05-29T09:14:54.000Z</time>
      </trkpt>
      <trkpt lat="43.96175" lon="4.87517">
        <ele>28.68</ele>
        <time>2019-05-29T09:14:59.000Z</time>
      </trkpt>
      <trkpt lat="43.96188" lon="4.87504">
        <ele>29.71</ele>
        <time>2019-05-29T09:15:04.000Z</time>
      </trkpt>
      <trkpt lat="43.96198" lon="4.87485">
        <ele>30.71</ele>
        <time>2019-05-29T09:15:09.000Z</time>
      </trkpt>
      <trkpt lat="43.96208" lon="4.87458">
        <ele>30.68</ele>
        <time>2019-05-29T09:15:14.000Z</time>
      </trkpt>
      <trkpt lat="43.96217" lon="4.87432">
        <ele>31.44</ele>
        <time>2019-05-29T09:15:19.000Z</time>
      </trkpt>
      <trkpt lat="43.96226" lon="4.87401">
        <ele>30.71</ele>
        <time>2019-05-29T09:15:24.000Z</time>
      </trkpt>
      <trkpt lat="43.96238" lon="4.87375">
        <ele>29.69</ele>
        <time>2019-05-29T09:15:29.000Z</time>
      </trkpt>
      <trkpt lat="43.96247" lon="4.87348">
        <ele>28.69</ele>
        <time>2019-05-29T09:15:34.000Z</time>
      </trkpt>
      <trkpt lat="43.96256" lon="4.87321">
        <ele>28.69</ele>
        <time>2019-05-29T09:15:39.000Z</time>
      </trkpt>
      <trkpt lat="43.96264" lon="4.87302">
        <ele>28.69</ele>
        <time>2019-05-29T09:15:44.000Z</time>
      </trkpt>
      <trkpt lat="43.96271" lon="4.87294">
        <ele>29.69</ele>
        <time>2019-05-29T09:16:01.000Z</time>
      </trkpt>
      <trkpt lat="43.96272" lon="4.87273">
        <ele>29.44</ele>
        <time>2019-05-29T09:16:06.000Z</time>
      </trkpt>
      <trkpt lat="43.96273" lon="4.87252">
        <ele>27.94</ele>
        <time>2019-05-29T09:16:11.000Z</time>
      </trkpt>
      <trkpt lat="43.96281" lon="4.87234">
        <ele>27.68</ele>
        <time>2019-05-29T09:16:16.000Z</time>
      </trkpt>
      <trkpt lat="43.96291" lon="4.87202">
        <ele>28.68</ele>
        <time>2019-05-29T09:16:21.000Z</time>
      </trkpt>
      <trkpt lat="43.963" lon="4.87173">
        <ele>30.69</ele>
        <time>2019-05-29T09:16:26.000Z</time>
      </trkpt>
      <trkpt lat="43.96317" lon="4.87167">
        <ele>32.68</ele>
        <time>2019-05-29T09:16:31.000Z</time>
      </trkpt>
      <trkpt lat="43.96332" lon="4.87165">
        <ele>33.44</ele>
        <time>2019-05-29T09:16:36.000Z</time>
      </trkpt>
      <trkpt lat="43.96346" lon="4.87159">
        <ele>34.68</ele>
        <time>2019-05-29T09:16:41.000Z</time>
      </trkpt>
      <trkpt lat="43.96356" lon="4.8715">
        <ele>33.69</ele>
        <time>2019-05-29T09:16:46.000Z</time>
      </trkpt>
      <trkpt lat="43.9636" lon="4.87131">
        <ele>32.71</ele>
        <time>2019-05-29T09:16:51.000Z</time>
      </trkpt>
      <trkpt lat="43.96347" lon="4.87104">
        <ele>31.93</ele>
        <time>2019-05-29T09:16:56.000Z</time>
      </trkpt>
      <trkpt lat="43.96336" lon="4.87075">
        <ele>31.69</ele>
        <time>2019-05-29T09:17:01.000Z</time>
      </trkpt>
      <trkpt lat="43.96329" lon="4.87037">
        <ele>29.69</ele>
        <time>2019-05-29T09:17:06.000Z</time>
      </trkpt>
      <trkpt lat="43.96322" lon="4.86997">
        <ele>27.94</ele>
        <time>2019-05-29T09:17:11.000Z</time>
      </trkpt>
      <trkpt lat="43.96315" lon="4.86957">
        <ele>28.69</ele>
        <time>2019-05-29T09:17:16.000Z</time>
      </trkpt>
      <trkpt lat="43.96308" lon="4.86917">
        <ele>27.69</ele>
        <time>2019-05-29T09:17:21.000Z</time>
      </trkpt>
      <trkpt lat="43.96301" lon="4.86877">
        <ele>27.69</ele>
        <time>2019-05-29T09:17:26.000Z</time>
      </trkpt>
      <trkpt lat="43.96295" lon="4.86837">
        <ele>28.71</ele>
        <time>2019-05-29T09:17:31.000Z</time>
      </trkpt>
      <trkpt lat="43.96289" lon="4.86799">
        <ele>26.96</ele>
        <time>2019-05-29T09:17:36.000Z</time>
      </trkpt>
      <trkpt lat="43.96285" lon="4.86764">
        <ele>25.71</ele>
        <time>2019-05-29T09:17:41.000Z</time>
      </trkpt>
      <trkpt lat="43.96283" lon="4.86727">
        <ele>25.69</ele>
        <time>2019-05-29T09:17:46.000Z</time>
      </trkpt>
      <trkpt lat="43.96281" lon="4.86689">
        <ele>27.68</ele>
        <time>2019-05-29T09:17:51.000Z</time>
      </trkpt>
      <trkpt lat="43.9628" lon="4.86653">
        <ele>26.69</ele>
        <time>2019-05-29T09:17:56.000Z</time>
      </trkpt>
      <trkpt lat="43.96278" lon="4.86615">
        <ele>27.45</ele>
        <time>2019-05-29T09:18:01.000Z</time>
      </trkpt>
      <trkpt lat="43.96277" lon="4.86577">
        <ele>26.71</ele>
        <time>2019-05-29T09:18:06.000Z</time>
      </trkpt>
      <trkpt lat="43.96275" lon="4.86539">
        <ele>26.69</ele>
        <time>2019-05-29T09:18:11.000Z</time>
      </trkpt>
      <trkpt lat="43.96273" lon="4.865">
        <ele>26.69</ele>
        <time>2019-05-29T09:18:16.000Z</time>
      </trkpt>
      <trkpt lat="43.96272" lon="4.86461">
        <ele>26.69</ele>
        <time>2019-05-29T09:18:21.000Z</time>
      </trkpt>
      <trkpt lat="43.96268" lon="4.86419">
        <ele>25.7</ele>
        <time>2019-05-29T09:18:26.000Z</time>
      </trkpt>
      <trkpt lat="43.96263" lon="4.86376">
        <ele>26.69</ele>
        <time>2019-05-29T09:18:31.000Z</time>
      </trkpt>
      <trkpt lat="43.96259" lon="4.86337">
        <ele>26.7</ele>
        <time>2019-05-29T09:18:36.000Z</time>
      </trkpt>
      <trkpt lat="43.96254" lon="4.86302">
        <ele>26.94</ele>
        <time>2019-05-29T09:18:41.000Z</time>
      </trkpt>
      <trkpt lat="43.96251" lon="4.86272">
        <ele>26.7</ele>
        <time>2019-05-29T09:18:46.000Z</time>
      </trkpt>
      <trkpt lat="43.96249" lon="4.86258">
        <ele>25.45</ele>
        <time>2019-05-29T09:19:04.000Z</time>
      </trkpt>
      <trkpt lat="43.96246" lon="4.86236">
        <ele>25.71</ele>
        <time>2019-05-29T09:19:09.000Z</time>
      </trkpt>
      <trkpt lat="43.96241" lon="4.86209">
        <ele>26.46</ele>
        <time>2019-05-29T09:19:14.000Z</time>
      </trkpt>
      <trkpt lat="43.96232" lon="4.86178">
        <ele>25.93</ele>
        <time>2019-05-29T09:19:19.000Z</time>
      </trkpt>
      <trkpt lat="43.96224" lon="4.86148">
        <ele>25.68</ele>
        <time>2019-05-29T09:19:24.000Z</time>
      </trkpt>
      <trkpt lat="43.96215" lon="4.86115">
        <ele>25.91</ele>
        <time>2019-05-29T09:19:29.000Z</time>
      </trkpt>
      <trkpt lat="43.96201" lon="4.86082">
        <ele>25.68</ele>
        <time>2019-05-29T09:19:34.000Z</time>
      </trkpt>
      <trkpt lat="43.96191" lon="4.86052">
        <ele>25.7</ele>
        <time>2019-05-29T09:19:39.000Z</time>
      </trkpt>
      <trkpt lat="43.96184" lon="4.86024">
        <ele>25.7</ele>
        <time>2019-05-29T09:19:44.000Z</time>
      </trkpt>
      <trkpt lat="43.96176" lon="4.86003">
        <ele>25.7</ele>
        <time>2019-05-29T09:19:49.000Z</time>
      </trkpt>
      <trkpt lat="43.96184" lon="4.85994">
        <ele>28.68</ele>
        <time>2019-05-29T09:19:54.000Z</time>
      </trkpt>
      <trkpt lat="43.96174" lon="4.85995">
        <ele>30.68</ele>
        <time>2019-05-29T09:20:20.000Z</time>
      </trkpt>
      <trkpt lat="43.96163" lon="4.86001">
        <ele>28.68</ele>
        <time>2019-05-29T09:20:26.000Z</time>
      </trkpt>
      <trkpt lat="43.96144" lon="4.86014">
        <ele>30.7</ele>
        <time>2019-05-29T09:20:31.000Z</time>
      </trkpt>
      <trkpt lat="43.96123" lon="4.86021">
        <ele>29.7</ele>
        <time>2019-05-29T09:20:36.000Z</time>
      </trkpt>
      <trkpt lat="43.96098" lon="4.86027">
        <ele>29.7</ele>
        <time>2019-05-29T09:20:41.000Z</time>
      </trkpt>
      <trkpt lat="43.96076" lon="4.86044">
        <ele>28.45</ele>
        <time>2019-05-29T09:20:46.000Z</time>
      </trkpt>
      <trkpt lat="43.96059" lon="4.8607">
        <ele>28.7</ele>
        <time>2019-05-29T09:20:51.000Z</time>
      </trkpt>
      <trkpt lat="43.96051" lon="4.861">
        <ele>26.7</ele>
        <time>2019-05-29T09:20:56.000Z</time>
      </trkpt>
      <trkpt lat="43.96042" lon="4.86102">
        <ele>25.45</ele>
        <time>2019-05-29T09:21:11.000Z</time>
      </trkpt>
      <trkpt lat="43.96037" lon="4.86114">
        <ele>24.95</ele>
        <time>2019-05-29T09:21:24.000Z</time>
      </trkpt>
      <trkpt lat="43.96018" lon="4.86122">
        <ele>24.95</ele>
        <time>2019-05-29T09:21:29.000Z</time>
      </trkpt>
      <trkpt lat="43.95991" lon="4.8613">
        <ele>24.68</ele>
        <time>2019-05-29T09:21:34.000Z</time>
      </trkpt>
      <trkpt lat="43.95967" lon="4.86141">
        <ele>24.45</ele>
        <time>2019-05-29T09:21:39.000Z</time>
      </trkpt>
      <trkpt lat="43.95943" lon="4.86151">
        <ele>24.7</ele>
        <time>2019-05-29T09:21:44.000Z</time>
      </trkpt>
      <trkpt lat="43.95918" lon="4.86147">
        <ele>24.7</ele>
        <time>2019-05-29T09:21:49.000Z</time>
      </trkpt>
      <trkpt lat="43.95912" lon="4.86112">
        <ele>22.93</ele>
        <time>2019-05-29T09:21:54.000Z</time>
      </trkpt>
      <trkpt lat="43.95905" lon="4.86076">
        <ele>21.7</ele>
        <time>2019-05-29T09:21:59.000Z</time>
      </trkpt>
      <trkpt lat="43.95886" lon="4.86054">
        <ele>22.7</ele>
        <time>2019-05-29T09:22:04.000Z</time>
      </trkpt>
      <trkpt lat="43.95857" lon="4.8606">
        <ele>23.68</ele>
        <time>2019-05-29T09:22:09.000Z</time>
      </trkpt>
      <trkpt lat="43.95827" lon="4.86064">
        <ele>26.43</ele>
        <time>2019-05-29T09:22:14.000Z</time>
      </trkpt>
      <trkpt lat="43.958" lon="4.86047">
        <ele>27.7</ele>
        <time>2019-05-29T09:22:19.000Z</time>
      </trkpt>
      <trkpt lat="43.95775" lon="4.86018">
        <ele>25.7</ele>
        <time>2019-05-29T09:22:24.000Z</time>
      </trkpt>
      <trkpt lat="43.95753" lon="4.85995">
        <ele>25.7</ele>
        <time>2019-05-29T09:22:29.000Z</time>
      </trkpt>
      <trkpt lat="43.95743" lon="4.85962">
        <ele>26.7</ele>
        <time>2019-05-29T09:22:34.000Z</time>
      </trkpt>
      <trkpt lat="43.95742" lon="4.8593">
        <ele>26.95</ele>
        <time>2019-05-29T09:22:39.000Z</time>
      </trkpt>
      <trkpt lat="43.95737" lon="4.85902">
        <ele>25.95</ele>
        <time>2019-05-29T09:22:44.000Z</time>
      </trkpt>
      <trkpt lat="43.95731" lon="4.85883">
        <ele>26.7</ele>
        <time>2019-05-29T09:22:49.000Z</time>
      </trkpt>
      <trkpt lat="43.9573" lon="4.85868">
        <ele>27.25</ele>
        <time>2019-05-29T09:23:52.000Z</time>
      </trkpt>
      <trkpt lat="43.95726" lon="4.85843">
        <ele>27.47</ele>
        <time>2019-05-29T09:23:57.000Z</time>
      </trkpt>
      <trkpt lat="43.95718" lon="4.85813">
        <ele>27.7</ele>
        <time>2019-05-29T09:24:02.000Z</time>
      </trkpt>
      <trkpt lat="43.95718" lon="4.85782">
        <ele>26.7</ele>
        <time>2019-05-29T09:24:07.000Z</time>
      </trkpt>
      <trkpt lat="43.95721" lon="4.85751">
        <ele>26.45</ele>
        <time>2019-05-29T09:24:12.000Z</time>
      </trkpt>
      <trkpt lat="43.95725" lon="4.85723">
        <ele>26.7</ele>
        <time>2019-05-29T09:24:17.000Z</time>
      </trkpt>
      <trkpt lat="43.95728" lon="4.85701">
        <ele>26.95</ele>
        <time>2019-05-29T09:24:22.000Z</time>
      </trkpt>
      <trkpt lat="43.95736" lon="4.85684">
        <ele>28.7</ele>
        <time>2019-05-29T09:24:27.000Z</time>
      </trkpt>
      <trkpt lat="43.95739" lon="4.85659">
        <ele>26.7</ele>
        <time>2019-05-29T09:24:32.000Z</time>
      </trkpt>
      <trkpt lat="43.95742" lon="4.85633">
        <ele>26.95</ele>
        <time>2019-05-29T09:24:37.000Z</time>
      </trkpt>
      <trkpt lat="43.95744" lon="4.85608">
        <ele>27.69</ele>
        <time>2019-05-29T09:24:42.000Z</time>
      </trkpt>
      <trkpt lat="43.95746" lon="4.85583">
        <ele>26.7</ele>
        <time>2019-05-29T09:24:47.000Z</time>
      </trkpt>
      <trkpt lat="43.95751" lon="4.85556">
        <ele>27.7</ele>
        <time>2019-05-29T09:24:52.000Z</time>
      </trkpt>
      <trkpt lat="43.95753" lon="4.8553">
        <ele>28.45</ele>
        <time>2019-05-29T09:24:57.000Z</time>
      </trkpt>
      <trkpt lat="43.9575" lon="4.85513">
        <ele>29.45</ele>
        <time>2019-05-29T09:25:02.000Z</time>
      </trkpt>
      <trkpt lat="43.95747" lon="4.85501">
        <ele>29.69</ele>
        <time>2019-05-29T09:25:11.000Z</time>
      </trkpt>
      <trkpt lat="43.95747" lon="4.85478">
        <ele>29.7</ele>
        <time>2019-05-29T09:25:16.000Z</time>
      </trkpt>
      <trkpt lat="43.95748" lon="4.85451">
        <ele>28.69</ele>
        <time>2019-05-29T09:25:21.000Z</time>
      </trkpt>
      <trkpt lat="43.95747" lon="4.85426">
        <ele>29.7</ele>
        <time>2019-05-29T09:25:26.000Z</time>
      </trkpt>
      <trkpt lat="43.95728" lon="4.8543">
        <ele>27.69</ele>
        <time>2019-05-29T09:25:31.000Z</time>
      </trkpt>
      <trkpt lat="43.95707" lon="4.85458">
        <ele>28.67</ele>
        <time>2019-05-29T09:25:36.000Z</time>
      </trkpt>
      <trkpt lat="43.95685" lon="4.8548">
        <ele>28.69</ele>
        <time>2019-05-29T09:25:41.000Z</time>
      </trkpt>
      <trkpt lat="43.95665" lon="4.85501">
        <ele>27.72</ele>
        <time>2019-05-29T09:25:46.000Z</time>
      </trkpt>
      <trkpt lat="43.95652" lon="4.85523">
        <ele>27.2</ele>
        <time>2019-05-29T09:25:51.000Z</time>
      </trkpt>
      <trkpt lat="43.95636" lon="4.8554">
        <ele>26.47</ele>
        <time>2019-05-29T09:25:56.000Z</time>
      </trkpt>
      <trkpt lat="43.95615" lon="4.85562">
        <ele>24.97</ele>
        <time>2019-05-29T09:26:01.000Z</time>
      </trkpt>
      <trkpt lat="43.9559" lon="4.85588">
        <ele>23.72</ele>
        <time>2019-05-29T09:26:06.000Z</time>
      </trkpt>
      <trkpt lat="43.95557" lon="4.85593">
        <ele>22.7</ele>
        <time>2019-05-29T09:26:11.000Z</time>
      </trkpt>
      <trkpt lat="43.95523" lon="4.85592">
        <ele>22.7</ele>
        <time>2019-05-29T09:26:16.000Z</time>
      </trkpt>
      <trkpt lat="43.9549" lon="4.8559">
        <ele>23.47</ele>
        <time>2019-05-29T09:26:21.000Z</time>
      </trkpt>
      <trkpt lat="43.95458" lon="4.85591">
        <ele>23.7</ele>
        <time>2019-05-29T09:26:26.000Z</time>
      </trkpt>
      <trkpt lat="43.95428" lon="4.85592">
        <ele>22.72</ele>
        <time>2019-05-29T09:26:31.000Z</time>
      </trkpt>
      <trkpt lat="43.95405" lon="4.856">
        <ele>23.7</ele>
        <time>2019-05-29T09:26:36.000Z</time>
      </trkpt>
      <trkpt lat="43.95396" lon="4.85594">
        <ele>25.45</ele>
        <time>2019-05-29T09:26:46.000Z</time>
      </trkpt>
      <trkpt lat="43.95385" lon="4.85592">
        <ele>25.7</ele>
        <time>2019-05-29T09:26:52.000Z</time>
      </trkpt>
      <trkpt lat="43.95361" lon="4.85593">
        <ele>24.71</ele>
        <time>2019-05-29T09:26:57.000Z</time>
      </trkpt>
      <trkpt lat="43.95332" lon="4.85593">
        <ele>24.71</ele>
        <time>2019-05-29T09:27:02.000Z</time>
      </trkpt>
      <trkpt lat="43.95305" lon="4.85589">
        <ele>23.7</ele>
        <time>2019-05-29T09:27:07.000Z</time>
      </trkpt>
      <trkpt lat="43.95273" lon="4.8559">
        <ele>23.69</ele>
        <time>2019-05-29T09:27:12.000Z</time>
      </trkpt>
      <trkpt lat="43.95243" lon="4.85592">
        <ele>23.7</ele>
        <time>2019-05-29T09:27:17.000Z</time>
      </trkpt>
      <trkpt lat="43.95214" lon="4.85592">
        <ele>24.46</ele>
        <time>2019-05-29T09:27:22.000Z</time>
      </trkpt>
      <trkpt lat="43.95185" lon="4.85577">
        <ele>23.96</ele>
        <time>2019-05-29T09:27:27.000Z</time>
      </trkpt>
      <trkpt lat="43.95157" lon="4.85558">
        <ele>23.96</ele>
        <time>2019-05-29T09:27:32.000Z</time>
      </trkpt>
      <trkpt lat="43.95128" lon="4.85548">
        <ele>24.71</ele>
        <time>2019-05-29T09:27:37.000Z</time>
      </trkpt>
      <trkpt lat="43.95101" lon="4.85541">
        <ele>23.71</ele>
        <time>2019-05-29T09:27:42.000Z</time>
      </trkpt>
      <trkpt lat="43.9508" lon="4.85535">
        <ele>24.71</ele>
        <time>2019-05-29T09:27:47.000Z</time>
      </trkpt>
      <trkpt lat="43.95082" lon="4.85522">
        <ele>27.94</ele>
        <time>2019-05-29T09:29:30.000Z</time>
      </trkpt>
      <trkpt lat="43.95072" lon="4.8552">
        <ele>26.71</ele>
        <time>2019-05-29T09:29:36.000Z</time>
      </trkpt>
      <trkpt lat="43.9507" lon="4.85535">
        <ele>25.71</ele>
        <time>2019-05-29T09:29:48.000Z</time>
      </trkpt>
      <trkpt lat="43.95065" lon="4.85561">
        <ele>25.69</ele>
        <time>2019-05-29T09:29:53.000Z</time>
      </trkpt>
      <trkpt lat="43.95053" lon="4.85591">
        <ele>25.69</ele>
        <time>2019-05-29T09:29:58.000Z</time>
      </trkpt>
      <trkpt lat="43.95037" lon="4.85616">
        <ele>27.44</ele>
        <time>2019-05-29T09:30:03.000Z</time>
      </trkpt>
      <trkpt lat="43.95019" lon="4.85638">
        <ele>26.71</ele>
        <time>2019-05-29T09:30:08.000Z</time>
      </trkpt>
      <trkpt lat="43.95" lon="4.8566">
        <ele>29.69</ele>
        <time>2019-05-29T09:30:13.000Z</time>
      </trkpt>
      <trkpt lat="43.94984" lon="4.85678">
        <ele>28.97</ele>
        <time>2019-05-29T09:30:18.000Z</time>
      </trkpt>
      <trkpt lat="43.94975" lon="4.85666">
        <ele>27.71</ele>
        <time>2019-05-29T09:30:23.000Z</time>
      </trkpt>
      <trkpt lat="43.94965" lon="4.85639">
        <ele>26.21</ele>
        <time>2019-05-29T09:30:28.000Z</time>
      </trkpt>
      <trkpt lat="43.94949" lon="4.85607">
        <ele>21.74</ele>
        <time>2019-05-29T09:30:33.000Z</time>
      </trkpt>
      <trkpt lat="43.9494" lon="4.85589">
        <ele>22.71</ele>
        <time>2019-05-29T09:30:38.000Z</time>
      </trkpt>
      <trkpt lat="43.94933" lon="4.85563">
        <ele>22.71</ele>
        <time>2019-05-29T09:30:43.000Z</time>
      </trkpt>
      <trkpt lat="43.94928" lon="4.85535">
        <ele>23.71</ele>
        <time>2019-05-29T09:30:48.000Z</time>
      </trkpt>
      <trkpt lat="43.94921" lon="4.8551">
        <ele>26.71</ele>
        <time>2019-05-29T09:30:53.000Z</time>
      </trkpt>
      <trkpt lat="43.94916" lon="4.85476">
        <ele>23.97</ele>
        <time>2019-05-29T09:30:58.000Z</time>
      </trkpt>
      <trkpt lat="43.94912" lon="4.85442">
        <ele>21.72</ele>
        <time>2019-05-29T09:31:03.000Z</time>
      </trkpt>
      <trkpt lat="43.94903" lon="4.8541">
        <ele>21.71</ele>
        <time>2019-05-29T09:31:08.000Z</time>
      </trkpt>
      <trkpt lat="43.94897" lon="4.85379">
        <ele>22.46</ele>
        <time>2019-05-29T09:31:13.000Z</time>
      </trkpt>
      <trkpt lat="43.9489" lon="4.85345">
        <ele>22.46</ele>
        <time>2019-05-29T09:31:18.000Z</time>
      </trkpt>
      <trkpt lat="43.94884" lon="4.8531">
        <ele>21.72</ele>
        <time>2019-05-29T09:31:23.000Z</time>
      </trkpt>
      <trkpt lat="43.94874" lon="4.8528">
        <ele>22.69</ele>
        <time>2019-05-29T09:31:28.000Z</time>
      </trkpt>
      <trkpt lat="43.94868" lon="4.85251">
        <ele>22.71</ele>
        <time>2019-05-29T09:31:33.000Z</time>
      </trkpt>
      <trkpt lat="43.94862" lon="4.85223">
        <ele>22.71</ele>
        <time>2019-05-29T09:31:38.000Z</time>
      </trkpt>
      <trkpt lat="43.94857" lon="4.85204">
        <ele>22.73</ele>
        <time>2019-05-29T09:31:43.000Z</time>
      </trkpt>
      <trkpt lat="43.9485" lon="4.85189">
        <ele>23.71</ele>
        <time>2019-05-29T09:31:48.000Z</time>
      </trkpt>
      <trkpt lat="43.94846" lon="4.85174">
        <ele>23.73</ele>
        <time>2019-05-29T09:31:54.000Z</time>
      </trkpt>
      <trkpt lat="43.94844" lon="4.85158">
        <ele>24.46</ele>
        <time>2019-05-29T09:31:59.000Z</time>
      </trkpt>
      <trkpt lat="43.94838" lon="4.85145">
        <ele>23.48</ele>
        <time>2019-05-29T09:32:04.000Z</time>
      </trkpt>
      <trkpt lat="43.94826" lon="4.85116">
        <ele>22.94</ele>
        <time>2019-05-29T09:32:09.000Z</time>
      </trkpt>
      <trkpt lat="43.94818" lon="4.85083">
        <ele>22.95</ele>
        <time>2019-05-29T09:32:14.000Z</time>
      </trkpt>
      <trkpt lat="43.94814" lon="4.8505">
        <ele>22.7</ele>
        <time>2019-05-29T09:32:19.000Z</time>
      </trkpt>
      <trkpt lat="43.94809" lon="4.85018">
        <ele>22.94</ele>
        <time>2019-05-29T09:32:24.000Z</time>
      </trkpt>
      <trkpt lat="43.94805" lon="4.84984">
        <ele>23.96</ele>
        <time>2019-05-29T09:32:29.000Z</time>
      </trkpt>
      <trkpt lat="43.94794" lon="4.84953">
        <ele>22.73</ele>
        <time>2019-05-29T09:32:34.000Z</time>
      </trkpt>
      <trkpt lat="43.94777" lon="4.84926">
        <ele>22.95</ele>
        <time>2019-05-29T09:32:39.000Z</time>
      </trkpt>
      <trkpt lat="43.94761" lon="4.849">
        <ele>23.71</ele>
        <time>2019-05-29T09:32:44.000Z</time>
      </trkpt>
      <trkpt lat="43.94744" lon="4.84874">
        <ele>24.46</ele>
        <time>2019-05-29T09:32:49.000Z</time>
      </trkpt>
      <trkpt lat="43.94729" lon="4.84848">
        <ele>24.71</ele>
        <time>2019-05-29T09:32:54.000Z</time>
      </trkpt>
      <trkpt lat="43.94712" lon="4.84823">
        <ele>24.46</ele>
        <time>2019-05-29T09:32:59.000Z</time>
      </trkpt>
      <trkpt lat="43.94699" lon="4.84811">
        <ele>25.7</ele>
        <time>2019-05-29T09:33:04.000Z</time>
      </trkpt>
      <trkpt lat="43.94699" lon="4.84797">
        <ele>24.96</ele>
        <time>2019-05-29T09:33:10.000Z</time>
      </trkpt>
      <trkpt lat="43.9469" lon="4.84776">
        <ele>25.45</ele>
        <time>2019-05-29T09:33:15.000Z</time>
      </trkpt>
      <trkpt lat="43.94674" lon="4.84753">
        <ele>26.71</ele>
        <time>2019-05-29T09:33:20.000Z</time>
      </trkpt>
      <trkpt lat="43.94659" lon="4.84731">
        <ele>24.73</ele>
        <time>2019-05-29T09:33:25.000Z</time>
      </trkpt>
      <trkpt lat="43.94649" lon="4.84729">
        <ele>24.71</ele>
        <time>2019-05-29T09:33:30.000Z</time>
      </trkpt>
      <trkpt lat="43.94637" lon="4.84739">
        <ele>24.71</ele>
        <time>2019-05-29T09:33:35.000Z</time>
      </trkpt>
      <trkpt lat="43.94623" lon="4.8475">
        <ele>25.71</ele>
        <time>2019-05-29T09:33:40.000Z</time>
      </trkpt>
      <trkpt lat="43.94609" lon="4.84731">
        <ele>25.73</ele>
        <time>2019-05-29T09:33:45.000Z</time>
      </trkpt>
      <trkpt lat="43.94595" lon="4.84703">
        <ele>25.71</ele>
        <time>2019-05-29T09:33:50.000Z</time>
      </trkpt>
      <trkpt lat="43.94581" lon="4.84678">
        <ele>25.95</ele>
        <time>2019-05-29T09:33:55.000Z</time>
      </trkpt>
      <trkpt lat="43.94568" lon="4.84655">
        <ele>26.71</ele>
        <time>2019-05-29T09:34:00.000Z</time>
      </trkpt>
      <trkpt lat="43.94561" lon="4.84641">
        <ele>27.71</ele>
        <time>2019-05-29T09:34:05.000Z</time>
      </trkpt>
      <trkpt lat="43.94563" lon="4.84628">
        <ele>28.71</ele>
        <time>2019-05-29T09:34:14.000Z</time>
      </trkpt>
      <trkpt lat="43.9457" lon="4.84609">
        <ele>29.46</ele>
        <time>2019-05-29T09:34:19.000Z</time>
      </trkpt>
      <trkpt lat="43.94577" lon="4.84594">
        <ele>29.71</ele>
        <time>2019-05-29T09:34:24.000Z</time>
      </trkpt>
      <trkpt lat="43.94577" lon="4.8458">
        <ele>27.73</ele>
        <time>2019-05-29T09:34:36.000Z</time>
      </trkpt>
      <trkpt lat="43.9457" lon="4.84566">
        <ele>28.71</ele>
        <time>2019-05-29T09:34:41.000Z</time>
      </trkpt>
      <trkpt lat="43.94573" lon="4.84542">
        <ele>28.46</ele>
        <time>2019-05-29T09:34:46.000Z</time>
      </trkpt>
      <trkpt lat="43.94579" lon="4.8451">
        <ele>27.73</ele>
        <time>2019-05-29T09:34:51.000Z</time>
      </trkpt>
      <trkpt lat="43.94581" lon="4.84477">
        <ele>26.73</ele>
        <time>2019-05-29T09:34:56.000Z</time>
      </trkpt>
      <trkpt lat="43.94581" lon="4.84455">
        <ele>25.96</ele>
        <time>2019-05-29T09:35:01.000Z</time>
      </trkpt>
      <trkpt lat="43.94583" lon="4.84432">
        <ele>22.97</ele>
        <time>2019-05-29T09:35:06.000Z</time>
      </trkpt>
      <trkpt lat="43.94582" lon="4.84409">
        <ele>22.93</ele>
        <time>2019-05-29T09:35:11.000Z</time>
      </trkpt>
      <trkpt lat="43.94585" lon="4.84387">
        <ele>23.93</ele>
        <time>2019-05-29T09:35:16.000Z</time>
      </trkpt>
      <trkpt lat="43.94584" lon="4.84362">
        <ele>22.71</ele>
        <time>2019-05-29T09:35:21.000Z</time>
      </trkpt>
      <trkpt lat="43.94569" lon="4.84341">
        <ele>22.71</ele>
        <time>2019-05-29T09:35:26.000Z</time>
      </trkpt>
      <trkpt lat="43.94559" lon="4.84317">
        <ele>23.71</ele>
        <time>2019-05-29T09:35:31.000Z</time>
      </trkpt>
      <trkpt lat="43.94569" lon="4.84301">
        <ele>24.71</ele>
        <time>2019-05-29T09:35:36.000Z</time>
      </trkpt>
      <trkpt lat="43.94589" lon="4.84293">
        <ele>24.96</ele>
        <time>2019-05-29T09:35:41.000Z</time>
      </trkpt>
      <trkpt lat="43.94596" lon="4.84264">
        <ele>25.48</ele>
        <time>2019-05-29T09:35:46.000Z</time>
      </trkpt>
      <trkpt lat="43.94595" lon="4.84232">
        <ele>25.71</ele>
        <time>2019-05-29T09:35:51.000Z</time>
      </trkpt>
      <trkpt lat="43.94594" lon="4.84203">
        <ele>26.71</ele>
        <time>2019-05-29T09:35:56.000Z</time>
      </trkpt>
      <trkpt lat="43.94584" lon="4.84191">
        <ele>24.96</ele>
        <time>2019-05-29T09:36:01.000Z</time>
      </trkpt>
      <trkpt lat="43.94579" lon="4.84178">
        <ele>23.72</ele>
        <time>2019-05-29T09:36:07.000Z</time>
      </trkpt>
      <trkpt lat="43.94583" lon="4.84157">
        <ele>24.96</ele>
        <time>2019-05-29T09:36:12.000Z</time>
      </trkpt>
      <trkpt lat="43.94598" lon="4.84137">
        <ele>26.48</ele>
        <time>2019-05-29T09:36:17.000Z</time>
      </trkpt>
      <trkpt lat="43.94601" lon="4.84106">
        <ele>26.71</ele>
        <time>2019-05-29T09:36:22.000Z</time>
      </trkpt>
      <trkpt lat="43.94599" lon="4.84077">
        <ele>28.7</ele>
        <time>2019-05-29T09:36:27.000Z</time>
      </trkpt>
      <trkpt lat="43.94603" lon="4.84049">
        <ele>26.73</ele>
        <time>2019-05-29T09:36:32.000Z</time>
      </trkpt>
      <trkpt lat="43.94604" lon="4.84014">
        <ele>25.71</ele>
        <time>2019-05-29T09:36:37.000Z</time>
      </trkpt>
      <trkpt lat="43.946" lon="4.83975">
        <ele>24.72</ele>
        <time>2019-05-29T09:36:42.000Z</time>
      </trkpt>
      <trkpt lat="43.94589" lon="4.83941">
        <ele>23.71</ele>
        <time>2019-05-29T09:36:47.000Z</time>
      </trkpt>
      <trkpt lat="43.94574" lon="4.83905">
        <ele>23.21</ele>
        <time>2019-05-29T09:36:52.000Z</time>
      </trkpt>
      <trkpt lat="43.94555" lon="4.83872">
        <ele>22.48</ele>
        <time>2019-05-29T09:36:57.000Z</time>
      </trkpt>
      <trkpt lat="43.94543" lon="4.83846">
        <ele>21.72</ele>
        <time>2019-05-29T09:37:02.000Z</time>
      </trkpt>
      <trkpt lat="43.9453" lon="4.8385">
        <ele>23.7</ele>
        <time>2019-05-29T09:37:07.000Z</time>
      </trkpt>
      <trkpt lat="43.94525" lon="4.83831">
        <ele>21.48</ele>
        <time>2019-05-29T09:37:12.000Z</time>
      </trkpt>
      <trkpt lat="43.94521" lon="4.83796">
        <ele>21.96</ele>
        <time>2019-05-29T09:37:17.000Z</time>
      </trkpt>
      <trkpt lat="43.94517" lon="4.83762">
        <ele>22.47</ele>
        <time>2019-05-29T09:37:22.000Z</time>
      </trkpt>
      <trkpt lat="43.94503" lon="4.8373">
        <ele>22.95</ele>
        <time>2019-05-29T09:37:27.000Z</time>
      </trkpt>
      <trkpt lat="43.94493" lon="4.83695">
        <ele>21.97</ele>
        <time>2019-05-29T09:37:32.000Z</time>
      </trkpt>
      <trkpt lat="43.94486" lon="4.83656">
        <ele>20.97</ele>
        <time>2019-05-29T09:37:37.000Z</time>
      </trkpt>
      <trkpt lat="43.9448" lon="4.83616">
        <ele>20.95</ele>
        <time>2019-05-29T09:37:42.000Z</time>
      </trkpt>
      <trkpt lat="43.94473" lon="4.83583">
        <ele>20.72</ele>
        <time>2019-05-29T09:37:47.000Z</time>
      </trkpt>
      <trkpt lat="43.9447" lon="4.83548">
        <ele>19.98</ele>
        <time>2019-05-29T09:37:52.000Z</time>
      </trkpt>
      <trkpt lat="43.94463" lon="4.83518">
        <ele>21.48</ele>
        <time>2019-05-29T09:37:57.000Z</time>
      </trkpt>
      <trkpt lat="43.94449" lon="4.83496">
        <ele>21.47</ele>
        <time>2019-05-29T09:38:02.000Z</time>
      </trkpt>
      <trkpt lat="43.94439" lon="4.83482">
        <ele>22.7</ele>
        <time>2019-05-29T09:38:07.000Z</time>
      </trkpt>
      <trkpt lat="43.94427" lon="4.8346">
        <ele>19.73</ele>
        <time>2019-05-29T09:38:12.000Z</time>
      </trkpt>
      <trkpt lat="43.94444" lon="4.83438">
        <ele>20.47</ele>
        <time>2019-05-29T09:38:17.000Z</time>
      </trkpt>
      <trkpt lat="43.94456" lon="4.83423">
        <ele>20.72</ele>
        <time>2019-05-29T09:38:22.000Z</time>
      </trkpt>
      <trkpt lat="43.94458" lon="4.83406">
        <ele>22.47</ele>
        <time>2019-05-29T09:38:27.000Z</time>
      </trkpt>
      <trkpt lat="43.94456" lon="4.8339">
        <ele>24.7</ele>
        <time>2019-05-29T09:38:40.000Z</time>
      </trkpt>
      <trkpt lat="43.94457" lon="4.8336">
        <ele>24.48</ele>
        <time>2019-05-29T09:38:45.000Z</time>
      </trkpt>
      <trkpt lat="43.94451" lon="4.83327">
        <ele>21.97</ele>
        <time>2019-05-29T09:38:50.000Z</time>
      </trkpt>
      <trkpt lat="43.94444" lon="4.83297">
        <ele>21.72</ele>
        <time>2019-05-29T09:38:55.000Z</time>
      </trkpt>
      <trkpt lat="43.94435" lon="4.83274">
        <ele>20.72</ele>
        <time>2019-05-29T09:39:00.000Z</time>
      </trkpt>
      <trkpt lat="43.94438" lon="4.8326">
        <ele>22.72</ele>
        <time>2019-05-29T09:39:05.000Z</time>
      </trkpt>
      <trkpt lat="43.94436" lon="4.83235">
        <ele>25.47</ele>
        <time>2019-05-29T09:39:10.000Z</time>
      </trkpt>
      <trkpt lat="43.94434" lon="4.83207">
        <ele>25.72</ele>
        <time>2019-05-29T09:39:15.000Z</time>
      </trkpt>
      <trkpt lat="43.94436" lon="4.83173">
        <ele>25.7</ele>
        <time>2019-05-29T09:39:20.000Z</time>
      </trkpt>
      <trkpt lat="43.94434" lon="4.8314">
        <ele>25.72</ele>
        <time>2019-05-29T09:39:25.000Z</time>
      </trkpt>
      <trkpt lat="43.94432" lon="4.83109">
        <ele>24.72</ele>
        <time>2019-05-29T09:39:30.000Z</time>
      </trkpt>
      <trkpt lat="43.94427" lon="4.83075">
        <ele>24.7</ele>
        <time>2019-05-29T09:39:35.000Z</time>
      </trkpt>
      <trkpt lat="43.94424" lon="4.8304">
        <ele>28.59</ele>
        <time>2019-05-29T09:39:40.000Z</time>
      </trkpt>
      <trkpt lat="43.94425" lon="4.83">
        <ele>22.97</ele>
        <time>2019-05-29T09:39:45.000Z</time>
      </trkpt>
      <trkpt lat="43.94423" lon="4.82964">
        <ele>23.47</ele>
        <time>2019-05-29T09:39:50.000Z</time>
      </trkpt>
      <trkpt lat="43.94419" lon="4.82929">
        <ele>22.72</ele>
        <time>2019-05-29T09:39:55.000Z</time>
      </trkpt>
      <trkpt lat="43.94413" lon="4.82894">
        <ele>23.73</ele>
        <time>2019-05-29T09:40:00.000Z</time>
      </trkpt>
      <trkpt lat="43.9441" lon="4.8286">
        <ele>23.72</ele>
        <time>2019-05-29T09:40:05.000Z</time>
      </trkpt>
      <trkpt lat="43.94407" lon="4.82839">
        <ele>22.73</ele>
        <time>2019-05-29T09:40:10.000Z</time>
      </trkpt>
      <trkpt lat="43.94406" lon="4.82824">
        <ele>23.72</ele>
        <time>2019-05-29T09:40:20.000Z</time>
      </trkpt>
      <trkpt lat="43.94408" lon="4.82807">
        <ele>25.72</ele>
        <time>2019-05-29T09:40:25.000Z</time>
      </trkpt>
      <trkpt lat="43.94409" lon="4.82786">
        <ele>25.97</ele>
        <time>2019-05-29T09:40:30.000Z</time>
      </trkpt>
      <trkpt lat="43.94411" lon="4.82773">
        <ele>27.72</ele>
        <time>2019-05-29T09:40:40.000Z</time>
      </trkpt>
      <trkpt lat="43.94411" lon="4.82756">
        <ele>26.97</ele>
        <time>2019-05-29T09:40:45.000Z</time>
      </trkpt>
      <trkpt lat="43.94408" lon="4.82743">
        <ele>24.72</ele>
        <time>2019-05-29T09:42:29.000Z</time>
      </trkpt>
      <trkpt lat="43.94407" lon="4.82727">
        <ele>23.72</ele>
        <time>2019-05-29T09:42:34.000Z</time>
      </trkpt>
      <trkpt lat="43.94406" lon="4.82711">
        <ele>22.72</ele>
        <time>2019-05-29T09:42:39.000Z</time>
      </trkpt>
      <trkpt lat="43.94405" lon="4.82691">
        <ele>20.97</ele>
        <time>2019-05-29T09:42:44.000Z</time>
      </trkpt>
      <trkpt lat="43.94403" lon="4.82666">
        <ele>21.72</ele>
        <time>2019-05-29T09:42:49.000Z</time>
      </trkpt>
      <trkpt lat="43.94402" lon="4.82637">
        <ele>21.72</ele>
        <time>2019-05-29T09:42:54.000Z</time>
      </trkpt>
      <trkpt lat="43.94398" lon="4.82603">
        <ele>21.72</ele>
        <time>2019-05-29T09:42:59.000Z</time>
      </trkpt>
      <trkpt lat="43.94396" lon="4.82571">
        <ele>23.7</ele>
        <time>2019-05-29T09:43:04.000Z</time>
      </trkpt>
      <trkpt lat="43.94391" lon="4.82539">
        <ele>22.23</ele>
        <time>2019-05-29T09:43:09.000Z</time>
      </trkpt>
      <trkpt lat="43.94383" lon="4.82505">
        <ele>23.7</ele>
        <time>2019-05-29T09:43:14.000Z</time>
      </trkpt>
      <trkpt lat="43.94382" lon="4.8247">
        <ele>26.7</ele>
        <time>2019-05-29T09:43:19.000Z</time>
      </trkpt>
      <trkpt lat="43.94385" lon="4.82439">
        <ele>26.97</ele>
        <time>2019-05-29T09:43:24.000Z</time>
      </trkpt>
      <trkpt lat="43.94391" lon="4.82412">
        <ele>25.73</ele>
        <time>2019-05-29T09:43:29.000Z</time>
      </trkpt>
      <trkpt lat="43.94399" lon="4.82383">
        <ele>26.47</ele>
        <time>2019-05-29T09:43:34.000Z</time>
      </trkpt>
      <trkpt lat="43.9441" lon="4.82356">
        <ele>25.72</ele>
        <time>2019-05-29T09:43:39.000Z</time>
      </trkpt>
      <trkpt lat="43.9442" lon="4.8233">
        <ele>26.72</ele>
        <time>2019-05-29T09:43:44.000Z</time>
      </trkpt>
      <trkpt lat="43.94427" lon="4.82314">
        <ele>27.72</ele>
        <time>2019-05-29T09:43:49.000Z</time>
      </trkpt>
      <trkpt lat="43.9443" lon="4.82301">
        <ele>24.72</ele>
        <time>2019-05-29T09:43:59.000Z</time>
      </trkpt>
      <trkpt lat="43.94433" lon="4.82274">
        <ele>22.97</ele>
        <time>2019-05-29T09:44:04.000Z</time>
      </trkpt>
      <trkpt lat="43.94443" lon="4.82244">
        <ele>20.74</ele>
        <time>2019-05-29T09:44:09.000Z</time>
      </trkpt>
      <trkpt lat="43.94453" lon="4.82213">
        <ele>20.95</ele>
        <time>2019-05-29T09:44:14.000Z</time>
      </trkpt>
      <trkpt lat="43.9446" lon="4.82186">
        <ele>23.45</ele>
        <time>2019-05-29T09:44:19.000Z</time>
      </trkpt>
      <trkpt lat="43.94469" lon="4.82156">
        <ele>21.7</ele>
        <time>2019-05-29T09:44:24.000Z</time>
      </trkpt>
      <trkpt lat="43.94475" lon="4.82132">
        <ele>25.2</ele>
        <time>2019-05-29T09:44:29.000Z</time>
      </trkpt>
      <trkpt lat="43.94481" lon="4.82109">
        <ele>22.7</ele>
        <time>2019-05-29T09:44:34.000Z</time>
      </trkpt>
      <trkpt lat="43.94493" lon="4.82087">
        <ele>23.72</ele>
        <time>2019-05-29T09:44:39.000Z</time>
      </trkpt>
      <trkpt lat="43.94503" lon="4.82066">
        <ele>24.72</ele>
        <time>2019-05-29T09:44:44.000Z</time>
      </trkpt>
      <trkpt lat="43.9451" lon="4.82053">
        <ele>26.72</ele>
        <time>2019-05-29T09:44:49.000Z</time>
      </trkpt>
      <trkpt lat="43.94524" lon="4.82049">
        <ele>25.72</ele>
        <time>2019-05-29T09:44:54.000Z</time>
      </trkpt>
      <trkpt lat="43.94528" lon="4.82035">
        <ele>20.72</ele>
        <time>2019-05-29T09:45:24.000Z</time>
      </trkpt>
      <trkpt lat="43.94536" lon="4.82011">
        <ele>22.47</ele>
        <time>2019-05-29T09:45:29.000Z</time>
      </trkpt>
      <trkpt lat="43.94548" lon="4.81985">
        <ele>21.47</ele>
        <time>2019-05-29T09:45:34.000Z</time>
      </trkpt>
      <trkpt lat="43.94558" lon="4.81956">
        <ele>21.72</ele>
        <time>2019-05-29T09:45:39.000Z</time>
      </trkpt>
      <trkpt lat="43.9457" lon="4.81929">
        <ele>22.72</ele>
        <time>2019-05-29T09:45:44.000Z</time>
      </trkpt>
      <trkpt lat="43.94579" lon="4.81902">
        <ele>21.95</ele>
        <time>2019-05-29T09:45:49.000Z</time>
      </trkpt>
      <trkpt lat="43.9459" lon="4.81883">
        <ele>22.47</ele>
        <time>2019-05-29T09:45:54.000Z</time>
      </trkpt>
      <trkpt lat="43.946" lon="4.81862">
        <ele>22.48</ele>
        <time>2019-05-29T09:45:59.000Z</time>
      </trkpt>
      <trkpt lat="43.94611" lon="4.81844">
        <ele>24.45</ele>
        <time>2019-05-29T09:46:04.000Z</time>
      </trkpt>
      <trkpt lat="43.9462" lon="4.81832">
        <ele>25.7</ele>
        <time>2019-05-29T09:46:09.000Z</time>
      </trkpt>
      <trkpt lat="43.94631" lon="4.81817">
        <ele>26.73</ele>
        <time>2019-05-29T09:46:14.000Z</time>
      </trkpt>
      <trkpt lat="43.94641" lon="4.81798">
        <ele>27.72</ele>
        <time>2019-05-29T09:46:19.000Z</time>
      </trkpt>
      <trkpt lat="43.94653" lon="4.81781">
        <ele>28.97</ele>
        <time>2019-05-29T09:46:24.000Z</time>
      </trkpt>
      <trkpt lat="43.94663" lon="4.81766">
        <ele>28.98</ele>
        <time>2019-05-29T09:46:29.000Z</time>
      </trkpt>
      <trkpt lat="43.94659" lon="4.8175">
        <ele>28.73</ele>
        <time>2019-05-29T09:46:34.000Z</time>
      </trkpt>
      <trkpt lat="43.94644" lon="4.81738">
        <ele>27.72</ele>
        <time>2019-05-29T09:46:39.000Z</time>
      </trkpt>
      <trkpt lat="43.9464" lon="4.81722">
        <ele>27.73</ele>
        <time>2019-05-29T09:46:44.000Z</time>
      </trkpt>
      <trkpt lat="43.94648" lon="4.81717">
        <ele>30.7</ele>
        <time>2019-05-29T09:46:54.000Z</time>
      </trkpt>
      <trkpt lat="43.94639" lon="4.81707">
        <ele>25.7</ele>
        <time>2019-05-29T09:47:32.000Z</time>
      </trkpt>
      <trkpt lat="43.94629" lon="4.81693">
        <ele>24.71</ele>
        <time>2019-05-29T09:47:37.000Z</time>
      </trkpt>
      <trkpt lat="43.94611" lon="4.81681">
        <ele>24.72</ele>
        <time>2019-05-29T09:47:42.000Z</time>
      </trkpt>
      <trkpt lat="43.94592" lon="4.81668">
        <ele>25.7</ele>
        <time>2019-05-29T09:47:47.000Z</time>
      </trkpt>
      <trkpt lat="43.94573" lon="4.81651">
        <ele>23.96</ele>
        <time>2019-05-29T09:47:52.000Z</time>
      </trkpt>
      <trkpt lat="43.94553" lon="4.81635">
        <ele>21.72</ele>
        <time>2019-05-29T09:47:57.000Z</time>
      </trkpt>
      <trkpt lat="43.94532" lon="4.8162">
        <ele>23.72</ele>
        <time>2019-05-29T09:48:02.000Z</time>
      </trkpt>
      <trkpt lat="43.9451" lon="4.81602">
        <ele>22.69</ele>
        <time>2019-05-29T09:48:07.000Z</time>
      </trkpt>
      <trkpt lat="43.94491" lon="4.81592">
        <ele>22.74</ele>
        <time>2019-05-29T09:48:12.000Z</time>
      </trkpt>
      <trkpt lat="43.94482" lon="4.81578">
        <ele>22.72</ele>
        <time>2019-05-29T09:48:17.000Z</time>
      </trkpt>
      <trkpt lat="43.94468" lon="4.81564">
        <ele>21.71</ele>
        <time>2019-05-29T09:48:22.000Z</time>
      </trkpt>
      <trkpt lat="43.94445" lon="4.81546">
        <ele>24.47</ele>
        <time>2019-05-29T09:48:27.000Z</time>
      </trkpt>
      <trkpt lat="43.94429" lon="4.81524">
        <ele>22.22</ele>
        <time>2019-05-29T09:48:32.000Z</time>
      </trkpt>
      <trkpt lat="43.94409" lon="4.8151">
        <ele>23.69</ele>
        <time>2019-05-29T09:48:37.000Z</time>
      </trkpt>
      <trkpt lat="43.94403" lon="4.815">
        <ele>22.72</ele>
        <time>2019-05-29T09:48:56.000Z</time>
      </trkpt>
      <trkpt lat="43.94403" lon="4.81486">
        <ele>23.75</ele>
        <time>2019-05-29T09:49:23.000Z</time>
      </trkpt>
      <trkpt lat="43.94396" lon="4.81479">
        <ele>25.71</ele>
        <time>2019-05-29T09:49:29.000Z</time>
      </trkpt>
      <trkpt lat="43.94389" lon="4.81466">
        <ele>24.71</ele>
        <time>2019-05-29T09:49:36.000Z</time>
      </trkpt>
      <trkpt lat="43.94382" lon="4.81443">
        <ele>25.47</ele>
        <time>2019-05-29T09:49:41.000Z</time>
      </trkpt>
      <trkpt lat="43.94375" lon="4.81414">
        <ele>21.99</ele>
        <time>2019-05-29T09:49:46.000Z</time>
      </trkpt>
      <trkpt lat="43.9437" lon="4.81385">
        <ele>19.72</ele>
        <time>2019-05-29T09:49:51.000Z</time>
      </trkpt>
      <trkpt lat="43.94365" lon="4.81354">
        <ele>19.72</ele>
        <time>2019-05-29T09:49:56.000Z</time>
      </trkpt>
      <trkpt lat="43.94357" lon="4.81325">
        <ele>19.74</ele>
        <time>2019-05-29T09:50:01.000Z</time>
      </trkpt>
      <trkpt lat="43.9435" lon="4.81295">
        <ele>19.72</ele>
        <time>2019-05-29T09:50:06.000Z</time>
      </trkpt>
      <trkpt lat="43.94345" lon="4.81265">
        <ele>18.97</ele>
        <time>2019-05-29T09:50:11.000Z</time>
      </trkpt>
      <trkpt lat="43.94341" lon="4.81242">
        <ele>18.72</ele>
        <time>2019-05-29T09:50:16.000Z</time>
      </trkpt>
      <trkpt lat="43.94331" lon="4.81227">
        <ele>20.22</ele>
        <time>2019-05-29T09:50:21.000Z</time>
      </trkpt>
      <trkpt lat="43.94329" lon="4.8121">
        <ele>21.47</ele>
        <time>2019-05-29T09:50:26.000Z</time>
      </trkpt>
      <trkpt lat="43.94328" lon="4.81185">
        <ele>23.93</ele>
        <time>2019-05-29T09:50:31.000Z</time>
      </trkpt>
      <trkpt lat="43.94323" lon="4.81158">
        <ele>21.72</ele>
        <time>2019-05-29T09:50:36.000Z</time>
      </trkpt>
      <trkpt lat="43.94319" lon="4.81129">
        <ele>21.47</ele>
        <time>2019-05-29T09:50:41.000Z</time>
      </trkpt>
      <trkpt lat="43.94312" lon="4.81101">
        <ele>20.72</ele>
        <time>2019-05-29T09:50:46.000Z</time>
      </trkpt>
      <trkpt lat="43.94304" lon="4.81072">
        <ele>20.71</ele>
        <time>2019-05-29T09:50:51.000Z</time>
      </trkpt>
      <trkpt lat="43.943" lon="4.81045">
        <ele>18.74</ele>
        <time>2019-05-29T09:50:56.000Z</time>
      </trkpt>
      <trkpt lat="43.94293" lon="4.81014">
        <ele>18.96</ele>
        <time>2019-05-29T09:51:01.000Z</time>
      </trkpt>
      <trkpt lat="43.94286" lon="4.80983">
        <ele>18.72</ele>
        <time>2019-05-29T09:51:06.000Z</time>
      </trkpt>
      <trkpt lat="43.94278" lon="4.80954">
        <ele>18.72</ele>
        <time>2019-05-29T09:51:11.000Z</time>
      </trkpt>
      <trkpt lat="43.9427" lon="4.80924">
        <ele>19.47</ele>
        <time>2019-05-29T09:51:16.000Z</time>
      </trkpt>
      <trkpt lat="43.94265" lon="4.80898">
        <ele>19.72</ele>
        <time>2019-05-29T09:51:21.000Z</time>
      </trkpt>
      <trkpt lat="43.94261" lon="4.80875">
        <ele>20.72</ele>
        <time>2019-05-29T09:51:26.000Z</time>
      </trkpt>
      <trkpt lat="43.94263" lon="4.80862">
        <ele>21.21</ele>
        <time>2019-05-29T09:51:32.000Z</time>
      </trkpt>
      <trkpt lat="43.94276" lon="4.8086">
        <ele>22.71</ele>
        <time>2019-05-29T09:51:37.000Z</time>
      </trkpt>
      <trkpt lat="43.94285" lon="4.80853">
        <ele>24.47</ele>
        <time>2019-05-29T09:51:42.000Z</time>
      </trkpt>
      <trkpt lat="43.94302" lon="4.80851">
        <ele>25.71</ele>
        <time>2019-05-29T09:51:47.000Z</time>
      </trkpt>
      <trkpt lat="43.94321" lon="4.80843">
        <ele>24.71</ele>
        <time>2019-05-29T09:51:52.000Z</time>
      </trkpt>
      <trkpt lat="43.94343" lon="4.80837">
        <ele>26.49</ele>
        <time>2019-05-29T09:51:57.000Z</time>
      </trkpt>
      <trkpt lat="43.94363" lon="4.80827">
        <ele>26.22</ele>
        <time>2019-05-29T09:52:02.000Z</time>
      </trkpt>
      <trkpt lat="43.94384" lon="4.80816">
        <ele>26.96</ele>
        <time>2019-05-29T09:52:07.000Z</time>
      </trkpt>
      <trkpt lat="43.94403" lon="4.80806">
        <ele>25.47</ele>
        <time>2019-05-29T09:52:12.000Z</time>
      </trkpt>
      <trkpt lat="43.94427" lon="4.80796">
        <ele>27.47</ele>
        <time>2019-05-29T09:52:17.000Z</time>
      </trkpt>
      <trkpt lat="43.94438" lon="4.80794">
        <ele>30.47</ele>
        <time>2019-05-29T09:52:22.000Z</time>
      </trkpt>
      <trkpt lat="43.94448" lon="4.80784">
        <ele>27.46</ele>
        <time>2019-05-29T09:52:27.000Z</time>
      </trkpt>
      <trkpt lat="43.94462" lon="4.80772">
        <ele>26.72</ele>
        <time>2019-05-29T09:52:32.000Z</time>
      </trkpt>
      <trkpt lat="43.94475" lon="4.80759">
        <ele>26.44</ele>
        <time>2019-05-29T09:52:37.000Z</time>
      </trkpt>
      <trkpt lat="43.94488" lon="4.80753">
        <ele>30.46</ele>
        <time>2019-05-29T09:52:42.000Z</time>
      </trkpt>
      <trkpt lat="43.94502" lon="4.8075">
        <ele>31.28</ele>
        <time>2019-05-29T09:52:47.000Z</time>
      </trkpt>
      <trkpt lat="43.94512" lon="4.80753">
        <ele>35.99</ele>
        <time>2019-05-29T09:53:05.000Z</time>
      </trkpt>
      <trkpt lat="43.94521" lon="4.80748">
        <ele>34.72</ele>
        <time>2019-05-29T09:53:10.000Z</time>
      </trkpt>
      <trkpt lat="43.94533" lon="4.80746">
        <ele>32.49</ele>
        <time>2019-05-29T09:53:15.000Z</time>
      </trkpt>
      <trkpt lat="43.94544" lon="4.80748">
        <ele>32.49</ele>
        <time>2019-05-29T09:53:20.000Z</time>
      </trkpt>
      <trkpt lat="43.94554" lon="4.80754">
        <ele>29.72</ele>
        <time>2019-05-29T09:53:26.000Z</time>
      </trkpt>
      <trkpt lat="43.94563" lon="4.80757">
        <ele>33.47</ele>
        <time>2019-05-29T09:53:31.000Z</time>
      </trkpt>
      <trkpt lat="43.94575" lon="4.80763">
        <ele>26.74</ele>
        <time>2019-05-29T09:53:36.000Z</time>
      </trkpt>
      <trkpt lat="43.94588" lon="4.80759">
        <ele>33.7</ele>
        <time>2019-05-29T09:53:41.000Z</time>
      </trkpt>
      <trkpt lat="43.94598" lon="4.80757">
        <ele>29.46</ele>
        <time>2019-05-29T09:53:46.000Z</time>
      </trkpt>
      <trkpt lat="43.94609" lon="4.80756">
        <ele>34.44</ele>
        <time>2019-05-29T09:53:51.000Z</time>
      </trkpt>
      <trkpt lat="43.94619" lon="4.80753">
        <ele>30.97</ele>
        <time>2019-05-29T09:53:56.000Z</time>
      </trkpt>
      <trkpt lat="43.94628" lon="4.80748">
        <ele>32.72</ele>
        <time>2019-05-29T09:54:02.000Z</time>
      </trkpt>
      <trkpt lat="43.94638" lon="4.80749">
        <ele>26.82</ele>
        <time>2019-05-29T09:54:07.000Z</time>
      </trkpt>
      <trkpt lat="43.94652" lon="4.80741">
        <ele>29.47</ele>
        <time>2019-05-29T09:54:12.000Z</time>
      </trkpt>
      <trkpt lat="43.94662" lon="4.80738">
        <ele>27.1</ele>
        <time>2019-05-29T09:54:17.000Z</time>
      </trkpt>
      <trkpt lat="43.94669" lon="4.80747">
        <ele>32.74</ele>
        <time>2019-05-29T09:54:38.000Z</time>
      </trkpt>
      <trkpt lat="43.94679" lon="4.80751">
        <ele>27.55</ele>
        <time>2019-05-29T09:54:43.000Z</time>
      </trkpt>
      <trkpt lat="43.94691" lon="4.80759">
        <ele>31.46</ele>
        <time>2019-05-29T09:54:48.000Z</time>
      </trkpt>
      <trkpt lat="43.94701" lon="4.80761">
        <ele>29.19</ele>
        <time>2019-05-29T09:54:55.000Z</time>
      </trkpt>
      <trkpt lat="43.94711" lon="4.8076">
        <ele>33.71</ele>
        <time>2019-05-29T09:55:01.000Z</time>
      </trkpt>
      <trkpt lat="43.94722" lon="4.80755">
        <ele>28.49</ele>
        <time>2019-05-29T09:55:06.000Z</time>
      </trkpt>
      <trkpt lat="43.94732" lon="4.80757">
        <ele>27.45</ele>
        <time>2019-05-29T09:55:14.000Z</time>
      </trkpt>
      <trkpt lat="43.94741" lon="4.80756">
        <ele>34.45</ele>
        <time>2019-05-29T09:55:19.000Z</time>
      </trkpt>
      <trkpt lat="43.94752" lon="4.80756">
        <ele>32.19</ele>
        <time>2019-05-29T09:55:25.000Z</time>
      </trkpt>
      <trkpt lat="43.94763" lon="4.80754">
        <ele>38.98</ele>
        <time>2019-05-29T09:55:39.000Z</time>
      </trkpt>
      <trkpt lat="43.94776" lon="4.8075">
        <ele>45.42</ele>
        <time>2019-05-29T09:55:44.000Z</time>
      </trkpt>
      <trkpt lat="43.94786" lon="4.80747">
        <ele>40.18</ele>
        <time>2019-05-29T09:55:50.000Z</time>
      </trkpt>
      <trkpt lat="43.94795" lon="4.80746">
        <ele>46.73</ele>
        <time>2019-05-29T09:56:01.000Z</time>
      </trkpt>
      <trkpt lat="43.94797" lon="4.80758">
        <ele>31.97</ele>
        <time>2019-05-29T09:56:08.000Z</time>
      </trkpt>
      <trkpt lat="43.94806" lon="4.80754">
        <ele>32.46</ele>
        <time>2019-05-29T09:57:01.000Z</time>
      </trkpt>
      <trkpt lat="43.94813" lon="4.80763">
        <ele>31.44</ele>
        <time>2019-05-29T09:57:11.000Z</time>
      </trkpt>
      <trkpt lat="43.94822" lon="4.80767">
        <ele>28.52</ele>
        <time>2019-05-29T09:57:20.000Z</time>
      </trkpt>
      <trkpt lat="43.94822" lon="4.8078">
        <ele>36.2</ele>
        <time>2019-05-29T09:57:27.000Z</time>
      </trkpt>
      <trkpt lat="43.94826" lon="4.80793">
        <ele>32.75</ele>
        <time>2019-05-29T09:57:34.000Z</time>
      </trkpt>
      <trkpt lat="43.94825" lon="4.80806">
        <ele>22.7</ele>
        <time>2019-05-29T09:58:40.000Z</time>
      </trkpt>
      <trkpt lat="43.94825" lon="4.8082">
        <ele>23.7</ele>
        <time>2019-05-29T09:58:46.000Z</time>
      </trkpt>
      <trkpt lat="43.94824" lon="4.80834">
        <ele>25.46</ele>
        <time>2019-05-29T09:58:51.000Z</time>
      </trkpt>
      <trkpt lat="43.94822" lon="4.80849">
        <ele>26.47</ele>
        <time>2019-05-29T09:58:56.000Z</time>
      </trkpt>
      <trkpt lat="43.94823" lon="4.80863">
        <ele>22.52</ele>
        <time>2019-05-29T09:59:02.000Z</time>
      </trkpt>
      <trkpt lat="43.94823" lon="4.80876">
        <ele>22.73</ele>
        <time>2019-05-29T09:59:11.000Z</time>
      </trkpt>
      <trkpt lat="43.9482" lon="4.8089">
        <ele>23.72</ele>
        <time>2019-05-29T09:59:18.000Z</time>
      </trkpt>
      <trkpt lat="43.94818" lon="4.80903">
        <ele>25.72</ele>
        <time>2019-05-29T09:59:23.000Z</time>
      </trkpt>
      <trkpt lat="43.94816" lon="4.80917">
        <ele>25.7</ele>
        <time>2019-05-29T09:59:28.000Z</time>
      </trkpt>
      <trkpt lat="43.94814" lon="4.80932">
        <ele>24.97</ele>
        <time>2019-05-29T09:59:33.000Z</time>
      </trkpt>
      <trkpt lat="43.94812" lon="4.80945">
        <ele>24.45</ele>
        <time>2019-05-29T09:59:38.000Z</time>
      </trkpt>
      <trkpt lat="43.94808" lon="4.80956">
        <ele>24.72</ele>
        <time>2019-05-29T09:59:44.000Z</time>
      </trkpt>
      <trkpt lat="43.94806" lon="4.80972">
        <ele>25.7</ele>
        <time>2019-05-29T09:59:49.000Z</time>
      </trkpt>
      <trkpt lat="43.94803" lon="4.80986">
        <ele>25.72</ele>
        <time>2019-05-29T09:59:54.000Z</time>
      </trkpt>
      <trkpt lat="43.94799" lon="4.80999">
        <ele>23.49</ele>
        <time>2019-05-29T10:00:06.000Z</time>
      </trkpt>
      <trkpt lat="43.94797" lon="4.81013">
        <ele>30.2</ele>
        <time>2019-05-29T10:00:13.000Z</time>
      </trkpt>
      <trkpt lat="43.94796" lon="4.81025">
        <ele>32.2</ele>
        <time>2019-05-29T10:00:19.000Z</time>
      </trkpt>
      <trkpt lat="43.94794" lon="4.81039">
        <ele>35.72</ele>
        <time>2019-05-29T10:00:28.000Z</time>
      </trkpt>
      <trkpt lat="43.94787" lon="4.8105">
        <ele>35.72</ele>
        <time>2019-05-29T10:00:34.000Z</time>
      </trkpt>
      <trkpt lat="43.94795" lon="4.81044">
        <ele>31.7</ele>
        <time>2019-05-29T10:00:55.000Z</time>
      </trkpt>
      <trkpt lat="43.94805" lon="4.81041">
        <ele>40.2</ele>
        <time>2019-05-29T10:01:02.000Z</time>
      </trkpt>
      <trkpt lat="43.94811" lon="4.81031">
        <ele>35.2</ele>
        <time>2019-05-29T10:01:07.000Z</time>
      </trkpt>
      <trkpt lat="43.94821" lon="4.81026">
        <ele>44.69</ele>
        <time>2019-05-29T10:01:12.000Z</time>
      </trkpt>
      <trkpt lat="43.94828" lon="4.81015">
        <ele>35.74</ele>
        <time>2019-05-29T10:01:17.000Z</time>
      </trkpt>
      <trkpt lat="43.94834" lon="4.81001">
        <ele>38.69</ele>
        <time>2019-05-29T10:01:22.000Z</time>
      </trkpt>
      <trkpt lat="43.94837" lon="4.80989">
        <ele>34.22</ele>
        <time>2019-05-29T10:01:27.000Z</time>
      </trkpt>
      <trkpt lat="43.94847" lon="4.80979">
        <ele>32.95</ele>
        <time>2019-05-29T10:03:48.000Z</time>
      </trkpt>
      <trkpt lat="43.94833" lon="4.80988">
        <ele>28.7</ele>
        <time>2019-05-29T10:05:14.000Z</time>
      </trkpt>
      <trkpt lat="43.94833" lon="4.81001">
        <ele>27.47</ele>
        <time>2019-05-29T10:07:08.000Z</time>
      </trkpt>
      <trkpt lat="43.94832" lon="4.81014">
        <ele>19.75</ele>
        <time>2019-05-29T10:07:23.000Z</time>
      </trkpt>
      <trkpt lat="43.94827" lon="4.81026">
        <ele>23.47</ele>
        <time>2019-05-29T10:07:33.000Z</time>
      </trkpt>
      <trkpt lat="43.94818" lon="4.81028">
        <ele>22.72</ele>
        <time>2019-05-29T10:07:40.000Z</time>
      </trkpt>
      <trkpt lat="43.94808" lon="4.8103">
        <ele>21.47</ele>
        <time>2019-05-29T10:07:49.000Z</time>
      </trkpt>
      <trkpt lat="43.94799" lon="4.81027">
        <ele>20.72</ele>
        <time>2019-05-29T10:07:57.000Z</time>
      </trkpt>
      <trkpt lat="43.94789" lon="4.8103">
        <ele>19.25</ele>
        <time>2019-05-29T10:08:08.000Z</time>
      </trkpt>
      <trkpt lat="43.94789" lon="4.81032">
        <ele>21.95</ele>
        <time>2019-05-29T10:10:46.000Z</time>
      </trkpt>
      <trkpt lat="43.94834" lon="4.80974">
        <ele>14.98</ele>
        <time>2019-05-29T10:54:12.000Z</time>
      </trkpt>
      <trkpt lat="43.94836" lon="4.80961">
        <ele>15.74</ele>
        <time>2019-05-29T10:54:18.000Z</time>
      </trkpt>
      <trkpt lat="43.94844" lon="4.80953">
        <ele>17.47</ele>
        <time>2019-05-29T10:54:27.000Z</time>
      </trkpt>
      <trkpt lat="43.94842" lon="4.80939">
        <ele>18.72</ele>
        <time>2019-05-29T10:54:33.000Z</time>
      </trkpt>
      <trkpt lat="43.94845" lon="4.80919">
        <ele>16.24</ele>
        <time>2019-05-29T10:54:38.000Z</time>
      </trkpt>
      <trkpt lat="43.94852" lon="4.80904">
        <ele>14.22</ele>
        <time>2019-05-29T10:54:43.000Z</time>
      </trkpt>
      <trkpt lat="43.94858" lon="4.80891">
        <ele>15.47</ele>
        <time>2019-05-29T10:54:48.000Z</time>
      </trkpt>
      <trkpt lat="43.94866" lon="4.80879">
        <ele>13.74</ele>
        <time>2019-05-29T10:54:53.000Z</time>
      </trkpt>
      <trkpt lat="43.94873" lon="4.80871">
        <ele>9.99</ele>
        <time>2019-05-29T10:54:58.000Z</time>
      </trkpt>
      <trkpt lat="43.9488" lon="4.80862">
        <ele>13.77</ele>
        <time>2019-05-29T10:55:13.000Z</time>
      </trkpt>
      <trkpt lat="43.94887" lon="4.80854">
        <ele>15.94</ele>
        <time>2019-05-29T10:55:18.000Z</time>
      </trkpt>
      <trkpt lat="43.94892" lon="4.80843">
        <ele>19.72</ele>
        <time>2019-05-29T10:55:30.000Z</time>
      </trkpt>
      <trkpt lat="43.94883" lon="4.80836">
        <ele>23.45</ele>
        <time>2019-05-29T10:55:39.000Z</time>
      </trkpt>
      <trkpt lat="43.94876" lon="4.80826">
        <ele>23.45</ele>
        <time>2019-05-29T10:55:46.000Z</time>
      </trkpt>
      <trkpt lat="43.94875" lon="4.80811">
        <ele>20.74</ele>
        <time>2019-05-29T10:55:52.000Z</time>
      </trkpt>
      <trkpt lat="43.94876" lon="4.80798">
        <ele>21.72</ele>
        <time>2019-05-29T10:55:57.000Z</time>
      </trkpt>
      <trkpt lat="43.9487" lon="4.80785">
        <ele>25.72</ele>
        <time>2019-05-29T10:56:06.000Z</time>
      </trkpt>
      <trkpt lat="43.94869" lon="4.80771">
        <ele>26.72</ele>
        <time>2019-05-29T10:56:13.000Z</time>
      </trkpt>
      <trkpt lat="43.9487" lon="4.80759">
        <ele>25.72</ele>
        <time>2019-05-29T10:56:18.000Z</time>
      </trkpt>
      <trkpt lat="43.94866" lon="4.80747">
        <ele>25.73</ele>
        <time>2019-05-29T10:56:41.000Z</time>
      </trkpt>
      <trkpt lat="43.94868" lon="4.80734">
        <ele>26.72</ele>
        <time>2019-05-29T10:56:46.000Z</time>
      </trkpt>
      <trkpt lat="43.94869" lon="4.8072">
        <ele>28.47</ele>
        <time>2019-05-29T10:56:52.000Z</time>
      </trkpt>
      <trkpt lat="43.94868" lon="4.80707">
        <ele>27.72</ele>
        <time>2019-05-29T10:56:58.000Z</time>
      </trkpt>
      <trkpt lat="43.94877" lon="4.80702">
        <ele>28.71</ele>
        <time>2019-05-29T10:57:05.000Z</time>
      </trkpt>
      <trkpt lat="43.94886" lon="4.80701">
        <ele>29.7</ele>
        <time>2019-05-29T10:57:10.000Z</time>
      </trkpt>
      <trkpt lat="43.94896" lon="4.80696">
        <ele>27.24</ele>
        <time>2019-05-29T10:57:17.000Z</time>
      </trkpt>
      <trkpt lat="43.94893" lon="4.80678">
        <ele>25.72</ele>
        <time>2019-05-29T10:57:22.000Z</time>
      </trkpt>
      <trkpt lat="43.94888" lon="4.80661">
        <ele>27.72</ele>
        <time>2019-05-29T10:57:27.000Z</time>
      </trkpt>
      <trkpt lat="43.94888" lon="4.80642">
        <ele>27.73</ele>
        <time>2019-05-29T10:57:32.000Z</time>
      </trkpt>
      <trkpt lat="43.94886" lon="4.80625">
        <ele>26.72</ele>
        <time>2019-05-29T10:57:37.000Z</time>
      </trkpt>
      <trkpt lat="43.94886" lon="4.8061">
        <ele>24.97</ele>
        <time>2019-05-29T10:57:43.000Z</time>
      </trkpt>
      <trkpt lat="43.94882" lon="4.80599">
        <ele>27.47</ele>
        <time>2019-05-29T10:57:56.000Z</time>
      </trkpt>
      <trkpt lat="43.94891" lon="4.80596">
        <ele>31.47</ele>
        <time>2019-05-29T10:58:11.000Z</time>
      </trkpt>
      <trkpt lat="43.94902" lon="4.80589">
        <ele>26.99</ele>
        <time>2019-05-29T10:58:16.000Z</time>
      </trkpt>
      <trkpt lat="43.94915" lon="4.80588">
        <ele>26.47</ele>
        <time>2019-05-29T10:58:21.000Z</time>
      </trkpt>
      <trkpt lat="43.94927" lon="4.8059">
        <ele>27.45</ele>
        <time>2019-05-29T10:58:26.000Z</time>
      </trkpt>
      <trkpt lat="43.94937" lon="4.80592">
        <ele>27.7</ele>
        <time>2019-05-29T10:58:32.000Z</time>
      </trkpt>
      <trkpt lat="43.94947" lon="4.80598">
        <ele>30.47</ele>
        <time>2019-05-29T10:58:37.000Z</time>
      </trkpt>
      <trkpt lat="43.94958" lon="4.80599">
        <ele>31.72</ele>
        <time>2019-05-29T10:58:44.000Z</time>
      </trkpt>
      <trkpt lat="43.94967" lon="4.80595">
        <ele>33.72</ele>
        <time>2019-05-29T10:58:54.000Z</time>
      </trkpt>
      <trkpt lat="43.94977" lon="4.80598">
        <ele>31.73</ele>
        <time>2019-05-29T10:59:00.000Z</time>
      </trkpt>
      <trkpt lat="43.94985" lon="4.80607">
        <ele>33.7</ele>
        <time>2019-05-29T10:59:07.000Z</time>
      </trkpt>
      <trkpt lat="43.94989" lon="4.80622">
        <ele>31.72</ele>
        <time>2019-05-29T10:59:12.000Z</time>
      </trkpt>
      <trkpt lat="43.94992" lon="4.80638">
        <ele>30.95</ele>
        <time>2019-05-29T10:59:17.000Z</time>
      </trkpt>
      <trkpt lat="43.95001" lon="4.80647">
        <ele>30.72</ele>
        <time>2019-05-29T10:59:22.000Z</time>
      </trkpt>
      <trkpt lat="43.95009" lon="4.80657">
        <ele>30.97</ele>
        <time>2019-05-29T10:59:27.000Z</time>
      </trkpt>
      <trkpt lat="43.95018" lon="4.80668">
        <ele>30.47</ele>
        <time>2019-05-29T10:59:32.000Z</time>
      </trkpt>
      <trkpt lat="43.95032" lon="4.80669">
        <ele>27.23</ele>
        <time>2019-05-29T10:59:37.000Z</time>
      </trkpt>
      <trkpt lat="43.95041" lon="4.80664">
        <ele>26.47</ele>
        <time>2019-05-29T10:59:42.000Z</time>
      </trkpt>
      <trkpt lat="43.95041" lon="4.8065">
        <ele>28.47</ele>
        <time>2019-05-29T10:59:47.000Z</time>
      </trkpt>
      <trkpt lat="43.95041" lon="4.80634">
        <ele>26.72</ele>
        <time>2019-05-29T10:59:53.000Z</time>
      </trkpt>
      <trkpt lat="43.95051" lon="4.80631">
        <ele>30.45</ele>
        <time>2019-05-29T11:00:09.000Z</time>
      </trkpt>
      <trkpt lat="43.95062" lon="4.80634">
        <ele>31.7</ele>
        <time>2019-05-29T11:00:17.000Z</time>
      </trkpt>
      <trkpt lat="43.95069" lon="4.80643">
        <ele>32.72</ele>
        <time>2019-05-29T11:00:22.000Z</time>
      </trkpt>
      <trkpt lat="43.9507" lon="4.80659">
        <ele>31.22</ele>
        <time>2019-05-29T11:00:27.000Z</time>
      </trkpt>
      <trkpt lat="43.95073" lon="4.80672">
        <ele>28.49</ele>
        <time>2019-05-29T11:00:32.000Z</time>
      </trkpt>
      <trkpt lat="43.95082" lon="4.80672">
        <ele>26.47</ele>
        <time>2019-05-29T11:01:26.000Z</time>
      </trkpt>
      <trkpt lat="43.9509" lon="4.80662">
        <ele>25.95</ele>
        <time>2019-05-29T11:01:32.000Z</time>
      </trkpt>
      <trkpt lat="43.95088" lon="4.80644">
        <ele>29.47</ele>
        <time>2019-05-29T11:01:37.000Z</time>
      </trkpt>
      <trkpt lat="43.95094" lon="4.80632">
        <ele>28.72</ele>
        <time>2019-05-29T11:01:42.000Z</time>
      </trkpt>
      <trkpt lat="43.95104" lon="4.80638">
        <ele>29.7</ele>
        <time>2019-05-29T11:01:47.000Z</time>
      </trkpt>
      <trkpt lat="43.95106" lon="4.8065">
        <ele>28</ele>
        <time>2019-05-29T11:01:52.000Z</time>
      </trkpt>
      <trkpt lat="43.95104" lon="4.80662">
        <ele>31.47</ele>
        <time>2019-05-29T11:01:58.000Z</time>
      </trkpt>
      <trkpt lat="43.95106" lon="4.80676">
        <ele>30.72</ele>
        <time>2019-05-29T11:02:34.000Z</time>
      </trkpt>
      <trkpt lat="43.95115" lon="4.8068">
        <ele>31.47</ele>
        <time>2019-05-29T11:02:54.000Z</time>
      </trkpt>
      <trkpt lat="43.95106" lon="4.80677">
        <ele>34.73</ele>
        <time>2019-05-29T11:03:24.000Z</time>
      </trkpt>
      <trkpt lat="43.951" lon="4.80689">
        <ele>36.47</ele>
        <time>2019-05-29T11:03:30.000Z</time>
      </trkpt>
      <trkpt lat="43.95112" lon="4.80696">
        <ele>36.47</ele>
        <time>2019-05-29T11:03:35.000Z</time>
      </trkpt>
      <trkpt lat="43.95123" lon="4.80696">
        <ele>36.7</ele>
        <time>2019-05-29T11:03:40.000Z</time>
      </trkpt>
      <trkpt lat="43.95135" lon="4.80693">
        <ele>36.22</ele>
        <time>2019-05-29T11:03:45.000Z</time>
      </trkpt>
      <trkpt lat="43.95148" lon="4.8069">
        <ele>38.72</ele>
        <time>2019-05-29T11:03:50.000Z</time>
      </trkpt>
      <trkpt lat="43.95162" lon="4.80688">
        <ele>36.45</ele>
        <time>2019-05-29T11:03:55.000Z</time>
      </trkpt>
      <trkpt lat="43.95172" lon="4.8069">
        <ele>37.72</ele>
        <time>2019-05-29T11:04:00.000Z</time>
      </trkpt>
      <trkpt lat="43.95183" lon="4.8069">
        <ele>39.69</ele>
        <time>2019-05-29T11:04:05.000Z</time>
      </trkpt>
      <trkpt lat="43.95196" lon="4.80686">
        <ele>39.7</ele>
        <time>2019-05-29T11:04:10.000Z</time>
      </trkpt>
      <trkpt lat="43.95207" lon="4.80684">
        <ele>40.97</ele>
        <time>2019-05-29T11:04:15.000Z</time>
      </trkpt>
      <trkpt lat="43.95218" lon="4.80682">
        <ele>42.48</ele>
        <time>2019-05-29T11:04:20.000Z</time>
      </trkpt>
      <trkpt lat="43.95228" lon="4.80686">
        <ele>42.72</ele>
        <time>2019-05-29T11:04:25.000Z</time>
      </trkpt>
      <trkpt lat="43.95224" lon="4.80702">
        <ele>41.72</ele>
        <time>2019-05-29T11:04:30.000Z</time>
      </trkpt>
      <trkpt lat="43.95211" lon="4.80706">
        <ele>42.47</ele>
        <time>2019-05-29T11:04:35.000Z</time>
      </trkpt>
      <trkpt lat="43.95199" lon="4.8071">
        <ele>42.72</ele>
        <time>2019-05-29T11:04:40.000Z</time>
      </trkpt>
      <trkpt lat="43.95187" lon="4.80715">
        <ele>43.47</ele>
        <time>2019-05-29T11:04:45.000Z</time>
      </trkpt>
      <trkpt lat="43.95176" lon="4.80717">
        <ele>43.72</ele>
        <time>2019-05-29T11:04:50.000Z</time>
      </trkpt>
      <trkpt lat="43.95165" lon="4.80719">
        <ele>44.72</ele>
        <time>2019-05-29T11:04:55.000Z</time>
      </trkpt>
      <trkpt lat="43.95164" lon="4.80704">
        <ele>45.73</ele>
        <time>2019-05-29T11:05:02.000Z</time>
      </trkpt>
      <trkpt lat="43.95157" lon="4.80697">
        <ele>43.44</ele>
        <time>2019-05-29T11:05:42.000Z</time>
      </trkpt>
      <trkpt lat="43.95148" lon="4.80704">
        <ele>42.97</ele>
        <time>2019-05-29T11:09:05.000Z</time>
      </trkpt>
      <trkpt lat="43.95152" lon="4.80715">
        <ele>43.72</ele>
        <time>2019-05-29T11:09:15.000Z</time>
      </trkpt>
      <trkpt lat="43.95162" lon="4.80716">
        <ele>44.72</ele>
        <time>2019-05-29T11:09:24.000Z</time>
      </trkpt>
      <trkpt lat="43.95172" lon="4.80716">
        <ele>44.72</ele>
        <time>2019-05-29T11:09:31.000Z</time>
      </trkpt>
      <trkpt lat="43.9518" lon="4.80725">
        <ele>45.7</ele>
        <time>2019-05-29T11:09:36.000Z</time>
      </trkpt>
      <trkpt lat="43.9518" lon="4.80743">
        <ele>46.47</ele>
        <time>2019-05-29T11:09:41.000Z</time>
      </trkpt>
      <trkpt lat="43.95181" lon="4.80761">
        <ele>46.72</ele>
        <time>2019-05-29T11:09:46.000Z</time>
      </trkpt>
      <trkpt lat="43.95182" lon="4.80781">
        <ele>46.72</ele>
        <time>2019-05-29T11:09:51.000Z</time>
      </trkpt>
      <trkpt lat="43.95182" lon="4.808">
        <ele>47.72</ele>
        <time>2019-05-29T11:09:56.000Z</time>
      </trkpt>
      <trkpt lat="43.95183" lon="4.80817">
        <ele>48.72</ele>
        <time>2019-05-29T11:10:01.000Z</time>
      </trkpt>
      <trkpt lat="43.95186" lon="4.8083">
        <ele>48.72</ele>
        <time>2019-05-29T11:10:06.000Z</time>
      </trkpt>
      <trkpt lat="43.95194" lon="4.8084">
        <ele>48.72</ele>
        <time>2019-05-29T11:10:12.000Z</time>
      </trkpt>
      <trkpt lat="43.95204" lon="4.80839">
        <ele>45.7</ele>
        <time>2019-05-29T11:10:32.000Z</time>
      </trkpt>
      <trkpt lat="43.95216" lon="4.8084">
        <ele>45.72</ele>
        <time>2019-05-29T11:10:37.000Z</time>
      </trkpt>
      <trkpt lat="43.95226" lon="4.8084">
        <ele>45.7</ele>
        <time>2019-05-29T11:10:42.000Z</time>
      </trkpt>
      <trkpt lat="43.95236" lon="4.80829">
        <ele>46.72</ele>
        <time>2019-05-29T11:10:47.000Z</time>
      </trkpt>
      <trkpt lat="43.95243" lon="4.80817">
        <ele>49.47</ele>
        <time>2019-05-29T11:10:52.000Z</time>
      </trkpt>
      <trkpt lat="43.95252" lon="4.80808">
        <ele>52.47</ele>
        <time>2019-05-29T11:10:58.000Z</time>
      </trkpt>
      <trkpt lat="43.9526" lon="4.80804">
        <ele>51.5</ele>
        <time>2019-05-29T11:11:03.000Z</time>
      </trkpt>
      <trkpt lat="43.95272" lon="4.80799">
        <ele>54.7</ele>
        <time>2019-05-29T11:11:08.000Z</time>
      </trkpt>
      <trkpt lat="43.95283" lon="4.80793">
        <ele>54.47</ele>
        <time>2019-05-29T11:11:13.000Z</time>
      </trkpt>
      <trkpt lat="43.95294" lon="4.80786">
        <ele>54.7</ele>
        <time>2019-05-29T11:11:18.000Z</time>
      </trkpt>
      <trkpt lat="43.95307" lon="4.80792">
        <ele>53.73</ele>
        <time>2019-05-29T11:11:23.000Z</time>
      </trkpt>
      <trkpt lat="43.95315" lon="4.80798">
        <ele>53.72</ele>
        <time>2019-05-29T11:11:28.000Z</time>
      </trkpt>
      <trkpt lat="43.95325" lon="4.80797">
        <ele>53.47</ele>
        <time>2019-05-29T11:11:33.000Z</time>
      </trkpt>
      <trkpt lat="43.95333" lon="4.80802">
        <ele>52.97</ele>
        <time>2019-05-29T11:12:17.000Z</time>
      </trkpt>
      <trkpt lat="43.9533" lon="4.80791">
        <ele>50.97</ele>
        <time>2019-05-29T11:12:38.000Z</time>
      </trkpt>
      <trkpt lat="43.95339" lon="4.80783">
        <ele>51.72</ele>
        <time>2019-05-29T11:12:44.000Z</time>
      </trkpt>
      <trkpt lat="43.95344" lon="4.80771">
        <ele>52.72</ele>
        <time>2019-05-29T11:12:50.000Z</time>
      </trkpt>
      <trkpt lat="43.95352" lon="4.80761">
        <ele>53.72</ele>
        <time>2019-05-29T11:12:55.000Z</time>
      </trkpt>
      <trkpt lat="43.95343" lon="4.80761">
        <ele>52.48</ele>
        <time>2019-05-29T11:13:18.000Z</time>
      </trkpt>
      <trkpt lat="43.95335" lon="4.80751">
        <ele>53.72</ele>
        <time>2019-05-29T11:13:23.000Z</time>
      </trkpt>
      <trkpt lat="43.9533" lon="4.80739">
        <ele>53.47</ele>
        <time>2019-05-29T11:13:29.000Z</time>
      </trkpt>
      <trkpt lat="43.9532" lon="4.80742">
        <ele>52.41</ele>
        <time>2019-05-29T11:14:16.000Z</time>
      </trkpt>
      <trkpt lat="43.9531" lon="4.80746">
        <ele>55.7</ele>
        <time>2019-05-29T11:14:21.000Z</time>
      </trkpt>
      <trkpt lat="43.95296" lon="4.8075">
        <ele>54.75</ele>
        <time>2019-05-29T11:14:26.000Z</time>
      </trkpt>
      <trkpt lat="43.95282" lon="4.80748">
        <ele>55.72</ele>
        <time>2019-05-29T11:14:31.000Z</time>
      </trkpt>
      <trkpt lat="43.95273" lon="4.80755">
        <ele>54.7</ele>
        <time>2019-05-29T11:14:36.000Z</time>
      </trkpt>
      <trkpt lat="43.95279" lon="4.80743">
        <ele>53.22</ele>
        <time>2019-05-29T11:15:14.000Z</time>
      </trkpt>
      <trkpt lat="43.95284" lon="4.8073">
        <ele>55.7</ele>
        <time>2019-05-29T11:15:19.000Z</time>
      </trkpt>
      <trkpt lat="43.95275" lon="4.80724">
        <ele>52.72</ele>
        <time>2019-05-29T11:15:44.000Z</time>
      </trkpt>
      <trkpt lat="43.9525" lon="4.80725">
        <ele>52.72</ele>
        <time>2019-05-29T11:15:49.000Z</time>
      </trkpt>
      <trkpt lat="43.9522" lon="4.80729">
        <ele>50.73</ele>
        <time>2019-05-29T11:15:54.000Z</time>
      </trkpt>
      <trkpt lat="43.95196" lon="4.80727">
        <ele>47.97</ele>
        <time>2019-05-29T11:15:59.000Z</time>
      </trkpt>
      <trkpt lat="43.95184" lon="4.80741">
        <ele>45.73</ele>
        <time>2019-05-29T11:16:04.000Z</time>
      </trkpt>
      <trkpt lat="43.95183" lon="4.80758">
        <ele>46.47</ele>
        <time>2019-05-29T11:16:09.000Z</time>
      </trkpt>
      <trkpt lat="43.95179" lon="4.80746">
        <ele>46.72</ele>
        <time>2019-05-29T11:16:17.000Z</time>
      </trkpt>
      <trkpt lat="43.95181" lon="4.80722">
        <ele>46.97</ele>
        <time>2019-05-29T11:16:22.000Z</time>
      </trkpt>
      <trkpt lat="43.95193" lon="4.80707">
        <ele>44.72</ele>
        <time>2019-05-29T11:16:27.000Z</time>
      </trkpt>
      <trkpt lat="43.95206" lon="4.80704">
        <ele>44.7</ele>
        <time>2019-05-29T11:16:32.000Z</time>
      </trkpt>
      <trkpt lat="43.95211" lon="4.80714">
        <ele>38.72</ele>
        <time>2019-05-29T11:16:59.000Z</time>
      </trkpt>
      <trkpt lat="43.95212" lon="4.8071">
        <ele>39.72</ele>
        <time>2019-05-29T11:20:14.000Z</time>
      </trkpt>
      <trkpt lat="43.95201" lon="4.80675">
        <ele>43.72</ele>
        <time>2019-05-29T12:00:27.000Z</time>
      </trkpt>
      <trkpt lat="43.95191" lon="4.80682">
        <ele>41.21</ele>
        <time>2019-05-29T12:00:35.000Z</time>
      </trkpt>
      <trkpt lat="43.95169" lon="4.80687">
        <ele>41.72</ele>
        <time>2019-05-29T12:00:40.000Z</time>
      </trkpt>
      <trkpt lat="43.95148" lon="4.80689">
        <ele>41.97</ele>
        <time>2019-05-29T12:00:45.000Z</time>
      </trkpt>
      <trkpt lat="43.95128" lon="4.80687">
        <ele>41.72</ele>
        <time>2019-05-29T12:00:50.000Z</time>
      </trkpt>
      <trkpt lat="43.95111" lon="4.80693">
        <ele>39.72</ele>
        <time>2019-05-29T12:00:55.000Z</time>
      </trkpt>
      <trkpt lat="43.95099" lon="4.80697">
        <ele>37.73</ele>
        <time>2019-05-29T12:01:00.000Z</time>
      </trkpt>
      <trkpt lat="43.951" lon="4.80684">
        <ele>39.7</ele>
        <time>2019-05-29T12:01:45.000Z</time>
      </trkpt>
      <trkpt lat="43.95099" lon="4.80665">
        <ele>37.72</ele>
        <time>2019-05-29T12:01:50.000Z</time>
      </trkpt>
      <trkpt lat="43.951" lon="4.80648">
        <ele>37.97</ele>
        <time>2019-05-29T12:01:55.000Z</time>
      </trkpt>
      <trkpt lat="43.95095" lon="4.80635">
        <ele>38.7</ele>
        <time>2019-05-29T12:02:02.000Z</time>
      </trkpt>
      <trkpt lat="43.95086" lon="4.80631">
        <ele>38.72</ele>
        <time>2019-05-29T12:02:07.000Z</time>
      </trkpt>
      <trkpt lat="43.9508" lon="4.80621">
        <ele>38.7</ele>
        <time>2019-05-29T12:02:23.000Z</time>
      </trkpt>
      <trkpt lat="43.95075" lon="4.80608">
        <ele>41.47</ele>
        <time>2019-05-29T12:02:28.000Z</time>
      </trkpt>
      <trkpt lat="43.95082" lon="4.8059">
        <ele>34.2</ele>
        <time>2019-05-29T12:02:33.000Z</time>
      </trkpt>
      <trkpt lat="43.95081" lon="4.80574">
        <ele>31.42</ele>
        <time>2019-05-29T12:02:41.000Z</time>
      </trkpt>
      <trkpt lat="43.95079" lon="4.80562">
        <ele>37.45</ele>
        <time>2019-05-29T12:02:56.000Z</time>
      </trkpt>
      <trkpt lat="43.95088" lon="4.80557">
        <ele>41.7</ele>
        <time>2019-05-29T12:03:15.000Z</time>
      </trkpt>
      <trkpt lat="43.95102" lon="4.80558">
        <ele>42.7</ele>
        <time>2019-05-29T12:03:20.000Z</time>
      </trkpt>
      <trkpt lat="43.95116" lon="4.80563">
        <ele>42.72</ele>
        <time>2019-05-29T12:03:25.000Z</time>
      </trkpt>
      <trkpt lat="43.95132" lon="4.80569">
        <ele>35.22</ele>
        <time>2019-05-29T12:03:30.000Z</time>
      </trkpt>
      <trkpt lat="43.95149" lon="4.80569">
        <ele>37.47</ele>
        <time>2019-05-29T12:03:35.000Z</time>
      </trkpt>
      <trkpt lat="43.95161" lon="4.80569">
        <ele>39.47</ele>
        <time>2019-05-29T12:03:40.000Z</time>
      </trkpt>
      <trkpt lat="43.95172" lon="4.8057">
        <ele>39.72</ele>
        <time>2019-05-29T12:03:45.000Z</time>
      </trkpt>
      <trkpt lat="43.95181" lon="4.80568">
        <ele>41.46</ele>
        <time>2019-05-29T12:03:53.000Z</time>
      </trkpt>
      <trkpt lat="43.95188" lon="4.80559">
        <ele>39.23</ele>
        <time>2019-05-29T12:04:01.000Z</time>
      </trkpt>
      <trkpt lat="43.95194" lon="4.80543">
        <ele>27.22</ele>
        <time>2019-05-29T12:04:06.000Z</time>
      </trkpt>
      <trkpt lat="43.95196" lon="4.80529">
        <ele>30.45</ele>
        <time>2019-05-29T12:04:12.000Z</time>
      </trkpt>
      <trkpt lat="43.95188" lon="4.80511">
        <ele>23.58</ele>
        <time>2019-05-29T12:04:17.000Z</time>
      </trkpt>
      <trkpt lat="43.95169" lon="4.80496">
        <ele>30.24</ele>
        <time>2019-05-29T12:04:22.000Z</time>
      </trkpt>
      <trkpt lat="43.95152" lon="4.80479">
        <ele>22.48</ele>
        <time>2019-05-29T12:04:27.000Z</time>
      </trkpt>
      <trkpt lat="43.95137" lon="4.80458">
        <ele>21.47</ele>
        <time>2019-05-29T12:04:32.000Z</time>
      </trkpt>
      <trkpt lat="43.95121" lon="4.80438">
        <ele>19.72</ele>
        <time>2019-05-29T12:04:37.000Z</time>
      </trkpt>
      <trkpt lat="43.95106" lon="4.80424">
        <ele>19.72</ele>
        <time>2019-05-29T12:04:42.000Z</time>
      </trkpt>
      <trkpt lat="43.95092" lon="4.8041">
        <ele>19.7</ele>
        <time>2019-05-29T12:04:47.000Z</time>
      </trkpt>
      <trkpt lat="43.95076" lon="4.80395">
        <ele>19.72</ele>
        <time>2019-05-29T12:04:52.000Z</time>
      </trkpt>
      <trkpt lat="43.95063" lon="4.8038">
        <ele>20.47</ele>
        <time>2019-05-29T12:04:57.000Z</time>
      </trkpt>
      <trkpt lat="43.95064" lon="4.80367">
        <ele>20.73</ele>
        <time>2019-05-29T12:05:04.000Z</time>
      </trkpt>
      <trkpt lat="43.95074" lon="4.80349">
        <ele>21.47</ele>
        <time>2019-05-29T12:05:09.000Z</time>
      </trkpt>
      <trkpt lat="43.95085" lon="4.80327">
        <ele>24.47</ele>
        <time>2019-05-29T12:05:14.000Z</time>
      </trkpt>
      <trkpt lat="43.95095" lon="4.80306">
        <ele>22.72</ele>
        <time>2019-05-29T12:05:19.000Z</time>
      </trkpt>
      <trkpt lat="43.95094" lon="4.80287">
        <ele>25.7</ele>
        <time>2019-05-29T12:05:24.000Z</time>
      </trkpt>
      <trkpt lat="43.95076" lon="4.80277">
        <ele>26.44</ele>
        <time>2019-05-29T12:05:29.000Z</time>
      </trkpt>
      <trkpt lat="43.95059" lon="4.80267">
        <ele>26.7</ele>
        <time>2019-05-29T12:05:34.000Z</time>
      </trkpt>
      <trkpt lat="43.95044" lon="4.80258">
        <ele>27.49</ele>
        <time>2019-05-29T12:05:39.000Z</time>
      </trkpt>
      <trkpt lat="43.95035" lon="4.80254">
        <ele>31.72</ele>
        <time>2019-05-29T12:05:58.000Z</time>
      </trkpt>
      <trkpt lat="43.95032" lon="4.80241">
        <ele>26.77</ele>
        <time>2019-05-29T12:06:04.000Z</time>
      </trkpt>
      <trkpt lat="43.95042" lon="4.80239">
        <ele>27.49</ele>
        <time>2019-05-29T12:06:11.000Z</time>
      </trkpt>
      <trkpt lat="43.95052" lon="4.8024">
        <ele>27.45</ele>
        <time>2019-05-29T12:06:16.000Z</time>
      </trkpt>
      <trkpt lat="43.95063" lon="4.80247">
        <ele>26.7</ele>
        <time>2019-05-29T12:06:21.000Z</time>
      </trkpt>
      <trkpt lat="43.95072" lon="4.80245">
        <ele>28.97</ele>
        <time>2019-05-29T12:06:26.000Z</time>
      </trkpt>
      <trkpt lat="43.95084" lon="4.80232">
        <ele>28.7</ele>
        <time>2019-05-29T12:06:31.000Z</time>
      </trkpt>
      <trkpt lat="43.95091" lon="4.80215">
        <ele>27.72</ele>
        <time>2019-05-29T12:06:36.000Z</time>
      </trkpt>
      <trkpt lat="43.95094" lon="4.80193">
        <ele>25.97</ele>
        <time>2019-05-29T12:06:41.000Z</time>
      </trkpt>
      <trkpt lat="43.951" lon="4.80173">
        <ele>25.72</ele>
        <time>2019-05-29T12:06:46.000Z</time>
      </trkpt>
      <trkpt lat="43.95106" lon="4.80153">
        <ele>25.72</ele>
        <time>2019-05-29T12:06:51.000Z</time>
      </trkpt>
      <trkpt lat="43.95112" lon="4.80135">
        <ele>27.7</ele>
        <time>2019-05-29T12:06:56.000Z</time>
      </trkpt>
      <trkpt lat="43.95118" lon="4.80117">
        <ele>27.47</ele>
        <time>2019-05-29T12:07:01.000Z</time>
      </trkpt>
      <trkpt lat="43.95121" lon="4.80103">
        <ele>27.47</ele>
        <time>2019-05-29T12:07:40.000Z</time>
      </trkpt>
      <trkpt lat="43.95126" lon="4.80087">
        <ele>27.72</ele>
        <time>2019-05-29T12:07:45.000Z</time>
      </trkpt>
      <trkpt lat="43.9513" lon="4.80071">
        <ele>28.72</ele>
        <time>2019-05-29T12:07:50.000Z</time>
      </trkpt>
      <trkpt lat="43.95135" lon="4.80057">
        <ele>27.7</ele>
        <time>2019-05-29T12:07:55.000Z</time>
      </trkpt>
      <trkpt lat="43.9514" lon="4.80042">
        <ele>28.72</ele>
        <time>2019-05-29T12:08:00.000Z</time>
      </trkpt>
      <trkpt lat="43.95144" lon="4.80028">
        <ele>29.47</ele>
        <time>2019-05-29T12:08:05.000Z</time>
      </trkpt>
      <trkpt lat="43.95148" lon="4.80014">
        <ele>30.47</ele>
        <time>2019-05-29T12:08:26.000Z</time>
      </trkpt>
      <trkpt lat="43.95153" lon="4.79995">
        <ele>30.72</ele>
        <time>2019-05-29T12:08:31.000Z</time>
      </trkpt>
      <trkpt lat="43.95159" lon="4.79974">
        <ele>28.44</ele>
        <time>2019-05-29T12:08:36.000Z</time>
      </trkpt>
      <trkpt lat="43.95165" lon="4.79952">
        <ele>28.95</ele>
        <time>2019-05-29T12:08:41.000Z</time>
      </trkpt>
      <trkpt lat="43.95172" lon="4.79928">
        <ele>27.46</ele>
        <time>2019-05-29T12:08:46.000Z</time>
      </trkpt>
      <trkpt lat="43.95181" lon="4.79902">
        <ele>28.72</ele>
        <time>2019-05-29T12:08:51.000Z</time>
      </trkpt>
      <trkpt lat="43.95189" lon="4.79873">
        <ele>28.72</ele>
        <time>2019-05-29T12:08:56.000Z</time>
      </trkpt>
      <trkpt lat="43.95197" lon="4.79845">
        <ele>28.46</ele>
        <time>2019-05-29T12:09:01.000Z</time>
      </trkpt>
      <trkpt lat="43.95205" lon="4.79818">
        <ele>28.97</ele>
        <time>2019-05-29T12:09:06.000Z</time>
      </trkpt>
      <trkpt lat="43.95213" lon="4.7979">
        <ele>26.69</ele>
        <time>2019-05-29T12:09:11.000Z</time>
      </trkpt>
      <trkpt lat="43.95223" lon="4.79758">
        <ele>26.72</ele>
        <time>2019-05-29T12:09:16.000Z</time>
      </trkpt>
      <trkpt lat="43.95234" lon="4.79725">
        <ele>23.97</ele>
        <time>2019-05-29T12:09:21.000Z</time>
      </trkpt>
      <trkpt lat="43.95245" lon="4.79697">
        <ele>23.73</ele>
        <time>2019-05-29T12:09:26.000Z</time>
      </trkpt>
      <trkpt lat="43.95257" lon="4.79673">
        <ele>22.71</ele>
        <time>2019-05-29T12:09:31.000Z</time>
      </trkpt>
      <trkpt lat="43.95265" lon="4.79647">
        <ele>24.47</ele>
        <time>2019-05-29T12:09:36.000Z</time>
      </trkpt>
      <trkpt lat="43.95269" lon="4.79619">
        <ele>25.7</ele>
        <time>2019-05-29T12:09:41.000Z</time>
      </trkpt>
      <trkpt lat="43.95275" lon="4.79589">
        <ele>25.73</ele>
        <time>2019-05-29T12:09:46.000Z</time>
      </trkpt>
      <trkpt lat="43.95285" lon="4.79558">
        <ele>26.7</ele>
        <time>2019-05-29T12:09:51.000Z</time>
      </trkpt>
      <trkpt lat="43.95296" lon="4.79527">
        <ele>28.72</ele>
        <time>2019-05-29T12:09:56.000Z</time>
      </trkpt>
      <trkpt lat="43.95306" lon="4.79503">
        <ele>29.47</ele>
        <time>2019-05-29T12:10:01.000Z</time>
      </trkpt>
      <trkpt lat="43.95314" lon="4.7948">
        <ele>28.72</ele>
        <time>2019-05-29T12:10:06.000Z</time>
      </trkpt>
      <trkpt lat="43.95323" lon="4.79459">
        <ele>27.49</ele>
        <time>2019-05-29T12:10:11.000Z</time>
      </trkpt>
      <trkpt lat="43.95331" lon="4.79436">
        <ele>28.7</ele>
        <time>2019-05-29T12:10:16.000Z</time>
      </trkpt>
      <trkpt lat="43.95339" lon="4.79413">
        <ele>28.72</ele>
        <time>2019-05-29T12:10:21.000Z</time>
      </trkpt>
      <trkpt lat="43.95347" lon="4.79391">
        <ele>28.72</ele>
        <time>2019-05-29T12:10:26.000Z</time>
      </trkpt>
      <trkpt lat="43.95355" lon="4.79369">
        <ele>28.72</ele>
        <time>2019-05-29T12:10:31.000Z</time>
      </trkpt>
      <trkpt lat="43.95364" lon="4.79346">
        <ele>27.97</ele>
        <time>2019-05-29T12:10:36.000Z</time>
      </trkpt>
      <trkpt lat="43.95372" lon="4.79327">
        <ele>28.7</ele>
        <time>2019-05-29T12:10:41.000Z</time>
      </trkpt>
      <trkpt lat="43.9538" lon="4.79308">
        <ele>28.72</ele>
        <time>2019-05-29T12:10:46.000Z</time>
      </trkpt>
      <trkpt lat="43.95388" lon="4.79287">
        <ele>28.72</ele>
        <time>2019-05-29T12:10:51.000Z</time>
      </trkpt>
      <trkpt lat="43.95398" lon="4.79264">
        <ele>28.73</ele>
        <time>2019-05-29T12:10:56.000Z</time>
      </trkpt>
      <trkpt lat="43.95409" lon="4.79234">
        <ele>27.73</ele>
        <time>2019-05-29T12:11:01.000Z</time>
      </trkpt>
      <trkpt lat="43.95421" lon="4.79205">
        <ele>26.47</ele>
        <time>2019-05-29T12:11:06.000Z</time>
      </trkpt>
      <trkpt lat="43.95431" lon="4.792">
        <ele>25.72</ele>
        <time>2019-05-29T12:11:11.000Z</time>
      </trkpt>
      <trkpt lat="43.95447" lon="4.79187">
        <ele>23.95</ele>
        <time>2019-05-29T12:11:16.000Z</time>
      </trkpt>
      <trkpt lat="43.95453" lon="4.79169">
        <ele>23.72</ele>
        <time>2019-05-29T12:11:21.000Z</time>
      </trkpt>
      <trkpt lat="43.9545" lon="4.79147">
        <ele>24.45</ele>
        <time>2019-05-29T12:11:26.000Z</time>
      </trkpt>
      <trkpt lat="43.95456" lon="4.79127">
        <ele>26.47</ele>
        <time>2019-05-29T12:11:31.000Z</time>
      </trkpt>
      <trkpt lat="43.95463" lon="4.79119">
        <ele>26.24</ele>
        <time>2019-05-29T12:12:30.000Z</time>
      </trkpt>
      <trkpt lat="43.95472" lon="4.79098">
        <ele>28.22</ele>
        <time>2019-05-29T12:12:35.000Z</time>
      </trkpt>
      <trkpt lat="43.95481" lon="4.79074">
        <ele>30.45</ele>
        <time>2019-05-29T12:12:40.000Z</time>
      </trkpt>
      <trkpt lat="43.95486" lon="4.79051">
        <ele>33.47</ele>
        <time>2019-05-29T12:12:45.000Z</time>
      </trkpt>
      <trkpt lat="43.95488" lon="4.79028">
        <ele>34.72</ele>
        <time>2019-05-29T12:12:50.000Z</time>
      </trkpt>
      <trkpt lat="43.95485" lon="4.79004">
        <ele>34.2</ele>
        <time>2019-05-29T12:12:55.000Z</time>
      </trkpt>
      <trkpt lat="43.95479" lon="4.78982">
        <ele>32.98</ele>
        <time>2019-05-29T12:13:00.000Z</time>
      </trkpt>
      <trkpt lat="43.95478" lon="4.7896">
        <ele>31.97</ele>
        <time>2019-05-29T12:13:05.000Z</time>
      </trkpt>
      <trkpt lat="43.95475" lon="4.78943">
        <ele>32.7</ele>
        <time>2019-05-29T12:13:10.000Z</time>
      </trkpt>
      <trkpt lat="43.95471" lon="4.78928">
        <ele>32.72</ele>
        <time>2019-05-29T12:13:15.000Z</time>
      </trkpt>
      <trkpt lat="43.95463" lon="4.78914">
        <ele>35.66</ele>
        <time>2019-05-29T12:13:20.000Z</time>
      </trkpt>
      <trkpt lat="43.95458" lon="4.78897">
        <ele>35.72</ele>
        <time>2019-05-29T12:13:25.000Z</time>
      </trkpt>
      <trkpt lat="43.95454" lon="4.78876">
        <ele>36.95</ele>
        <time>2019-05-29T12:13:30.000Z</time>
      </trkpt>
      <trkpt lat="43.9545" lon="4.78856">
        <ele>38.71</ele>
        <time>2019-05-29T12:13:35.000Z</time>
      </trkpt>
      <trkpt lat="43.95446" lon="4.78835">
        <ele>37.47</ele>
        <time>2019-05-29T12:13:40.000Z</time>
      </trkpt>
      <trkpt lat="43.95441" lon="4.78814">
        <ele>38.48</ele>
        <time>2019-05-29T12:13:45.000Z</time>
      </trkpt>
      <trkpt lat="43.95435" lon="4.78791">
        <ele>39.47</ele>
        <time>2019-05-29T12:13:50.000Z</time>
      </trkpt>
      <trkpt lat="43.9543" lon="4.78767">
        <ele>40.47</ele>
        <time>2019-05-29T12:13:55.000Z</time>
      </trkpt>
      <trkpt lat="43.95426" lon="4.78743">
        <ele>43.72</ele>
        <time>2019-05-29T12:14:00.000Z</time>
      </trkpt>
      <trkpt lat="43.95421" lon="4.78721">
        <ele>44.73</ele>
        <time>2019-05-29T12:14:05.000Z</time>
      </trkpt>
      <trkpt lat="43.95416" lon="4.78698">
        <ele>46.72</ele>
        <time>2019-05-29T12:14:10.000Z</time>
      </trkpt>
      <trkpt lat="43.95409" lon="4.78677">
        <ele>45.72</ele>
        <time>2019-05-29T12:14:15.000Z</time>
      </trkpt>
      <trkpt lat="43.95401" lon="4.78658">
        <ele>46.71</ele>
        <time>2019-05-29T12:14:20.000Z</time>
      </trkpt>
      <trkpt lat="43.95393" lon="4.78639">
        <ele>45.49</ele>
        <time>2019-05-29T12:14:25.000Z</time>
      </trkpt>
      <trkpt lat="43.95386" lon="4.78621">
        <ele>46.72</ele>
        <time>2019-05-29T12:14:30.000Z</time>
      </trkpt>
      <trkpt lat="43.95378" lon="4.78603">
        <ele>46.71</ele>
        <time>2019-05-29T12:14:35.000Z</time>
      </trkpt>
      <trkpt lat="43.9537" lon="4.78585">
        <ele>44.75</ele>
        <time>2019-05-29T12:14:40.000Z</time>
      </trkpt>
      <trkpt lat="43.95363" lon="4.78566">
        <ele>45.72</ele>
        <time>2019-05-29T12:14:45.000Z</time>
      </trkpt>
      <trkpt lat="43.95357" lon="4.78549">
        <ele>46.71</ele>
        <time>2019-05-29T12:14:50.000Z</time>
      </trkpt>
      <trkpt lat="43.9535" lon="4.78532">
        <ele>47.47</ele>
        <time>2019-05-29T12:14:55.000Z</time>
      </trkpt>
      <trkpt lat="43.95346" lon="4.78511">
        <ele>48.47</ele>
        <time>2019-05-29T12:15:00.000Z</time>
      </trkpt>
      <trkpt lat="43.95345" lon="4.7849">
        <ele>51.72</ele>
        <time>2019-05-29T12:15:05.000Z</time>
      </trkpt>
      <trkpt lat="43.95344" lon="4.78466">
        <ele>51.72</ele>
        <time>2019-05-29T12:15:10.000Z</time>
      </trkpt>
      <trkpt lat="43.95344" lon="4.78441">
        <ele>51.72</ele>
        <time>2019-05-29T12:15:15.000Z</time>
      </trkpt>
      <trkpt lat="43.95346" lon="4.78418">
        <ele>53.71</ele>
        <time>2019-05-29T12:15:20.000Z</time>
      </trkpt>
      <trkpt lat="43.9535" lon="4.78394">
        <ele>54.72</ele>
        <time>2019-05-29T12:15:25.000Z</time>
      </trkpt>
      <trkpt lat="43.95358" lon="4.78372">
        <ele>54.72</ele>
        <time>2019-05-29T12:15:30.000Z</time>
      </trkpt>
      <trkpt lat="43.95367" lon="4.78352">
        <ele>54.72</ele>
        <time>2019-05-29T12:15:35.000Z</time>
      </trkpt>
      <trkpt lat="43.95379" lon="4.78333">
        <ele>56.72</ele>
        <time>2019-05-29T12:15:40.000Z</time>
      </trkpt>
      <trkpt lat="43.95388" lon="4.78322">
        <ele>57.72</ele>
        <time>2019-05-29T12:15:45.000Z</time>
      </trkpt>
      <trkpt lat="43.95397" lon="4.78317">
        <ele>59.72</ele>
        <time>2019-05-29T12:17:24.000Z</time>
      </trkpt>
      <trkpt lat="43.95408" lon="4.7831">
        <ele>59.72</ele>
        <time>2019-05-29T12:17:29.000Z</time>
      </trkpt>
      <trkpt lat="43.9542" lon="4.78307">
        <ele>59.72</ele>
        <time>2019-05-29T12:17:34.000Z</time>
      </trkpt>
      <trkpt lat="43.95434" lon="4.78302">
        <ele>60.47</ele>
        <time>2019-05-29T12:17:39.000Z</time>
      </trkpt>
      <trkpt lat="43.9545" lon="4.78299">
        <ele>62.46</ele>
        <time>2019-05-29T12:17:44.000Z</time>
      </trkpt>
      <trkpt lat="43.95466" lon="4.78302">
        <ele>63.7</ele>
        <time>2019-05-29T12:17:49.000Z</time>
      </trkpt>
      <trkpt lat="43.95481" lon="4.78312">
        <ele>62.72</ele>
        <time>2019-05-29T12:17:54.000Z</time>
      </trkpt>
      <trkpt lat="43.95495" lon="4.78325">
        <ele>63.72</ele>
        <time>2019-05-29T12:17:59.000Z</time>
      </trkpt>
      <trkpt lat="43.95508" lon="4.78336">
        <ele>64.49</ele>
        <time>2019-05-29T12:18:04.000Z</time>
      </trkpt>
      <trkpt lat="43.95516" lon="4.78344">
        <ele>64.74</ele>
        <time>2019-05-29T12:18:09.000Z</time>
      </trkpt>
      <trkpt lat="43.95516" lon="4.78328">
        <ele>65.72</ele>
        <time>2019-05-29T12:18:33.000Z</time>
      </trkpt>
      <trkpt lat="43.9549" lon="4.78309">
        <ele>65.7</ele>
        <time>2019-05-29T12:18:38.000Z</time>
      </trkpt>
      <trkpt lat="43.95462" lon="4.78292">
        <ele>63.74</ele>
        <time>2019-05-29T12:18:43.000Z</time>
      </trkpt>
      <trkpt lat="43.95425" lon="4.7829">
        <ele>61.74</ele>
        <time>2019-05-29T12:18:48.000Z</time>
      </trkpt>
      <trkpt lat="43.95387" lon="4.78313">
        <ele>60.71</ele>
        <time>2019-05-29T12:18:53.000Z</time>
      </trkpt>
      <trkpt lat="43.95357" lon="4.78358">
        <ele>58.99</ele>
        <time>2019-05-29T12:18:58.000Z</time>
      </trkpt>
      <trkpt lat="43.9534" lon="4.78416">
        <ele>56.74</ele>
        <time>2019-05-29T12:19:03.000Z</time>
      </trkpt>
      <trkpt lat="43.95337" lon="4.78475">
        <ele>53.74</ele>
        <time>2019-05-29T12:19:08.000Z</time>
      </trkpt>
      <trkpt lat="43.95337" lon="4.78515">
        <ele>51.72</ele>
        <time>2019-05-29T12:19:13.000Z</time>
      </trkpt>
      <trkpt lat="43.95338" lon="4.78528">
        <ele>52.71</ele>
        <time>2019-05-29T12:19:32.000Z</time>
      </trkpt>
      <trkpt lat="43.95344" lon="4.78539">
        <ele>49.97</ele>
        <time>2019-05-29T12:19:39.000Z</time>
      </trkpt>
      <trkpt lat="43.95356" lon="4.7857">
        <ele>48.72</ele>
        <time>2019-05-29T12:19:44.000Z</time>
      </trkpt>
      <trkpt lat="43.95373" lon="4.78605">
        <ele>46.72</ele>
        <time>2019-05-29T12:19:49.000Z</time>
      </trkpt>
      <trkpt lat="43.9539" lon="4.78649">
        <ele>45.72</ele>
        <time>2019-05-29T12:19:54.000Z</time>
      </trkpt>
      <trkpt lat="43.95408" lon="4.78698">
        <ele>42.74</ele>
        <time>2019-05-29T12:19:59.000Z</time>
      </trkpt>
      <trkpt lat="43.95419" lon="4.78745">
        <ele>41.72</ele>
        <time>2019-05-29T12:20:04.000Z</time>
      </trkpt>
      <trkpt lat="43.95432" lon="4.78793">
        <ele>39.97</ele>
        <time>2019-05-29T12:20:09.000Z</time>
      </trkpt>
      <trkpt lat="43.95442" lon="4.78842">
        <ele>36.97</ele>
        <time>2019-05-29T12:20:14.000Z</time>
      </trkpt>
      <trkpt lat="43.95453" lon="4.78892">
        <ele>34.97</ele>
        <time>2019-05-29T12:20:19.000Z</time>
      </trkpt>
      <trkpt lat="43.95456" lon="4.78925">
        <ele>34.47</ele>
        <time>2019-05-29T12:20:24.000Z</time>
      </trkpt>
      <trkpt lat="43.95446" lon="4.78929">
        <ele>39.49</ele>
        <time>2019-05-29T12:21:13.000Z</time>
      </trkpt>
      <trkpt lat="43.95439" lon="4.7892">
        <ele>40.49</ele>
        <time>2019-05-29T12:21:18.000Z</time>
      </trkpt>
      <trkpt lat="43.95429" lon="4.78913">
        <ele>39.96</ele>
        <time>2019-05-29T12:21:23.000Z</time>
      </trkpt>
      <trkpt lat="43.95417" lon="4.78904">
        <ele>38.97</ele>
        <time>2019-05-29T12:21:28.000Z</time>
      </trkpt>
      <trkpt lat="43.95405" lon="4.78898">
        <ele>40.45</ele>
        <time>2019-05-29T12:21:33.000Z</time>
      </trkpt>
      <trkpt lat="43.95393" lon="4.78891">
        <ele>42.7</ele>
        <time>2019-05-29T12:21:38.000Z</time>
      </trkpt>
      <trkpt lat="43.95383" lon="4.78884">
        <ele>42.72</ele>
        <time>2019-05-29T12:21:43.000Z</time>
      </trkpt>
      <trkpt lat="43.95371" lon="4.78879">
        <ele>43.7</ele>
        <time>2019-05-29T12:21:48.000Z</time>
      </trkpt>
      <trkpt lat="43.95359" lon="4.78874">
        <ele>43.72</ele>
        <time>2019-05-29T12:21:53.000Z</time>
      </trkpt>
      <trkpt lat="43.95348" lon="4.78873">
        <ele>43.72</ele>
        <time>2019-05-29T12:21:58.000Z</time>
      </trkpt>
      <trkpt lat="43.95338" lon="4.78879">
        <ele>42.74</ele>
        <time>2019-05-29T12:22:03.000Z</time>
      </trkpt>
      <trkpt lat="43.95329" lon="4.78895">
        <ele>42.72</ele>
        <time>2019-05-29T12:22:08.000Z</time>
      </trkpt>
      <trkpt lat="43.95321" lon="4.78917">
        <ele>43.71</ele>
        <time>2019-05-29T12:22:13.000Z</time>
      </trkpt>
      <trkpt lat="43.95315" lon="4.7894">
        <ele>46.45</ele>
        <time>2019-05-29T12:22:18.000Z</time>
      </trkpt>
      <trkpt lat="43.95308" lon="4.7895">
        <ele>45.94</ele>
        <time>2019-05-29T12:22:30.000Z</time>
      </trkpt>
      <trkpt lat="43.95301" lon="4.78967">
        <ele>44.74</ele>
        <time>2019-05-29T12:22:35.000Z</time>
      </trkpt>
      <trkpt lat="43.95284" lon="4.78981">
        <ele>45.96</ele>
        <time>2019-05-29T12:22:40.000Z</time>
      </trkpt>
      <trkpt lat="43.95269" lon="4.78971">
        <ele>43.72</ele>
        <time>2019-05-29T12:22:45.000Z</time>
      </trkpt>
      <trkpt lat="43.95255" lon="4.78959">
        <ele>44.49</ele>
        <time>2019-05-29T12:22:50.000Z</time>
      </trkpt>
      <trkpt lat="43.95247" lon="4.78945">
        <ele>44.47</ele>
        <time>2019-05-29T12:22:55.000Z</time>
      </trkpt>
      <trkpt lat="43.95254" lon="4.78933">
        <ele>45.47</ele>
        <time>2019-05-29T12:23:33.000Z</time>
      </trkpt>
      <trkpt lat="43.95254" lon="4.78903">
        <ele>45.96</ele>
        <time>2019-05-29T12:23:38.000Z</time>
      </trkpt>
      <trkpt lat="43.95236" lon="4.78878">
        <ele>44.97</ele>
        <time>2019-05-29T12:23:43.000Z</time>
      </trkpt>
      <trkpt lat="43.95215" lon="4.78844">
        <ele>42.97</ele>
        <time>2019-05-29T12:23:48.000Z</time>
      </trkpt>
      <trkpt lat="43.95196" lon="4.78811">
        <ele>40.72</ele>
        <time>2019-05-29T12:23:53.000Z</time>
      </trkpt>
      <trkpt lat="43.9518" lon="4.78775">
        <ele>39.96</ele>
        <time>2019-05-29T12:23:58.000Z</time>
      </trkpt>
      <trkpt lat="43.95161" lon="4.78736">
        <ele>38.21</ele>
        <time>2019-05-29T12:24:03.000Z</time>
      </trkpt>
      <trkpt lat="43.95142" lon="4.78698">
        <ele>38.49</ele>
        <time>2019-05-29T12:24:08.000Z</time>
      </trkpt>
      <trkpt lat="43.95127" lon="4.78656">
        <ele>37.97</ele>
        <time>2019-05-29T12:24:13.000Z</time>
      </trkpt>
      <trkpt lat="43.95111" lon="4.78614">
        <ele>35.99</ele>
        <time>2019-05-29T12:24:18.000Z</time>
      </trkpt>
      <trkpt lat="43.95094" lon="4.78574">
        <ele>37.93</ele>
        <time>2019-05-29T12:24:23.000Z</time>
      </trkpt>
      <trkpt lat="43.95078" lon="4.78534">
        <ele>35.74</ele>
        <time>2019-05-29T12:24:28.000Z</time>
      </trkpt>
      <trkpt lat="43.95062" lon="4.78495">
        <ele>34.74</ele>
        <time>2019-05-29T12:24:33.000Z</time>
      </trkpt>
      <trkpt lat="43.95041" lon="4.78455">
        <ele>31.74</ele>
        <time>2019-05-29T12:24:38.000Z</time>
      </trkpt>
      <trkpt lat="43.95021" lon="4.78407">
        <ele>28.72</ele>
        <time>2019-05-29T12:24:43.000Z</time>
      </trkpt>
      <trkpt lat="43.9501" lon="4.78363">
        <ele>25.74</ele>
        <time>2019-05-29T12:24:48.000Z</time>
      </trkpt>
      <trkpt lat="43.95006" lon="4.78349">
        <ele>24.72</ele>
        <time>2019-05-29T12:24:54.000Z</time>
      </trkpt>
      <trkpt lat="43.94991" lon="4.78353">
        <ele>22.74</ele>
        <time>2019-05-29T12:24:59.000Z</time>
      </trkpt>
      <trkpt lat="43.94976" lon="4.78364">
        <ele>23.71</ele>
        <time>2019-05-29T12:25:04.000Z</time>
      </trkpt>
      <trkpt lat="43.94984" lon="4.78358">
        <ele>24.72</ele>
        <time>2019-05-29T12:25:14.000Z</time>
      </trkpt>
      <trkpt lat="43.94997" lon="4.78351">
        <ele>24.72</ele>
        <time>2019-05-29T12:25:19.000Z</time>
      </trkpt>
      <trkpt lat="43.9501" lon="4.78338">
        <ele>24.72</ele>
        <time>2019-05-29T12:25:24.000Z</time>
      </trkpt>
      <trkpt lat="43.95" lon="4.78303">
        <ele>22.72</ele>
        <time>2019-05-29T12:25:29.000Z</time>
      </trkpt>
      <trkpt lat="43.9499" lon="4.78263">
        <ele>21.74</ele>
        <time>2019-05-29T12:25:34.000Z</time>
      </trkpt>
      <trkpt lat="43.94985" lon="4.78224">
        <ele>20.73</ele>
        <time>2019-05-29T12:25:39.000Z</time>
      </trkpt>
      <trkpt lat="43.94979" lon="4.78187">
        <ele>20.73</ele>
        <time>2019-05-29T12:25:44.000Z</time>
      </trkpt>
      <trkpt lat="43.94975" lon="4.78158">
        <ele>20.47</ele>
        <time>2019-05-29T12:25:49.000Z</time>
      </trkpt>
      <trkpt lat="43.94969" lon="4.78131">
        <ele>21.47</ele>
        <time>2019-05-29T12:25:54.000Z</time>
      </trkpt>
      <trkpt lat="43.94962" lon="4.78109">
        <ele>21.73</ele>
        <time>2019-05-29T12:25:59.000Z</time>
      </trkpt>
      <trkpt lat="43.94956" lon="4.78087">
        <ele>21.73</ele>
        <time>2019-05-29T12:26:04.000Z</time>
      </trkpt>
      <trkpt lat="43.94948" lon="4.78066">
        <ele>21.73</ele>
        <time>2019-05-29T12:26:09.000Z</time>
      </trkpt>
      <trkpt lat="43.94941" lon="4.78045">
        <ele>23.72</ele>
        <time>2019-05-29T12:26:14.000Z</time>
      </trkpt>
      <trkpt lat="43.94933" lon="4.78024">
        <ele>23.74</ele>
        <time>2019-05-29T12:26:19.000Z</time>
      </trkpt>
      <trkpt lat="43.94923" lon="4.78004">
        <ele>24.48</ele>
        <time>2019-05-29T12:26:24.000Z</time>
      </trkpt>
      <trkpt lat="43.94913" lon="4.77986">
        <ele>23.73</ele>
        <time>2019-05-29T12:26:29.000Z</time>
      </trkpt>
      <trkpt lat="43.94895" lon="4.77962">
        <ele>22.73</ele>
        <time>2019-05-29T12:26:34.000Z</time>
      </trkpt>
      <trkpt lat="43.94876" lon="4.77925">
        <ele>22.73</ele>
        <time>2019-05-29T12:26:39.000Z</time>
      </trkpt>
      <trkpt lat="43.94859" lon="4.77885">
        <ele>20.73</ele>
        <time>2019-05-29T12:26:44.000Z</time>
      </trkpt>
      <trkpt lat="43.94851" lon="4.77848">
        <ele>19.73</ele>
        <time>2019-05-29T12:26:49.000Z</time>
      </trkpt>
      <trkpt lat="43.94849" lon="4.77806">
        <ele>18.48</ele>
        <time>2019-05-29T12:26:54.000Z</time>
      </trkpt>
      <trkpt lat="43.94849" lon="4.77766">
        <ele>20.71</ele>
        <time>2019-05-29T12:26:59.000Z</time>
      </trkpt>
      <trkpt lat="43.94848" lon="4.77724">
        <ele>20.46</ele>
        <time>2019-05-29T12:27:04.000Z</time>
      </trkpt>
      <trkpt lat="43.94854" lon="4.77684">
        <ele>21.48</ele>
        <time>2019-05-29T12:27:09.000Z</time>
      </trkpt>
      <trkpt lat="43.94872" lon="4.7765">
        <ele>24.72</ele>
        <time>2019-05-29T12:27:14.000Z</time>
      </trkpt>
      <trkpt lat="43.94882" lon="4.77609">
        <ele>23.98</ele>
        <time>2019-05-29T12:27:19.000Z</time>
      </trkpt>
      <trkpt lat="43.94883" lon="4.77564">
        <ele>22.73</ele>
        <time>2019-05-29T12:27:24.000Z</time>
      </trkpt>
      <trkpt lat="43.94886" lon="4.7752">
        <ele>23.73</ele>
        <time>2019-05-29T12:27:29.000Z</time>
      </trkpt>
      <trkpt lat="43.94892" lon="4.77477">
        <ele>23.71</ele>
        <time>2019-05-29T12:27:34.000Z</time>
      </trkpt>
      <trkpt lat="43.94897" lon="4.77439">
        <ele>23.49</ele>
        <time>2019-05-29T12:27:39.000Z</time>
      </trkpt>
      <trkpt lat="43.94901" lon="4.77402">
        <ele>22.96</ele>
        <time>2019-05-29T12:27:44.000Z</time>
      </trkpt>
      <trkpt lat="43.94905" lon="4.77377">
        <ele>22.73</ele>
        <time>2019-05-29T12:27:49.000Z</time>
      </trkpt>
      <trkpt lat="43.9489" lon="4.77375">
        <ele>21.96</ele>
        <time>2019-05-29T12:27:54.000Z</time>
      </trkpt>
      <trkpt lat="43.9487" lon="4.7738">
        <ele>20.49</ele>
        <time>2019-05-29T12:27:59.000Z</time>
      </trkpt>
      <trkpt lat="43.94844" lon="4.77383">
        <ele>17.74</ele>
        <time>2019-05-29T12:28:04.000Z</time>
      </trkpt>
      <trkpt lat="43.94819" lon="4.77378">
        <ele>16.98</ele>
        <time>2019-05-29T12:28:09.000Z</time>
      </trkpt>
      <trkpt lat="43.94806" lon="4.77379">
        <ele>18.96</ele>
        <time>2019-05-29T12:28:14.000Z</time>
      </trkpt>
      <trkpt lat="43.94816" lon="4.77373">
        <ele>16.71</ele>
        <time>2019-05-29T12:28:28.000Z</time>
      </trkpt>
      <trkpt lat="43.94829" lon="4.77353">
        <ele>16.73</ele>
        <time>2019-05-29T12:28:33.000Z</time>
      </trkpt>
      <trkpt lat="43.94837" lon="4.77329">
        <ele>16.73</ele>
        <time>2019-05-29T12:28:38.000Z</time>
      </trkpt>
      <trkpt lat="43.94843" lon="4.77306">
        <ele>17.73</ele>
        <time>2019-05-29T12:28:43.000Z</time>
      </trkpt>
      <trkpt lat="43.94851" lon="4.77282">
        <ele>18.73</ele>
        <time>2019-05-29T12:28:48.000Z</time>
      </trkpt>
      <trkpt lat="43.94857" lon="4.77256">
        <ele>18.48</ele>
        <time>2019-05-29T12:28:53.000Z</time>
      </trkpt>
      <trkpt lat="43.94865" lon="4.77229">
        <ele>18.73</ele>
        <time>2019-05-29T12:28:58.000Z</time>
      </trkpt>
      <trkpt lat="43.94874" lon="4.77199">
        <ele>19.48</ele>
        <time>2019-05-29T12:29:03.000Z</time>
      </trkpt>
      <trkpt lat="43.94883" lon="4.7717">
        <ele>18.73</ele>
        <time>2019-05-29T12:29:08.000Z</time>
      </trkpt>
      <trkpt lat="43.9489" lon="4.77139">
        <ele>19.73</ele>
        <time>2019-05-29T12:29:13.000Z</time>
      </trkpt>
      <trkpt lat="43.94892" lon="4.77111">
        <ele>20.71</ele>
        <time>2019-05-29T12:29:18.000Z</time>
      </trkpt>
      <trkpt lat="43.94903" lon="4.77087">
        <ele>17.98</ele>
        <time>2019-05-29T12:29:23.000Z</time>
      </trkpt>
      <trkpt lat="43.94938" lon="4.77074">
        <ele>17.73</ele>
        <time>2019-05-29T12:29:28.000Z</time>
      </trkpt>
      <trkpt lat="43.94959" lon="4.77065">
        <ele>17.74</ele>
        <time>2019-05-29T12:29:33.000Z</time>
      </trkpt>
      <trkpt lat="43.94973" lon="4.77063">
        <ele>20.71</ele>
        <time>2019-05-29T12:29:38.000Z</time>
      </trkpt>
      <trkpt lat="43.94986" lon="4.77056">
        <ele>22.71</ele>
        <time>2019-05-29T12:29:43.000Z</time>
      </trkpt>
      <trkpt lat="43.94998" lon="4.77041">
        <ele>22.98</ele>
        <time>2019-05-29T12:29:48.000Z</time>
      </trkpt>
      <trkpt lat="43.95009" lon="4.77019">
        <ele>23.73</ele>
        <time>2019-05-29T12:29:53.000Z</time>
      </trkpt>
      <trkpt lat="43.9502" lon="4.76995">
        <ele>22.76</ele>
        <time>2019-05-29T12:29:58.000Z</time>
      </trkpt>
      <trkpt lat="43.95031" lon="4.76971">
        <ele>22.71</ele>
        <time>2019-05-29T12:30:03.000Z</time>
      </trkpt>
      <trkpt lat="43.95041" lon="4.76945">
        <ele>24.48</ele>
        <time>2019-05-29T12:30:08.000Z</time>
      </trkpt>
      <trkpt lat="43.95047" lon="4.76916">
        <ele>25.73</ele>
        <time>2019-05-29T12:30:13.000Z</time>
      </trkpt>
      <trkpt lat="43.95055" lon="4.76887">
        <ele>28.73</ele>
        <time>2019-05-29T12:30:18.000Z</time>
      </trkpt>
      <trkpt lat="43.95062" lon="4.76857">
        <ele>29.73</ele>
        <time>2019-05-29T12:30:23.000Z</time>
      </trkpt>
      <trkpt lat="43.95071" lon="4.76835">
        <ele>31.73</ele>
        <time>2019-05-29T12:30:28.000Z</time>
      </trkpt>
      <trkpt lat="43.95081" lon="4.76818">
        <ele>31.74</ele>
        <time>2019-05-29T12:30:33.000Z</time>
      </trkpt>
      <trkpt lat="43.95094" lon="4.76799">
        <ele>30.48</ele>
        <time>2019-05-29T12:30:38.000Z</time>
      </trkpt>
      <trkpt lat="43.95104" lon="4.76771">
        <ele>35.28</ele>
        <time>2019-05-29T12:30:43.000Z</time>
      </trkpt>
      <trkpt lat="43.95114" lon="4.76754">
        <ele>31.48</ele>
        <time>2019-05-29T12:30:48.000Z</time>
      </trkpt>
      <trkpt lat="43.95127" lon="4.7674">
        <ele>27.21</ele>
        <time>2019-05-29T12:30:53.000Z</time>
      </trkpt>
      <trkpt lat="43.95135" lon="4.76719">
        <ele>28.48</ele>
        <time>2019-05-29T12:30:58.000Z</time>
      </trkpt>
      <trkpt lat="43.95145" lon="4.76697">
        <ele>25.96</ele>
        <time>2019-05-29T12:31:03.000Z</time>
      </trkpt>
      <trkpt lat="43.95152" lon="4.76671">
        <ele>27.74</ele>
        <time>2019-05-29T12:31:08.000Z</time>
      </trkpt>
      <trkpt lat="43.9516" lon="4.76645">
        <ele>28.71</ele>
        <time>2019-05-29T12:31:13.000Z</time>
      </trkpt>
      <trkpt lat="43.95168" lon="4.76623">
        <ele>29.71</ele>
        <time>2019-05-29T12:31:18.000Z</time>
      </trkpt>
      <trkpt lat="43.95174" lon="4.766">
        <ele>29.48</ele>
        <time>2019-05-29T12:31:23.000Z</time>
      </trkpt>
      <trkpt lat="43.95176" lon="4.76576">
        <ele>27.74</ele>
        <time>2019-05-29T12:31:28.000Z</time>
      </trkpt>
      <trkpt lat="43.95181" lon="4.76552">
        <ele>25.99</ele>
        <time>2019-05-29T12:31:33.000Z</time>
      </trkpt>
      <trkpt lat="43.9519" lon="4.76531">
        <ele>28.48</ele>
        <time>2019-05-29T12:31:38.000Z</time>
      </trkpt>
      <trkpt lat="43.95196" lon="4.76541">
        <ele>32.48</ele>
        <time>2019-05-29T12:31:50.000Z</time>
      </trkpt>
      <trkpt lat="43.95209" lon="4.7654">
        <ele>33.48</ele>
        <time>2019-05-29T12:31:55.000Z</time>
      </trkpt>
      <trkpt lat="43.95202" lon="4.76533">
        <ele>30.48</ele>
        <time>2019-05-29T12:32:17.000Z</time>
      </trkpt>
      <trkpt lat="43.95193" lon="4.76527">
        <ele>28.98</ele>
        <time>2019-05-29T12:32:27.000Z</time>
      </trkpt>
      <trkpt lat="43.95189" lon="4.76514">
        <ele>27.73</ele>
        <time>2019-05-29T12:32:32.000Z</time>
      </trkpt>
      <trkpt lat="43.95197" lon="4.76479">
        <ele>26.49</ele>
        <time>2019-05-29T12:32:37.000Z</time>
      </trkpt>
      <trkpt lat="43.95193" lon="4.76446">
        <ele>25.98</ele>
        <time>2019-05-29T12:32:42.000Z</time>
      </trkpt>
      <trkpt lat="43.95189" lon="4.76413">
        <ele>25.98</ele>
        <time>2019-05-29T12:32:47.000Z</time>
      </trkpt>
      <trkpt lat="43.95178" lon="4.76377">
        <ele>27.46</ele>
        <time>2019-05-29T12:32:52.000Z</time>
      </trkpt>
      <trkpt lat="43.95168" lon="4.76339">
        <ele>25.54</ele>
        <time>2019-05-29T12:32:57.000Z</time>
      </trkpt>
      <trkpt lat="43.95151" lon="4.76303">
        <ele>21.98</ele>
        <time>2019-05-29T12:33:02.000Z</time>
      </trkpt>
      <trkpt lat="43.95142" lon="4.76276">
        <ele>22.23</ele>
        <time>2019-05-29T12:33:07.000Z</time>
      </trkpt>
      <trkpt lat="43.95131" lon="4.76248">
        <ele>21.71</ele>
        <time>2019-05-29T12:33:12.000Z</time>
      </trkpt>
      <trkpt lat="43.95125" lon="4.76216">
        <ele>17.96</ele>
        <time>2019-05-29T12:33:17.000Z</time>
      </trkpt>
      <trkpt lat="43.95118" lon="4.76185">
        <ele>19.73</ele>
        <time>2019-05-29T12:33:22.000Z</time>
      </trkpt>
      <trkpt lat="43.95115" lon="4.76152">
        <ele>19.49</ele>
        <time>2019-05-29T12:33:27.000Z</time>
      </trkpt>
      <trkpt lat="43.95112" lon="4.76122">
        <ele>18.98</ele>
        <time>2019-05-29T12:33:32.000Z</time>
      </trkpt>
      <trkpt lat="43.95107" lon="4.76095">
        <ele>19.48</ele>
        <time>2019-05-29T12:33:37.000Z</time>
      </trkpt>
      <trkpt lat="43.95104" lon="4.76064">
        <ele>19.73</ele>
        <time>2019-05-29T12:33:42.000Z</time>
      </trkpt>
      <trkpt lat="43.95098" lon="4.76032">
        <ele>20.48</ele>
        <time>2019-05-29T12:33:47.000Z</time>
      </trkpt>
      <trkpt lat="43.95097" lon="4.76005">
        <ele>23.48</ele>
        <time>2019-05-29T12:33:52.000Z</time>
      </trkpt>
      <trkpt lat="43.95093" lon="4.7598">
        <ele>19.76</ele>
        <time>2019-05-29T12:33:57.000Z</time>
      </trkpt>
      <trkpt lat="43.95087" lon="4.7597">
        <ele>17.98</ele>
        <time>2019-05-29T12:34:02.000Z</time>
      </trkpt>
      <trkpt lat="43.95084" lon="4.75948">
        <ele>19.7</ele>
        <time>2019-05-29T12:34:07.000Z</time>
      </trkpt>
      <trkpt lat="43.95074" lon="4.75911">
        <ele>21.95</ele>
        <time>2019-05-29T12:34:12.000Z</time>
      </trkpt>
      <trkpt lat="43.95062" lon="4.75884">
        <ele>19.98</ele>
        <time>2019-05-29T12:34:17.000Z</time>
      </trkpt>
      <trkpt lat="43.95047" lon="4.75855">
        <ele>17.98</ele>
        <time>2019-05-29T12:34:22.000Z</time>
      </trkpt>
      <trkpt lat="43.95035" lon="4.75829">
        <ele>17.97</ele>
        <time>2019-05-29T12:34:27.000Z</time>
      </trkpt>
      <trkpt lat="43.95022" lon="4.758">
        <ele>18.73</ele>
        <time>2019-05-29T12:34:32.000Z</time>
      </trkpt>
      <trkpt lat="43.95004" lon="4.7578">
        <ele>19.96</ele>
        <time>2019-05-29T12:34:37.000Z</time>
      </trkpt>
      <trkpt lat="43.94977" lon="4.75789">
        <ele>17.73</ele>
        <time>2019-05-29T12:34:42.000Z</time>
      </trkpt>
      <trkpt lat="43.94948" lon="4.75799">
        <ele>18.71</ele>
        <time>2019-05-29T12:34:47.000Z</time>
      </trkpt>
      <trkpt lat="43.94917" lon="4.75807">
        <ele>18.97</ele>
        <time>2019-05-29T12:34:52.000Z</time>
      </trkpt>
      <trkpt lat="43.94886" lon="4.75817">
        <ele>18.73</ele>
        <time>2019-05-29T12:34:57.000Z</time>
      </trkpt>
      <trkpt lat="43.94857" lon="4.75832">
        <ele>19.73</ele>
        <time>2019-05-29T12:35:02.000Z</time>
      </trkpt>
      <trkpt lat="43.94827" lon="4.75841">
        <ele>15.75</ele>
        <time>2019-05-29T12:35:07.000Z</time>
      </trkpt>
      <trkpt lat="43.94797" lon="4.75833">
        <ele>14.73</ele>
        <time>2019-05-29T12:35:12.000Z</time>
      </trkpt>
      <trkpt lat="43.94768" lon="4.75813">
        <ele>14.73</ele>
        <time>2019-05-29T12:35:17.000Z</time>
      </trkpt>
      <trkpt lat="43.94745" lon="4.75789">
        <ele>15.72</ele>
        <time>2019-05-29T12:35:22.000Z</time>
      </trkpt>
      <trkpt lat="43.94722" lon="4.75765">
        <ele>15.48</ele>
        <time>2019-05-29T12:35:27.000Z</time>
      </trkpt>
      <trkpt lat="43.94701" lon="4.75733">
        <ele>14.73</ele>
        <time>2019-05-29T12:35:32.000Z</time>
      </trkpt>
      <trkpt lat="43.94679" lon="4.75704">
        <ele>14.98</ele>
        <time>2019-05-29T12:35:37.000Z</time>
      </trkpt>
      <trkpt lat="43.94656" lon="4.7568">
        <ele>14</ele>
        <time>2019-05-29T12:35:42.000Z</time>
      </trkpt>
      <trkpt lat="43.94632" lon="4.75657">
        <ele>15.73</ele>
        <time>2019-05-29T12:35:47.000Z</time>
      </trkpt>
      <trkpt lat="43.94609" lon="4.75643">
        <ele>16.98</ele>
        <time>2019-05-29T12:35:52.000Z</time>
      </trkpt>
      <trkpt lat="43.94585" lon="4.75635">
        <ele>15.98</ele>
        <time>2019-05-29T12:35:57.000Z</time>
      </trkpt>
      <trkpt lat="43.94561" lon="4.75632">
        <ele>17.97</ele>
        <time>2019-05-29T12:36:02.000Z</time>
      </trkpt>
      <trkpt lat="43.9454" lon="4.75633">
        <ele>17.48</ele>
        <time>2019-05-29T12:36:07.000Z</time>
      </trkpt>
      <trkpt lat="43.94514" lon="4.75632">
        <ele>16.5</ele>
        <time>2019-05-29T12:36:12.000Z</time>
      </trkpt>
      <trkpt lat="43.9449" lon="4.75616">
        <ele>17.72</ele>
        <time>2019-05-29T12:36:17.000Z</time>
      </trkpt>
      <trkpt lat="43.94467" lon="4.75601">
        <ele>17.98</ele>
        <time>2019-05-29T12:36:22.000Z</time>
      </trkpt>
      <trkpt lat="43.94441" lon="4.75591">
        <ele>17.48</ele>
        <time>2019-05-29T12:36:27.000Z</time>
      </trkpt>
      <trkpt lat="43.94416" lon="4.75581">
        <ele>19.73</ele>
        <time>2019-05-29T12:36:32.000Z</time>
      </trkpt>
      <trkpt lat="43.94392" lon="4.75576">
        <ele>20.73</ele>
        <time>2019-05-29T12:36:37.000Z</time>
      </trkpt>
      <trkpt lat="43.94373" lon="4.75592">
        <ele>20.5</ele>
        <time>2019-05-29T12:36:42.000Z</time>
      </trkpt>
      <trkpt lat="43.9434" lon="4.75593">
        <ele>17.74</ele>
        <time>2019-05-29T12:36:47.000Z</time>
      </trkpt>
      <trkpt lat="43.94311" lon="4.75571">
        <ele>17.74</ele>
        <time>2019-05-29T12:36:52.000Z</time>
      </trkpt>
      <trkpt lat="43.94299" lon="4.75532">
        <ele>16.74</ele>
        <time>2019-05-29T12:36:57.000Z</time>
      </trkpt>
      <trkpt lat="43.94297" lon="4.75489">
        <ele>15.74</ele>
        <time>2019-05-29T12:37:02.000Z</time>
      </trkpt>
      <trkpt lat="43.94285" lon="4.75455">
        <ele>16.49</ele>
        <time>2019-05-29T12:37:07.000Z</time>
      </trkpt>
      <trkpt lat="43.94269" lon="4.75426">
        <ele>15.97</ele>
        <time>2019-05-29T12:37:12.000Z</time>
      </trkpt>
      <trkpt lat="43.94245" lon="4.75406">
        <ele>14.75</ele>
        <time>2019-05-29T12:37:17.000Z</time>
      </trkpt>
      <trkpt lat="43.94222" lon="4.75385">
        <ele>11.5</ele>
        <time>2019-05-29T12:37:22.000Z</time>
      </trkpt>
      <trkpt lat="43.94198" lon="4.75367">
        <ele>11.74</ele>
        <time>2019-05-29T12:37:27.000Z</time>
      </trkpt>
      <trkpt lat="43.94171" lon="4.75349">
        <ele>10.99</ele>
        <time>2019-05-29T12:37:32.000Z</time>
      </trkpt>
      <trkpt lat="43.94144" lon="4.7533">
        <ele>10.74</ele>
        <time>2019-05-29T12:37:37.000Z</time>
      </trkpt>
      <trkpt lat="43.94114" lon="4.75316">
        <ele>10.97</ele>
        <time>2019-05-29T12:37:42.000Z</time>
      </trkpt>
      <trkpt lat="43.94081" lon="4.75306">
        <ele>10.74</ele>
        <time>2019-05-29T12:37:47.000Z</time>
      </trkpt>
      <trkpt lat="43.94046" lon="4.75302">
        <ele>10.74</ele>
        <time>2019-05-29T12:37:52.000Z</time>
      </trkpt>
      <trkpt lat="43.94009" lon="4.75299">
        <ele>9.97</ele>
        <time>2019-05-29T12:37:57.000Z</time>
      </trkpt>
      <trkpt lat="43.93975" lon="4.75293">
        <ele>8.99</ele>
        <time>2019-05-29T12:38:02.000Z</time>
      </trkpt>
      <trkpt lat="43.93944" lon="4.75287">
        <ele>8.74</ele>
        <time>2019-05-29T12:38:07.000Z</time>
      </trkpt>
      <trkpt lat="43.9391" lon="4.75286">
        <ele>9.74</ele>
        <time>2019-05-29T12:38:12.000Z</time>
      </trkpt>
      <trkpt lat="43.93881" lon="4.7528">
        <ele>11.72</ele>
        <time>2019-05-29T12:38:17.000Z</time>
      </trkpt>
      <trkpt lat="43.93853" lon="4.75288">
        <ele>10.01</ele>
        <time>2019-05-29T12:38:22.000Z</time>
      </trkpt>
      <trkpt lat="43.93822" lon="4.75288">
        <ele>9.74</ele>
        <time>2019-05-29T12:38:27.000Z</time>
      </trkpt>
      <trkpt lat="43.93805" lon="4.75254">
        <ele>12.72</ele>
        <time>2019-05-29T12:38:32.000Z</time>
      </trkpt>
      <trkpt lat="43.93781" lon="4.75228">
        <ele>13.72</ele>
        <time>2019-05-29T12:38:37.000Z</time>
      </trkpt>
      <trkpt lat="43.93754" lon="4.75238">
        <ele>12.97</ele>
        <time>2019-05-29T12:38:42.000Z</time>
      </trkpt>
      <trkpt lat="43.93731" lon="4.75257">
        <ele>14.72</ele>
        <time>2019-05-29T12:38:47.000Z</time>
      </trkpt>
      <trkpt lat="43.93709" lon="4.75276">
        <ele>15.72</ele>
        <time>2019-05-29T12:38:52.000Z</time>
      </trkpt>
      <trkpt lat="43.93692" lon="4.7529">
        <ele>16.99</ele>
        <time>2019-05-29T12:38:57.000Z</time>
      </trkpt>
      <trkpt lat="43.93678" lon="4.753">
        <ele>17.74</ele>
        <time>2019-05-29T12:39:02.000Z</time>
      </trkpt>
      <trkpt lat="43.93664" lon="4.75287">
        <ele>16.01</ele>
        <time>2019-05-29T12:39:07.000Z</time>
      </trkpt>
      <trkpt lat="43.93653" lon="4.75263">
        <ele>16.75</ele>
        <time>2019-05-29T12:39:12.000Z</time>
      </trkpt>
      <trkpt lat="43.93646" lon="4.75233">
        <ele>15.74</ele>
        <time>2019-05-29T12:39:17.000Z</time>
      </trkpt>
      <trkpt lat="43.93637" lon="4.75203">
        <ele>15.74</ele>
        <time>2019-05-29T12:39:22.000Z</time>
      </trkpt>
      <trkpt lat="43.93624" lon="4.75174">
        <ele>16.74</ele>
        <time>2019-05-29T12:39:27.000Z</time>
      </trkpt>
      <trkpt lat="43.93612" lon="4.75146">
        <ele>14.73</ele>
        <time>2019-05-29T12:39:32.000Z</time>
      </trkpt>
      <trkpt lat="43.93602" lon="4.75112">
        <ele>16.72</ele>
        <time>2019-05-29T12:39:37.000Z</time>
      </trkpt>
      <trkpt lat="43.93593" lon="4.75081">
        <ele>17.74</ele>
        <time>2019-05-29T12:39:42.000Z</time>
      </trkpt>
      <trkpt lat="43.93582" lon="4.75049">
        <ele>17.73</ele>
        <time>2019-05-29T12:39:47.000Z</time>
      </trkpt>
      <trkpt lat="43.93572" lon="4.75022">
        <ele>16.98</ele>
        <time>2019-05-29T12:39:52.000Z</time>
      </trkpt>
      <trkpt lat="43.93558" lon="4.74988">
        <ele>15.76</ele>
        <time>2019-05-29T12:39:57.000Z</time>
      </trkpt>
      <trkpt lat="43.93543" lon="4.74955">
        <ele>15.73</ele>
        <time>2019-05-29T12:40:02.000Z</time>
      </trkpt>
      <trkpt lat="43.93527" lon="4.74921">
        <ele>14.99</ele>
        <time>2019-05-29T12:40:07.000Z</time>
      </trkpt>
      <trkpt lat="43.93511" lon="4.74888">
        <ele>14.99</ele>
        <time>2019-05-29T12:40:12.000Z</time>
      </trkpt>
      <trkpt lat="43.93494" lon="4.74855">
        <ele>15.76</ele>
        <time>2019-05-29T12:40:17.000Z</time>
      </trkpt>
      <trkpt lat="43.93478" lon="4.74823">
        <ele>15.99</ele>
        <time>2019-05-29T12:40:22.000Z</time>
      </trkpt>
      <trkpt lat="43.9346" lon="4.74791">
        <ele>16.49</ele>
        <time>2019-05-29T12:40:27.000Z</time>
      </trkpt>
      <trkpt lat="43.93443" lon="4.74759">
        <ele>15.74</ele>
        <time>2019-05-29T12:40:32.000Z</time>
      </trkpt>
      <trkpt lat="43.93427" lon="4.7473">
        <ele>15.51</ele>
        <time>2019-05-29T12:40:37.000Z</time>
      </trkpt>
      <trkpt lat="43.93409" lon="4.74698">
        <ele>17.99</ele>
        <time>2019-05-29T12:40:42.000Z</time>
      </trkpt>
      <trkpt lat="43.93392" lon="4.7467">
        <ele>16.99</ele>
        <time>2019-05-29T12:40:47.000Z</time>
      </trkpt>
      <trkpt lat="43.93377" lon="4.74642">
        <ele>17.74</ele>
        <time>2019-05-29T12:40:52.000Z</time>
      </trkpt>
      <trkpt lat="43.93359" lon="4.74617">
        <ele>16.76</ele>
        <time>2019-05-29T12:40:57.000Z</time>
      </trkpt>
      <trkpt lat="43.93343" lon="4.7459">
        <ele>15.51</ele>
        <time>2019-05-29T12:41:02.000Z</time>
      </trkpt>
      <trkpt lat="43.93325" lon="4.74563">
        <ele>13.74</ele>
        <time>2019-05-29T12:41:07.000Z</time>
      </trkpt>
      <trkpt lat="43.93309" lon="4.7454">
        <ele>14.49</ele>
        <time>2019-05-29T12:41:12.000Z</time>
      </trkpt>
      <trkpt lat="43.93301" lon="4.74533">
        <ele>16.51</ele>
        <time>2019-05-29T12:42:03.000Z</time>
      </trkpt>
      <trkpt lat="43.93295" lon="4.7452">
        <ele>17.98</ele>
        <time>2019-05-29T12:42:08.000Z</time>
      </trkpt>
      <trkpt lat="43.9328" lon="4.74498">
        <ele>15.74</ele>
        <time>2019-05-29T12:42:13.000Z</time>
      </trkpt>
      <trkpt lat="43.93262" lon="4.74476">
        <ele>15.76</ele>
        <time>2019-05-29T12:42:18.000Z</time>
      </trkpt>
      <trkpt lat="43.93242" lon="4.74458">
        <ele>14.74</ele>
        <time>2019-05-29T12:42:23.000Z</time>
      </trkpt>
      <trkpt lat="43.93222" lon="4.7445">
        <ele>14.74</ele>
        <time>2019-05-29T12:42:28.000Z</time>
      </trkpt>
      <trkpt lat="43.93211" lon="4.74446">
        <ele>15.74</ele>
        <time>2019-05-29T12:42:33.000Z</time>
      </trkpt>
      <trkpt lat="43.93202" lon="4.74444">
        <ele>16.49</ele>
        <time>2019-05-29T12:42:38.000Z</time>
      </trkpt>
      <trkpt lat="43.93191" lon="4.7444">
        <ele>15.74</ele>
        <time>2019-05-29T12:42:43.000Z</time>
      </trkpt>
      <trkpt lat="43.93179" lon="4.74426">
        <ele>15.73</ele>
        <time>2019-05-29T12:42:48.000Z</time>
      </trkpt>
      <trkpt lat="43.93168" lon="4.74407">
        <ele>16.73</ele>
        <time>2019-05-29T12:42:53.000Z</time>
      </trkpt>
      <trkpt lat="43.93151" lon="4.74386">
        <ele>17.51</ele>
        <time>2019-05-29T12:42:58.000Z</time>
      </trkpt>
      <trkpt lat="43.93131" lon="4.74368">
        <ele>16.74</ele>
        <time>2019-05-29T12:43:03.000Z</time>
      </trkpt>
      <trkpt lat="43.93109" lon="4.74353">
        <ele>17.49</ele>
        <time>2019-05-29T12:43:08.000Z</time>
      </trkpt>
      <trkpt lat="43.93089" lon="4.74338">
        <ele>16.74</ele>
        <time>2019-05-29T12:43:13.000Z</time>
      </trkpt>
      <trkpt lat="43.93072" lon="4.74324">
        <ele>18.73</ele>
        <time>2019-05-29T12:43:18.000Z</time>
      </trkpt>
      <trkpt lat="43.93059" lon="4.74315">
        <ele>18.74</ele>
        <time>2019-05-29T12:43:23.000Z</time>
      </trkpt>
      <trkpt lat="43.93044" lon="4.74298">
        <ele>19.74</ele>
        <time>2019-05-29T12:43:28.000Z</time>
      </trkpt>
      <trkpt lat="43.93027" lon="4.74279">
        <ele>18.74</ele>
        <time>2019-05-29T12:43:33.000Z</time>
      </trkpt>
      <trkpt lat="43.93009" lon="4.74259">
        <ele>18.74</ele>
        <time>2019-05-29T12:43:38.000Z</time>
      </trkpt>
      <trkpt lat="43.92991" lon="4.74239">
        <ele>18.74</ele>
        <time>2019-05-29T12:43:43.000Z</time>
      </trkpt>
      <trkpt lat="43.9297" lon="4.74216">
        <ele>17.74</ele>
        <time>2019-05-29T12:43:48.000Z</time>
      </trkpt>
      <trkpt lat="43.92949" lon="4.74192">
        <ele>17.74</ele>
        <time>2019-05-29T12:43:53.000Z</time>
      </trkpt>
      <trkpt lat="43.92929" lon="4.74166">
        <ele>17.49</ele>
        <time>2019-05-29T12:43:58.000Z</time>
      </trkpt>
      <trkpt lat="43.92908" lon="4.74144">
        <ele>16.74</ele>
        <time>2019-05-29T12:44:03.000Z</time>
      </trkpt>
      <trkpt lat="43.92885" lon="4.74119">
        <ele>15.76</ele>
        <time>2019-05-29T12:44:08.000Z</time>
      </trkpt>
      <trkpt lat="43.92861" lon="4.74092">
        <ele>16.74</ele>
        <time>2019-05-29T12:44:13.000Z</time>
      </trkpt>
      <trkpt lat="43.92835" lon="4.74066">
        <ele>16.74</ele>
        <time>2019-05-29T12:44:18.000Z</time>
      </trkpt>
      <trkpt lat="43.92812" lon="4.74033">
        <ele>15.74</ele>
        <time>2019-05-29T12:44:23.000Z</time>
      </trkpt>
      <trkpt lat="43.92791" lon="4.73998">
        <ele>16.73</ele>
        <time>2019-05-29T12:44:28.000Z</time>
      </trkpt>
      <trkpt lat="43.92773" lon="4.73966">
        <ele>16.74</ele>
        <time>2019-05-29T12:44:33.000Z</time>
      </trkpt>
      <trkpt lat="43.92755" lon="4.73931">
        <ele>18.74</ele>
        <time>2019-05-29T12:44:38.000Z</time>
      </trkpt>
      <trkpt lat="43.92735" lon="4.73897">
        <ele>19.49</ele>
        <time>2019-05-29T12:44:43.000Z</time>
      </trkpt>
      <trkpt lat="43.92716" lon="4.73871">
        <ele>18.73</ele>
        <time>2019-05-29T12:44:48.000Z</time>
      </trkpt>
      <trkpt lat="43.92716" lon="4.73841">
        <ele>16.75</ele>
        <time>2019-05-29T12:44:53.000Z</time>
      </trkpt>
      <trkpt lat="43.92703" lon="4.73815">
        <ele>16.74</ele>
        <time>2019-05-29T12:44:58.000Z</time>
      </trkpt>
      <trkpt lat="43.92684" lon="4.73794">
        <ele>15.51</ele>
        <time>2019-05-29T12:45:03.000Z</time>
      </trkpt>
      <trkpt lat="43.92666" lon="4.73769">
        <ele>16.48</ele>
        <time>2019-05-29T12:45:08.000Z</time>
      </trkpt>
      <trkpt lat="43.92645" lon="4.73744">
        <ele>15.76</ele>
        <time>2019-05-29T12:45:13.000Z</time>
      </trkpt>
      <trkpt lat="43.92622" lon="4.73718">
        <ele>14.75</ele>
        <time>2019-05-29T12:45:18.000Z</time>
      </trkpt>
      <trkpt lat="43.92599" lon="4.73688">
        <ele>13.01</ele>
        <time>2019-05-29T12:45:23.000Z</time>
      </trkpt>
      <trkpt lat="43.92577" lon="4.73661">
        <ele>10.76</ele>
        <time>2019-05-29T12:45:28.000Z</time>
      </trkpt>
      <trkpt lat="43.92553" lon="4.73635">
        <ele>11.98</ele>
        <time>2019-05-29T12:45:33.000Z</time>
      </trkpt>
      <trkpt lat="43.92531" lon="4.73608">
        <ele>13.99</ele>
        <time>2019-05-29T12:45:38.000Z</time>
      </trkpt>
      <trkpt lat="43.92509" lon="4.73584">
        <ele>14.98</ele>
        <time>2019-05-29T12:45:43.000Z</time>
      </trkpt>
      <trkpt lat="43.92486" lon="4.73556">
        <ele>13.75</ele>
        <time>2019-05-29T12:45:48.000Z</time>
      </trkpt>
      <trkpt lat="43.92464" lon="4.73529">
        <ele>12.75</ele>
        <time>2019-05-29T12:45:53.000Z</time>
      </trkpt>
      <trkpt lat="43.92445" lon="4.73504">
        <ele>12.75</ele>
        <time>2019-05-29T12:45:58.000Z</time>
      </trkpt>
      <trkpt lat="43.92426" lon="4.73476">
        <ele>10.51</ele>
        <time>2019-05-29T12:46:03.000Z</time>
      </trkpt>
      <trkpt lat="43.92405" lon="4.73445">
        <ele>11.75</ele>
        <time>2019-05-29T12:46:08.000Z</time>
      </trkpt>
      <trkpt lat="43.92384" lon="4.73416">
        <ele>12.75</ele>
        <time>2019-05-29T12:46:13.000Z</time>
      </trkpt>
      <trkpt lat="43.92361" lon="4.73389">
        <ele>12.75</ele>
        <time>2019-05-29T12:46:18.000Z</time>
      </trkpt>
      <trkpt lat="43.92337" lon="4.73361">
        <ele>12.75</ele>
        <time>2019-05-29T12:46:23.000Z</time>
      </trkpt>
      <trkpt lat="43.92312" lon="4.73331">
        <ele>11.75</ele>
        <time>2019-05-29T12:46:28.000Z</time>
      </trkpt>
      <trkpt lat="43.92289" lon="4.73302">
        <ele>13.5</ele>
        <time>2019-05-29T12:46:33.000Z</time>
      </trkpt>
      <trkpt lat="43.92265" lon="4.73275">
        <ele>11.75</ele>
        <time>2019-05-29T12:46:38.000Z</time>
      </trkpt>
      <trkpt lat="43.92241" lon="4.73247">
        <ele>11.75</ele>
        <time>2019-05-29T12:46:43.000Z</time>
      </trkpt>
      <trkpt lat="43.92216" lon="4.73221">
        <ele>11.98</ele>
        <time>2019-05-29T12:46:48.000Z</time>
      </trkpt>
      <trkpt lat="43.92189" lon="4.73193">
        <ele>11.75</ele>
        <time>2019-05-29T12:46:53.000Z</time>
      </trkpt>
      <trkpt lat="43.92163" lon="4.73166">
        <ele>11.75</ele>
        <time>2019-05-29T12:46:58.000Z</time>
      </trkpt>
      <trkpt lat="43.92137" lon="4.73139">
        <ele>11.75</ele>
        <time>2019-05-29T12:47:03.000Z</time>
      </trkpt>
      <trkpt lat="43.92111" lon="4.73114">
        <ele>11.75</ele>
        <time>2019-05-29T12:47:08.000Z</time>
      </trkpt>
      <trkpt lat="43.92084" lon="4.73091">
        <ele>12.76</ele>
        <time>2019-05-29T12:47:13.000Z</time>
      </trkpt>
      <trkpt lat="43.92057" lon="4.73065">
        <ele>13.73</ele>
        <time>2019-05-29T12:47:18.000Z</time>
      </trkpt>
      <trkpt lat="43.92031" lon="4.73044">
        <ele>12.75</ele>
        <time>2019-05-29T12:47:23.000Z</time>
      </trkpt>
      <trkpt lat="43.92003" lon="4.73023">
        <ele>10.76</ele>
        <time>2019-05-29T12:47:28.000Z</time>
      </trkpt>
      <trkpt lat="43.91976" lon="4.73002">
        <ele>11.75</ele>
        <time>2019-05-29T12:47:33.000Z</time>
      </trkpt>
      <trkpt lat="43.9195" lon="4.72985">
        <ele>11</ele>
        <time>2019-05-29T12:47:38.000Z</time>
      </trkpt>
      <trkpt lat="43.91925" lon="4.72966">
        <ele>11.75</ele>
        <time>2019-05-29T12:47:43.000Z</time>
      </trkpt>
      <trkpt lat="43.91898" lon="4.72948">
        <ele>12.75</ele>
        <time>2019-05-29T12:47:48.000Z</time>
      </trkpt>
      <trkpt lat="43.9187" lon="4.72931">
        <ele>12</ele>
        <time>2019-05-29T12:47:53.000Z</time>
      </trkpt>
      <trkpt lat="43.91842" lon="4.72912">
        <ele>12.75</ele>
        <time>2019-05-29T12:47:58.000Z</time>
      </trkpt>
      <trkpt lat="43.91815" lon="4.72891">
        <ele>12.75</ele>
        <time>2019-05-29T12:48:03.000Z</time>
      </trkpt>
      <trkpt lat="43.91787" lon="4.72873">
        <ele>13.76</ele>
        <time>2019-05-29T12:48:08.000Z</time>
      </trkpt>
      <trkpt lat="43.9176" lon="4.7286">
        <ele>12.75</ele>
        <time>2019-05-29T12:48:13.000Z</time>
      </trkpt>
      <trkpt lat="43.9173" lon="4.72844">
        <ele>11.75</ele>
        <time>2019-05-29T12:48:18.000Z</time>
      </trkpt>
      <trkpt lat="43.91703" lon="4.72829">
        <ele>10.98</ele>
        <time>2019-05-29T12:48:23.000Z</time>
      </trkpt>
      <trkpt lat="43.91675" lon="4.7281">
        <ele>12</ele>
        <time>2019-05-29T12:48:28.000Z</time>
      </trkpt>
      <trkpt lat="43.91648" lon="4.72794">
        <ele>11.77</ele>
        <time>2019-05-29T12:48:33.000Z</time>
      </trkpt>
      <trkpt lat="43.91621" lon="4.72775">
        <ele>12.75</ele>
        <time>2019-05-29T12:48:38.000Z</time>
      </trkpt>
      <trkpt lat="43.91595" lon="4.72757">
        <ele>12.52</ele>
        <time>2019-05-29T12:48:43.000Z</time>
      </trkpt>
      <trkpt lat="43.91568" lon="4.72739">
        <ele>13.5</ele>
        <time>2019-05-29T12:48:48.000Z</time>
      </trkpt>
      <trkpt lat="43.91542" lon="4.72723">
        <ele>13</ele>
        <time>2019-05-29T12:48:53.000Z</time>
      </trkpt>
      <trkpt lat="43.91515" lon="4.72706">
        <ele>11.78</ele>
        <time>2019-05-29T12:48:58.000Z</time>
      </trkpt>
      <trkpt lat="43.91491" lon="4.72687">
        <ele>12.75</ele>
        <time>2019-05-29T12:49:03.000Z</time>
      </trkpt>
      <trkpt lat="43.91464" lon="4.72667">
        <ele>14.75</ele>
        <time>2019-05-29T12:49:08.000Z</time>
      </trkpt>
      <trkpt lat="43.91436" lon="4.7265">
        <ele>14.75</ele>
        <time>2019-05-29T12:49:13.000Z</time>
      </trkpt>
      <trkpt lat="43.91408" lon="4.7263">
        <ele>13.75</ele>
        <time>2019-05-29T12:49:18.000Z</time>
      </trkpt>
      <trkpt lat="43.91381" lon="4.7261">
        <ele>13</ele>
        <time>2019-05-29T12:49:23.000Z</time>
      </trkpt>
      <trkpt lat="43.91354" lon="4.72592">
        <ele>13.99</ele>
        <time>2019-05-29T12:49:28.000Z</time>
      </trkpt>
      <trkpt lat="43.91326" lon="4.72573">
        <ele>14.74</ele>
        <time>2019-05-29T12:49:33.000Z</time>
      </trkpt>
      <trkpt lat="43.91299" lon="4.72554">
        <ele>14</ele>
        <time>2019-05-29T12:49:38.000Z</time>
      </trkpt>
      <trkpt lat="43.91271" lon="4.72536">
        <ele>13.75</ele>
        <time>2019-05-29T12:49:43.000Z</time>
      </trkpt>
      <trkpt lat="43.91244" lon="4.72516">
        <ele>13.75</ele>
        <time>2019-05-29T12:49:48.000Z</time>
      </trkpt>
      <trkpt lat="43.91217" lon="4.72496">
        <ele>13.75</ele>
        <time>2019-05-29T12:49:53.000Z</time>
      </trkpt>
      <trkpt lat="43.91191" lon="4.72475">
        <ele>13.75</ele>
        <time>2019-05-29T12:49:58.000Z</time>
      </trkpt>
      <trkpt lat="43.91163" lon="4.72454">
        <ele>13.75</ele>
        <time>2019-05-29T12:50:03.000Z</time>
      </trkpt>
      <trkpt lat="43.91138" lon="4.72431">
        <ele>13.75</ele>
        <time>2019-05-29T12:50:08.000Z</time>
      </trkpt>
      <trkpt lat="43.91112" lon="4.72409">
        <ele>13.99</ele>
        <time>2019-05-29T12:50:13.000Z</time>
      </trkpt>
      <trkpt lat="43.91087" lon="4.72386">
        <ele>14.75</ele>
        <time>2019-05-29T12:50:18.000Z</time>
      </trkpt>
      <trkpt lat="43.91063" lon="4.72359">
        <ele>14.75</ele>
        <time>2019-05-29T12:50:23.000Z</time>
      </trkpt>
      <trkpt lat="43.9104" lon="4.72334">
        <ele>15</ele>
        <time>2019-05-29T12:50:28.000Z</time>
      </trkpt>
      <trkpt lat="43.91018" lon="4.72306">
        <ele>14.75</ele>
        <time>2019-05-29T12:50:33.000Z</time>
      </trkpt>
      <trkpt lat="43.90994" lon="4.72279">
        <ele>14.75</ele>
        <time>2019-05-29T12:50:38.000Z</time>
      </trkpt>
      <trkpt lat="43.9097" lon="4.72253">
        <ele>14.75</ele>
        <time>2019-05-29T12:50:43.000Z</time>
      </trkpt>
      <trkpt lat="43.9095" lon="4.72223">
        <ele>15.75</ele>
        <time>2019-05-29T12:50:48.000Z</time>
      </trkpt>
      <trkpt lat="43.9093" lon="4.72192">
        <ele>16.5</ele>
        <time>2019-05-29T12:50:53.000Z</time>
      </trkpt>
      <trkpt lat="43.90912" lon="4.72163">
        <ele>16.99</ele>
        <time>2019-05-29T12:50:58.000Z</time>
      </trkpt>
      <trkpt lat="43.90893" lon="4.72131">
        <ele>16.75</ele>
        <time>2019-05-29T12:51:03.000Z</time>
      </trkpt>
      <trkpt lat="43.90874" lon="4.72101">
        <ele>18.74</ele>
        <time>2019-05-29T12:51:08.000Z</time>
      </trkpt>
      <trkpt lat="43.90856" lon="4.72069">
        <ele>17.75</ele>
        <time>2019-05-29T12:51:13.000Z</time>
      </trkpt>
      <trkpt lat="43.90838" lon="4.72037">
        <ele>19</ele>
        <time>2019-05-29T12:51:18.000Z</time>
      </trkpt>
      <trkpt lat="43.90822" lon="4.72005">
        <ele>17.51</ele>
        <time>2019-05-29T12:51:23.000Z</time>
      </trkpt>
      <trkpt lat="43.90804" lon="4.71976">
        <ele>17.76</ele>
        <time>2019-05-29T12:51:28.000Z</time>
      </trkpt>
      <trkpt lat="43.90793" lon="4.71953">
        <ele>17.75</ele>
        <time>2019-05-29T12:51:33.000Z</time>
      </trkpt>
      <trkpt lat="43.9078" lon="4.71927">
        <ele>18.5</ele>
        <time>2019-05-29T12:51:38.000Z</time>
      </trkpt>
      <trkpt lat="43.90766" lon="4.71896">
        <ele>18.51</ele>
        <time>2019-05-29T12:51:43.000Z</time>
      </trkpt>
      <trkpt lat="43.9075" lon="4.71863">
        <ele>18.76</ele>
        <time>2019-05-29T12:51:48.000Z</time>
      </trkpt>
      <trkpt lat="43.90736" lon="4.71829">
        <ele>17.77</ele>
        <time>2019-05-29T12:51:53.000Z</time>
      </trkpt>
      <trkpt lat="43.90722" lon="4.71793">
        <ele>17.75</ele>
        <time>2019-05-29T12:51:58.000Z</time>
      </trkpt>
      <trkpt lat="43.90709" lon="4.71754">
        <ele>16.77</ele>
        <time>2019-05-29T12:52:03.000Z</time>
      </trkpt>
      <trkpt lat="43.90697" lon="4.71713">
        <ele>16.76</ele>
        <time>2019-05-29T12:52:08.000Z</time>
      </trkpt>
      <trkpt lat="43.90681" lon="4.71676">
        <ele>15.77</ele>
        <time>2019-05-29T12:52:13.000Z</time>
      </trkpt>
      <trkpt lat="43.90667" lon="4.71635">
        <ele>15.76</ele>
        <time>2019-05-29T12:52:18.000Z</time>
      </trkpt>
      <trkpt lat="43.90654" lon="4.71598">
        <ele>17.5</ele>
        <time>2019-05-29T12:52:23.000Z</time>
      </trkpt>
      <trkpt lat="43.90641" lon="4.71559">
        <ele>16.49</ele>
        <time>2019-05-29T12:52:28.000Z</time>
      </trkpt>
      <trkpt lat="43.90627" lon="4.71522">
        <ele>16.75</ele>
        <time>2019-05-29T12:52:33.000Z</time>
      </trkpt>
      <trkpt lat="43.90613" lon="4.71484">
        <ele>16.51</ele>
        <time>2019-05-29T12:52:38.000Z</time>
      </trkpt>
      <trkpt lat="43.90599" lon="4.71446">
        <ele>18.74</ele>
        <time>2019-05-29T12:52:43.000Z</time>
      </trkpt>
      <trkpt lat="43.90585" lon="4.71408">
        <ele>18.75</ele>
        <time>2019-05-29T12:52:48.000Z</time>
      </trkpt>
      <trkpt lat="43.90573" lon="4.7137">
        <ele>19.74</ele>
        <time>2019-05-29T12:52:53.000Z</time>
      </trkpt>
      <trkpt lat="43.90561" lon="4.71334">
        <ele>19</ele>
        <time>2019-05-29T12:52:58.000Z</time>
      </trkpt>
      <trkpt lat="43.90549" lon="4.71298">
        <ele>17.01</ele>
        <time>2019-05-29T12:53:03.000Z</time>
      </trkpt>
      <trkpt lat="43.90538" lon="4.71262">
        <ele>16.75</ele>
        <time>2019-05-29T12:53:08.000Z</time>
      </trkpt>
      <trkpt lat="43.90525" lon="4.71226">
        <ele>16.75</ele>
        <time>2019-05-29T12:53:13.000Z</time>
      </trkpt>
      <trkpt lat="43.90512" lon="4.7119">
        <ele>16.74</ele>
        <time>2019-05-29T12:53:18.000Z</time>
      </trkpt>
      <trkpt lat="43.90499" lon="4.71155">
        <ele>16</ele>
        <time>2019-05-29T12:53:23.000Z</time>
      </trkpt>
      <trkpt lat="43.90488" lon="4.71121">
        <ele>15.52</ele>
        <time>2019-05-29T12:53:28.000Z</time>
      </trkpt>
      <trkpt lat="43.90475" lon="4.71088">
        <ele>15.51</ele>
        <time>2019-05-29T12:53:33.000Z</time>
      </trkpt>
      <trkpt lat="43.90464" lon="4.71056">
        <ele>16.74</ele>
        <time>2019-05-29T12:53:38.000Z</time>
      </trkpt>
      <trkpt lat="43.90452" lon="4.71022">
        <ele>15.77</ele>
        <time>2019-05-29T12:53:43.000Z</time>
      </trkpt>
      <trkpt lat="43.90439" lon="4.70989">
        <ele>16.76</ele>
        <time>2019-05-29T12:53:48.000Z</time>
      </trkpt>
      <trkpt lat="43.90429" lon="4.70957">
        <ele>15.01</ele>
        <time>2019-05-29T12:53:53.000Z</time>
      </trkpt>
      <trkpt lat="43.90418" lon="4.70923">
        <ele>12.77</ele>
        <time>2019-05-29T12:53:58.000Z</time>
      </trkpt>
      <trkpt lat="43.90405" lon="4.70892">
        <ele>11.76</ele>
        <time>2019-05-29T12:54:03.000Z</time>
      </trkpt>
      <trkpt lat="43.90394" lon="4.70856">
        <ele>11.75</ele>
        <time>2019-05-29T12:54:08.000Z</time>
      </trkpt>
      <trkpt lat="43.90383" lon="4.70824">
        <ele>13.51</ele>
        <time>2019-05-29T12:54:13.000Z</time>
      </trkpt>
      <trkpt lat="43.90371" lon="4.7079">
        <ele>13.99</ele>
        <time>2019-05-29T12:54:18.000Z</time>
      </trkpt>
      <trkpt lat="43.9036" lon="4.70756">
        <ele>14.52</ele>
        <time>2019-05-29T12:54:23.000Z</time>
      </trkpt>
      <trkpt lat="43.90348" lon="4.70722">
        <ele>13.77</ele>
        <time>2019-05-29T12:54:28.000Z</time>
      </trkpt>
      <trkpt lat="43.90333" lon="4.70687">
        <ele>14.74</ele>
        <time>2019-05-29T12:54:33.000Z</time>
      </trkpt>
      <trkpt lat="43.90317" lon="4.70651">
        <ele>16.51</ele>
        <time>2019-05-29T12:54:38.000Z</time>
      </trkpt>
      <trkpt lat="43.90304" lon="4.70617">
        <ele>16.76</ele>
        <time>2019-05-29T12:54:43.000Z</time>
      </trkpt>
      <trkpt lat="43.90293" lon="4.70583">
        <ele>17.74</ele>
        <time>2019-05-29T12:54:48.000Z</time>
      </trkpt>
      <trkpt lat="43.90281" lon="4.70552">
        <ele>18.74</ele>
        <time>2019-05-29T12:54:53.000Z</time>
      </trkpt>
      <trkpt lat="43.90269" lon="4.70519">
        <ele>19.76</ele>
        <time>2019-05-29T12:54:58.000Z</time>
      </trkpt>
      <trkpt lat="43.90255" lon="4.70484">
        <ele>20.76</ele>
        <time>2019-05-29T12:55:03.000Z</time>
      </trkpt>
      <trkpt lat="43.90243" lon="4.7045">
        <ele>21.74</ele>
        <time>2019-05-29T12:55:08.000Z</time>
      </trkpt>
      <trkpt lat="43.90232" lon="4.70417">
        <ele>22.75</ele>
        <time>2019-05-29T12:55:13.000Z</time>
      </trkpt>
      <trkpt lat="43.90218" lon="4.70383">
        <ele>21.76</ele>
        <time>2019-05-29T12:55:18.000Z</time>
      </trkpt>
      <trkpt lat="43.90206" lon="4.70349">
        <ele>20.76</ele>
        <time>2019-05-29T12:55:23.000Z</time>
      </trkpt>
      <trkpt lat="43.90192" lon="4.70316">
        <ele>20.77</ele>
        <time>2019-05-29T12:55:28.000Z</time>
      </trkpt>
      <trkpt lat="43.90178" lon="4.70284">
        <ele>20.74</ele>
        <time>2019-05-29T12:55:33.000Z</time>
      </trkpt>
      <trkpt lat="43.90162" lon="4.70252">
        <ele>21.52</ele>
        <time>2019-05-29T12:55:38.000Z</time>
      </trkpt>
      <trkpt lat="43.9015" lon="4.70218">
        <ele>20.77</ele>
        <time>2019-05-29T12:55:43.000Z</time>
      </trkpt>
      <trkpt lat="43.90136" lon="4.70185">
        <ele>19.99</ele>
        <time>2019-05-29T12:55:48.000Z</time>
      </trkpt>
      <trkpt lat="43.90137" lon="4.7015">
        <ele>18.77</ele>
        <time>2019-05-29T12:55:53.000Z</time>
      </trkpt>
      <trkpt lat="43.9014" lon="4.70125">
        <ele>18.74</ele>
        <time>2019-05-29T12:55:58.000Z</time>
      </trkpt>
      <trkpt lat="43.90144" lon="4.70111">
        <ele>18.51</ele>
        <time>2019-05-29T12:56:03.000Z</time>
      </trkpt>
      <trkpt lat="43.90143" lon="4.70095">
        <ele>19.5</ele>
        <time>2019-05-29T12:56:08.000Z</time>
      </trkpt>
      <trkpt lat="43.90137" lon="4.70077">
        <ele>19.74</ele>
        <time>2019-05-29T12:56:13.000Z</time>
      </trkpt>
      <trkpt lat="43.90128" lon="4.70059">
        <ele>18.76</ele>
        <time>2019-05-29T12:56:18.000Z</time>
      </trkpt>
      <trkpt lat="43.90128" lon="4.70036">
        <ele>18.76</ele>
        <time>2019-05-29T12:56:23.000Z</time>
      </trkpt>
      <trkpt lat="43.90117" lon="4.7002">
        <ele>19.75</ele>
        <time>2019-05-29T12:56:28.000Z</time>
      </trkpt>
      <trkpt lat="43.9012" lon="4.70008">
        <ele>19.76</ele>
        <time>2019-05-29T12:56:33.000Z</time>
      </trkpt>
      <trkpt lat="43.90125" lon="4.69996">
        <ele>17.76</ele>
        <time>2019-05-29T12:56:38.000Z</time>
      </trkpt>
      <trkpt lat="43.90113" lon="4.69976">
        <ele>18.76</ele>
        <time>2019-05-29T12:56:43.000Z</time>
      </trkpt>
      <trkpt lat="43.90107" lon="4.6995">
        <ele>18.76</ele>
        <time>2019-05-29T12:56:48.000Z</time>
      </trkpt>
      <trkpt lat="43.90111" lon="4.69929">
        <ele>18.76</ele>
        <time>2019-05-29T12:56:53.000Z</time>
      </trkpt>
      <trkpt lat="43.90095" lon="4.69909">
        <ele>19.51</ele>
        <time>2019-05-29T12:56:58.000Z</time>
      </trkpt>
      <trkpt lat="43.90083" lon="4.69883">
        <ele>19.01</ele>
        <time>2019-05-29T12:57:03.000Z</time>
      </trkpt>
      <trkpt lat="43.90062" lon="4.69855">
        <ele>19.76</ele>
        <time>2019-05-29T12:57:08.000Z</time>
      </trkpt>
      <trkpt lat="43.90037" lon="4.69843">
        <ele>19.76</ele>
        <time>2019-05-29T12:57:13.000Z</time>
      </trkpt>
      <trkpt lat="43.90022" lon="4.69818">
        <ele>18.01</ele>
        <time>2019-05-29T12:57:18.000Z</time>
      </trkpt>
      <trkpt lat="43.9001" lon="4.69785">
        <ele>18.76</ele>
        <time>2019-05-29T12:57:23.000Z</time>
      </trkpt>
      <trkpt lat="43.89995" lon="4.69759">
        <ele>17.77</ele>
        <time>2019-05-29T12:57:28.000Z</time>
      </trkpt>
      <trkpt lat="43.89973" lon="4.69736">
        <ele>16.76</ele>
        <time>2019-05-29T12:57:33.000Z</time>
      </trkpt>
      <trkpt lat="43.89953" lon="4.6971">
        <ele>14.77</ele>
        <time>2019-05-29T12:57:38.000Z</time>
      </trkpt>
      <trkpt lat="43.89939" lon="4.69677">
        <ele>15.76</ele>
        <time>2019-05-29T12:57:43.000Z</time>
      </trkpt>
      <trkpt lat="43.89935" lon="4.69653">
        <ele>17.01</ele>
        <time>2019-05-29T12:57:48.000Z</time>
      </trkpt>
      <trkpt lat="43.89938" lon="4.69632">
        <ele>17.76</ele>
        <time>2019-05-29T12:57:53.000Z</time>
      </trkpt>
      <trkpt lat="43.89948" lon="4.69616">
        <ele>18.26</ele>
        <time>2019-05-29T12:57:58.000Z</time>
      </trkpt>
      <trkpt lat="43.89939" lon="4.69604">
        <ele>19.51</ele>
        <time>2019-05-29T12:58:03.000Z</time>
      </trkpt>
      <trkpt lat="43.89931" lon="4.69591">
        <ele>22.74</ele>
        <time>2019-05-29T12:58:08.000Z</time>
      </trkpt>
      <trkpt lat="43.89923" lon="4.69576">
        <ele>23.51</ele>
        <time>2019-05-29T12:58:13.000Z</time>
      </trkpt>
      <trkpt lat="43.89913" lon="4.69561">
        <ele>23.76</ele>
        <time>2019-05-29T12:58:18.000Z</time>
      </trkpt>
      <trkpt lat="43.89905" lon="4.69543">
        <ele>24.76</ele>
        <time>2019-05-29T12:58:23.000Z</time>
      </trkpt>
      <trkpt lat="43.89895" lon="4.69521">
        <ele>24.76</ele>
        <time>2019-05-29T12:58:28.000Z</time>
      </trkpt>
      <trkpt lat="43.89886" lon="4.695">
        <ele>24.76</ele>
        <time>2019-05-29T12:58:33.000Z</time>
      </trkpt>
      <trkpt lat="43.89877" lon="4.69482">
        <ele>23.76</ele>
        <time>2019-05-29T12:58:38.000Z</time>
      </trkpt>
      <trkpt lat="43.89871" lon="4.69466">
        <ele>24.76</ele>
        <time>2019-05-29T12:58:43.000Z</time>
      </trkpt>
      <trkpt lat="43.89861" lon="4.69443">
        <ele>23.77</ele>
        <time>2019-05-29T12:58:48.000Z</time>
      </trkpt>
      <trkpt lat="43.89856" lon="4.6943">
        <ele>20.77</ele>
        <time>2019-05-29T13:03:58.000Z</time>
      </trkpt>
      <trkpt lat="43.89846" lon="4.69411">
        <ele>20.76</ele>
        <time>2019-05-29T13:04:03.000Z</time>
      </trkpt>
      <trkpt lat="43.89834" lon="4.69386">
        <ele>20.76</ele>
        <time>2019-05-29T13:04:08.000Z</time>
      </trkpt>
      <trkpt lat="43.89821" lon="4.69359">
        <ele>21.01</ele>
        <time>2019-05-29T13:04:13.000Z</time>
      </trkpt>
      <trkpt lat="43.89808" lon="4.69333">
        <ele>21.76</ele>
        <time>2019-05-29T13:04:18.000Z</time>
      </trkpt>
      <trkpt lat="43.89796" lon="4.69303">
        <ele>21.74</ele>
        <time>2019-05-29T13:04:23.000Z</time>
      </trkpt>
      <trkpt lat="43.89782" lon="4.69265">
        <ele>20.01</ele>
        <time>2019-05-29T13:04:28.000Z</time>
      </trkpt>
      <trkpt lat="43.89763" lon="4.69219">
        <ele>17.77</ele>
        <time>2019-05-29T13:04:33.000Z</time>
      </trkpt>
      <trkpt lat="43.89746" lon="4.69175">
        <ele>16.76</ele>
        <time>2019-05-29T13:04:38.000Z</time>
      </trkpt>
      <trkpt lat="43.89728" lon="4.69136">
        <ele>16.76</ele>
        <time>2019-05-29T13:04:43.000Z</time>
      </trkpt>
      <trkpt lat="43.89712" lon="4.69104">
        <ele>16.76</ele>
        <time>2019-05-29T13:04:48.000Z</time>
      </trkpt>
      <trkpt lat="43.89697" lon="4.69068">
        <ele>15.99</ele>
        <time>2019-05-29T13:04:53.000Z</time>
      </trkpt>
      <trkpt lat="43.89682" lon="4.69035">
        <ele>14.77</ele>
        <time>2019-05-29T13:04:58.000Z</time>
      </trkpt>
      <trkpt lat="43.89672" lon="4.69009">
        <ele>15.01</ele>
        <time>2019-05-29T13:05:03.000Z</time>
      </trkpt>
      <trkpt lat="43.89666" lon="4.68999">
        <ele>14.76</ele>
        <time>2019-05-29T13:05:08.000Z</time>
      </trkpt>
      <trkpt lat="43.89655" lon="4.69009">
        <ele>15.76</ele>
        <time>2019-05-29T13:05:13.000Z</time>
      </trkpt>
      <trkpt lat="43.89637" lon="4.69023">
        <ele>14.76</ele>
        <time>2019-05-29T13:05:18.000Z</time>
      </trkpt>
      <trkpt lat="43.89616" lon="4.69027">
        <ele>14.77</ele>
        <time>2019-05-29T13:05:23.000Z</time>
      </trkpt>
      <trkpt lat="43.89597" lon="4.69034">
        <ele>13.01</ele>
        <time>2019-05-29T13:05:28.000Z</time>
      </trkpt>
      <trkpt lat="43.89578" lon="4.69056">
        <ele>12.76</ele>
        <time>2019-05-29T13:05:33.000Z</time>
      </trkpt>
      <trkpt lat="43.89557" lon="4.6908">
        <ele>13.76</ele>
        <time>2019-05-29T13:05:38.000Z</time>
      </trkpt>
      <trkpt lat="43.89537" lon="4.691">
        <ele>14.77</ele>
        <time>2019-05-29T13:05:43.000Z</time>
      </trkpt>
      <trkpt lat="43.89515" lon="4.69121">
        <ele>14.76</ele>
        <time>2019-05-29T13:05:48.000Z</time>
      </trkpt>
      <trkpt lat="43.89492" lon="4.69115">
        <ele>13.76</ele>
        <time>2019-05-29T13:05:53.000Z</time>
      </trkpt>
      <trkpt lat="43.89469" lon="4.69093">
        <ele>11.77</ele>
        <time>2019-05-29T13:05:58.000Z</time>
      </trkpt>
      <trkpt lat="43.89444" lon="4.69067">
        <ele>10.76</ele>
        <time>2019-05-29T13:06:03.000Z</time>
      </trkpt>
      <trkpt lat="43.89419" lon="4.69041">
        <ele>11.76</ele>
        <time>2019-05-29T13:06:08.000Z</time>
      </trkpt>
      <trkpt lat="43.8939" lon="4.69017">
        <ele>12.01</ele>
        <time>2019-05-29T13:06:13.000Z</time>
      </trkpt>
      <trkpt lat="43.89361" lon="4.68992">
        <ele>12.74</ele>
        <time>2019-05-29T13:06:18.000Z</time>
      </trkpt>
      <trkpt lat="43.89333" lon="4.68967">
        <ele>11.01</ele>
        <time>2019-05-29T13:06:23.000Z</time>
      </trkpt>
      <trkpt lat="43.89312" lon="4.68946">
        <ele>10.76</ele>
        <time>2019-05-29T13:06:28.000Z</time>
      </trkpt>
      <trkpt lat="43.89292" lon="4.68931">
        <ele>9.76</ele>
        <time>2019-05-29T13:06:33.000Z</time>
      </trkpt>
      <trkpt lat="43.89269" lon="4.68913">
        <ele>10.74</ele>
        <time>2019-05-29T13:06:38.000Z</time>
      </trkpt>
      <trkpt lat="43.89243" lon="4.68893">
        <ele>11.76</ele>
        <time>2019-05-29T13:06:43.000Z</time>
      </trkpt>
      <trkpt lat="43.89218" lon="4.68871">
        <ele>11.76</ele>
        <time>2019-05-29T13:06:48.000Z</time>
      </trkpt>
      <trkpt lat="43.8919" lon="4.6885">
        <ele>10.03</ele>
        <time>2019-05-29T13:06:53.000Z</time>
      </trkpt>
      <trkpt lat="43.89163" lon="4.68829">
        <ele>10.51</ele>
        <time>2019-05-29T13:06:58.000Z</time>
      </trkpt>
      <trkpt lat="43.89136" lon="4.6881">
        <ele>9.01</ele>
        <time>2019-05-29T13:07:03.000Z</time>
      </trkpt>
      <trkpt lat="43.89109" lon="4.68789">
        <ele>8.76</ele>
        <time>2019-05-29T13:07:08.000Z</time>
      </trkpt>
      <trkpt lat="43.89082" lon="4.68771">
        <ele>8.78</ele>
        <time>2019-05-29T13:07:13.000Z</time>
      </trkpt>
      <trkpt lat="43.89056" lon="4.68751">
        <ele>8.76</ele>
        <time>2019-05-29T13:07:18.000Z</time>
      </trkpt>
      <trkpt lat="43.89031" lon="4.68731">
        <ele>8.76</ele>
        <time>2019-05-29T13:07:23.000Z</time>
      </trkpt>
      <trkpt lat="43.89007" lon="4.68712">
        <ele>9.76</ele>
        <time>2019-05-29T13:07:28.000Z</time>
      </trkpt>
      <trkpt lat="43.88985" lon="4.68696">
        <ele>9.76</ele>
        <time>2019-05-29T13:07:33.000Z</time>
      </trkpt>
      <trkpt lat="43.8897" lon="4.68683">
        <ele>10.51</ele>
        <time>2019-05-29T13:07:38.000Z</time>
      </trkpt>
      <trkpt lat="43.88951" lon="4.68669">
        <ele>11.75</ele>
        <time>2019-05-29T13:07:43.000Z</time>
      </trkpt>
      <trkpt lat="43.8893" lon="4.68652">
        <ele>10.78</ele>
        <time>2019-05-29T13:07:48.000Z</time>
      </trkpt>
      <trkpt lat="43.88913" lon="4.68633">
        <ele>11.75</ele>
        <time>2019-05-29T13:07:53.000Z</time>
      </trkpt>
      <trkpt lat="43.88897" lon="4.6862">
        <ele>12.51</ele>
        <time>2019-05-29T13:07:58.000Z</time>
      </trkpt>
      <trkpt lat="43.88877" lon="4.68602">
        <ele>11.76</ele>
        <time>2019-05-29T13:08:03.000Z</time>
      </trkpt>
      <trkpt lat="43.88856" lon="4.68585">
        <ele>12.76</ele>
        <time>2019-05-29T13:08:08.000Z</time>
      </trkpt>
      <trkpt lat="43.88838" lon="4.68561">
        <ele>13.76</ele>
        <time>2019-05-29T13:08:13.000Z</time>
      </trkpt>
      <trkpt lat="43.88819" lon="4.68538">
        <ele>13.01</ele>
        <time>2019-05-29T13:08:18.000Z</time>
      </trkpt>
      <trkpt lat="43.888" lon="4.68515">
        <ele>13.76</ele>
        <time>2019-05-29T13:08:23.000Z</time>
      </trkpt>
      <trkpt lat="43.88783" lon="4.68491">
        <ele>14.75</ele>
        <time>2019-05-29T13:08:28.000Z</time>
      </trkpt>
      <trkpt lat="43.88766" lon="4.68468">
        <ele>16.51</ele>
        <time>2019-05-29T13:08:33.000Z</time>
      </trkpt>
      <trkpt lat="43.88748" lon="4.68445">
        <ele>17.01</ele>
        <time>2019-05-29T13:08:38.000Z</time>
      </trkpt>
      <trkpt lat="43.8873" lon="4.68421">
        <ele>16.76</ele>
        <time>2019-05-29T13:08:43.000Z</time>
      </trkpt>
      <trkpt lat="43.88713" lon="4.68395">
        <ele>16.76</ele>
        <time>2019-05-29T13:08:48.000Z</time>
      </trkpt>
      <trkpt lat="43.88696" lon="4.68364">
        <ele>15.76</ele>
        <time>2019-05-29T13:08:53.000Z</time>
      </trkpt>
      <trkpt lat="43.88678" lon="4.68335">
        <ele>14.01</ele>
        <time>2019-05-29T13:08:58.000Z</time>
      </trkpt>
      <trkpt lat="43.88662" lon="4.68304">
        <ele>16.51</ele>
        <time>2019-05-29T13:09:03.000Z</time>
      </trkpt>
      <trkpt lat="43.88646" lon="4.68272">
        <ele>15.78</ele>
        <time>2019-05-29T13:09:08.000Z</time>
      </trkpt>
      <trkpt lat="43.8863" lon="4.68239">
        <ele>14.76</ele>
        <time>2019-05-29T13:09:13.000Z</time>
      </trkpt>
      <trkpt lat="43.88615" lon="4.68207">
        <ele>14.51</ele>
        <time>2019-05-29T13:09:18.000Z</time>
      </trkpt>
      <trkpt lat="43.88613" lon="4.68179">
        <ele>13.76</ele>
        <time>2019-05-29T13:09:23.000Z</time>
      </trkpt>
      <trkpt lat="43.8862" lon="4.68191">
        <ele>14.76</ele>
        <time>2019-05-29T13:09:33.000Z</time>
      </trkpt>
      <trkpt lat="43.88639" lon="4.68189">
        <ele>15.76</ele>
        <time>2019-05-29T13:09:38.000Z</time>
      </trkpt>
      <trkpt lat="43.88658" lon="4.68186">
        <ele>15.75</ele>
        <time>2019-05-29T13:09:43.000Z</time>
      </trkpt>
      <trkpt lat="43.88678" lon="4.68184">
        <ele>14.76</ele>
        <time>2019-05-29T13:09:48.000Z</time>
      </trkpt>
      <trkpt lat="43.88696" lon="4.68179">
        <ele>15.76</ele>
        <time>2019-05-29T13:09:53.000Z</time>
      </trkpt>
      <trkpt lat="43.88713" lon="4.68175">
        <ele>14.76</ele>
        <time>2019-05-29T13:09:58.000Z</time>
      </trkpt>
      <trkpt lat="43.88728" lon="4.68174">
        <ele>14.99</ele>
        <time>2019-05-29T13:10:03.000Z</time>
      </trkpt>
      <trkpt lat="43.88742" lon="4.68172">
        <ele>15.53</ele>
        <time>2019-05-29T13:10:08.000Z</time>
      </trkpt>
      <trkpt lat="43.88756" lon="4.68159">
        <ele>16.01</ele>
        <time>2019-05-29T13:10:13.000Z</time>
      </trkpt>
      <trkpt lat="43.88769" lon="4.68145">
        <ele>18.51</ele>
        <time>2019-05-29T13:10:18.000Z</time>
      </trkpt>
      <trkpt lat="43.88779" lon="4.68128">
        <ele>18</ele>
        <time>2019-05-29T13:10:23.000Z</time>
      </trkpt>
      <trkpt lat="43.88793" lon="4.68115">
        <ele>17.76</ele>
        <time>2019-05-29T13:10:28.000Z</time>
      </trkpt>
      <trkpt lat="43.8881" lon="4.68112">
        <ele>16.76</ele>
        <time>2019-05-29T13:10:33.000Z</time>
      </trkpt>
      <trkpt lat="43.88824" lon="4.68105">
        <ele>16.76</ele>
        <time>2019-05-29T13:10:38.000Z</time>
      </trkpt>
      <trkpt lat="43.88834" lon="4.68095">
        <ele>16.76</ele>
        <time>2019-05-29T13:10:43.000Z</time>
      </trkpt>
      <trkpt lat="43.88839" lon="4.68077">
        <ele>15.76</ele>
        <time>2019-05-29T13:10:48.000Z</time>
      </trkpt>
      <trkpt lat="43.8884" lon="4.68055">
        <ele>15.51</ele>
        <time>2019-05-29T13:10:53.000Z</time>
      </trkpt>
      <trkpt lat="43.8884" lon="4.68029">
        <ele>15.76</ele>
        <time>2019-05-29T13:10:58.000Z</time>
      </trkpt>
      <trkpt lat="43.88845" lon="4.68006">
        <ele>15.76</ele>
        <time>2019-05-29T13:11:03.000Z</time>
      </trkpt>
      <trkpt lat="43.88846" lon="4.67992">
        <ele>15.53</ele>
        <time>2019-05-29T13:11:08.000Z</time>
      </trkpt>
      <trkpt lat="43.88855" lon="4.67987">
        <ele>16.78</ele>
        <time>2019-05-29T13:11:25.000Z</time>
      </trkpt>
      <trkpt lat="43.8887" lon="4.67986">
        <ele>16.76</ele>
        <time>2019-05-29T13:11:30.000Z</time>
      </trkpt>
      <trkpt lat="43.88888" lon="4.67996">
        <ele>16.76</ele>
        <time>2019-05-29T13:11:35.000Z</time>
      </trkpt>
      <trkpt lat="43.88903" lon="4.68014">
        <ele>16.76</ele>
        <time>2019-05-29T13:11:40.000Z</time>
      </trkpt>
      <trkpt lat="43.88914" lon="4.68029">
        <ele>16.76</ele>
        <time>2019-05-29T13:11:45.000Z</time>
      </trkpt>
      <trkpt lat="43.88929" lon="4.68026">
        <ele>16.76</ele>
        <time>2019-05-29T13:11:50.000Z</time>
      </trkpt>
      <trkpt lat="43.88939" lon="4.6802">
        <ele>15.76</ele>
        <time>2019-05-29T13:12:00.000Z</time>
      </trkpt>
      <trkpt lat="43.88956" lon="4.68013">
        <ele>13.01</ele>
        <time>2019-05-29T13:12:05.000Z</time>
      </trkpt>
      <trkpt lat="43.88969" lon="4.68017">
        <ele>12.51</ele>
        <time>2019-05-29T13:12:10.000Z</time>
      </trkpt>
      <trkpt lat="43.88983" lon="4.6802">
        <ele>13.78</ele>
        <time>2019-05-29T13:12:15.000Z</time>
      </trkpt>
      <trkpt lat="43.88998" lon="4.68018">
        <ele>13.76</ele>
        <time>2019-05-29T13:12:20.000Z</time>
      </trkpt>
      <trkpt lat="43.89013" lon="4.68019">
        <ele>15.52</ele>
        <time>2019-05-29T13:12:25.000Z</time>
      </trkpt>
      <trkpt lat="43.89032" lon="4.68019">
        <ele>15.01</ele>
        <time>2019-05-29T13:12:30.000Z</time>
      </trkpt>
      <trkpt lat="43.89052" lon="4.68017">
        <ele>13.76</ele>
        <time>2019-05-29T13:12:35.000Z</time>
      </trkpt>
      <trkpt lat="43.89071" lon="4.68018">
        <ele>14.74</ele>
        <time>2019-05-29T13:12:40.000Z</time>
      </trkpt>
      <trkpt lat="43.89089" lon="4.68022">
        <ele>16.52</ele>
        <time>2019-05-29T13:12:45.000Z</time>
      </trkpt>
      <trkpt lat="43.89105" lon="4.6803">
        <ele>12.54</ele>
        <time>2019-05-29T13:12:50.000Z</time>
      </trkpt>
      <trkpt lat="43.89114" lon="4.68045">
        <ele>11.02</ele>
        <time>2019-05-29T13:12:55.000Z</time>
      </trkpt>
      <trkpt lat="43.89115" lon="4.68066">
        <ele>10.77</ele>
        <time>2019-05-29T13:13:00.000Z</time>
      </trkpt>
      <trkpt lat="43.89117" lon="4.68084">
        <ele>13.76</ele>
        <time>2019-05-29T13:13:05.000Z</time>
      </trkpt>
      <trkpt lat="43.89119" lon="4.68103">
        <ele>13.01</ele>
        <time>2019-05-29T13:13:10.000Z</time>
      </trkpt>
      <trkpt lat="43.8912" lon="4.68119">
        <ele>13.76</ele>
        <time>2019-05-29T13:13:15.000Z</time>
      </trkpt>
      <trkpt lat="43.89122" lon="4.68106">
        <ele>19.74</ele>
        <time>2019-05-29T13:13:44.000Z</time>
      </trkpt>
      <trkpt lat="43.89117" lon="4.68095">
        <ele>21.49</ele>
        <time>2019-05-29T13:14:25.000Z</time>
      </trkpt>
      <trkpt lat="43.89114" lon="4.68082">
        <ele>15.03</ele>
        <time>2019-05-29T13:14:31.000Z</time>
      </trkpt>
      <trkpt lat="43.89103" lon="4.68084">
        <ele>12.01</ele>
        <time>2019-05-29T13:14:36.000Z</time>
      </trkpt>
      <trkpt lat="43.89093" lon="4.68085">
        <ele>13.74</ele>
        <time>2019-05-29T13:14:44.000Z</time>
      </trkpt>
      <trkpt lat="43.89081" lon="4.68086">
        <ele>17.2</ele>
        <time>2019-05-29T13:14:49.000Z</time>
      </trkpt>
      <trkpt lat="43.8907" lon="4.68087">
        <ele>16.76</ele>
        <time>2019-05-29T13:14:54.000Z</time>
      </trkpt>
      <trkpt lat="43.89058" lon="4.68086">
        <ele>17.49</ele>
        <time>2019-05-29T13:14:59.000Z</time>
      </trkpt>
      <trkpt lat="43.89061" lon="4.68069">
        <ele>18.76</ele>
        <time>2019-05-29T13:15:06.000Z</time>
      </trkpt>
      <trkpt lat="43.89065" lon="4.68049">
        <ele>17.77</ele>
        <time>2019-05-29T13:15:11.000Z</time>
      </trkpt>
      <trkpt lat="43.89055" lon="4.68036">
        <ele>17.01</ele>
        <time>2019-05-29T13:15:16.000Z</time>
      </trkpt>
      <trkpt lat="43.89039" lon="4.68035">
        <ele>16.26</ele>
        <time>2019-05-29T13:15:21.000Z</time>
      </trkpt>
      <trkpt lat="43.89024" lon="4.68038">
        <ele>15.51</ele>
        <time>2019-05-29T13:15:26.000Z</time>
      </trkpt>
      <trkpt lat="43.89006" lon="4.68037">
        <ele>17.77</ele>
        <time>2019-05-29T13:15:31.000Z</time>
      </trkpt>
      <trkpt lat="43.88997" lon="4.68031">
        <ele>15.78</ele>
        <time>2019-05-29T13:15:36.000Z</time>
      </trkpt>
      <trkpt lat="43.88999" lon="4.68019">
        <ele>20.46</ele>
        <time>2019-05-29T13:15:43.000Z</time>
      </trkpt>
      <trkpt lat="43.89008" lon="4.68014">
        <ele>15.24</ele>
        <time>2019-05-29T13:18:58.000Z</time>
      </trkpt>
      <trkpt lat="43.8902" lon="4.68017">
        <ele>15.51</ele>
        <time>2019-05-29T13:19:03.000Z</time>
      </trkpt>
      <trkpt lat="43.89037" lon="4.68021">
        <ele>15.51</ele>
        <time>2019-05-29T13:19:08.000Z</time>
      </trkpt>
      <trkpt lat="43.89055" lon="4.68023">
        <ele>13.78</ele>
        <time>2019-05-29T13:19:13.000Z</time>
      </trkpt>
      <trkpt lat="43.89073" lon="4.68024">
        <ele>14.76</ele>
        <time>2019-05-29T13:19:18.000Z</time>
      </trkpt>
      <trkpt lat="43.89094" lon="4.68028">
        <ele>12.26</ele>
        <time>2019-05-29T13:19:23.000Z</time>
      </trkpt>
      <trkpt lat="43.89108" lon="4.68033">
        <ele>13.49</ele>
        <time>2019-05-29T13:19:28.000Z</time>
      </trkpt>
      <trkpt lat="43.89116" lon="4.68017">
        <ele>12.99</ele>
        <time>2019-05-29T13:19:33.000Z</time>
      </trkpt>
      <trkpt lat="43.89112" lon="4.67988">
        <ele>11.99</ele>
        <time>2019-05-29T13:19:38.000Z</time>
      </trkpt>
      <trkpt lat="43.89107" lon="4.67953">
        <ele>12.27</ele>
        <time>2019-05-29T13:19:43.000Z</time>
      </trkpt>
      <trkpt lat="43.89105" lon="4.67925">
        <ele>10.76</ele>
        <time>2019-05-29T13:19:48.000Z</time>
      </trkpt>
      <trkpt lat="43.89102" lon="4.67894">
        <ele>12.74</ele>
        <time>2019-05-29T13:19:53.000Z</time>
      </trkpt>
      <trkpt lat="43.891" lon="4.67866">
        <ele>13.51</ele>
        <time>2019-05-29T13:19:58.000Z</time>
      </trkpt>
      <trkpt lat="43.89096" lon="4.67835">
        <ele>13.76</ele>
        <time>2019-05-29T13:20:03.000Z</time>
      </trkpt>
      <trkpt lat="43.89085" lon="4.67805">
        <ele>13.76</ele>
        <time>2019-05-29T13:20:08.000Z</time>
      </trkpt>
      <trkpt lat="43.89071" lon="4.6778">
        <ele>13.51</ele>
        <time>2019-05-29T13:20:13.000Z</time>
      </trkpt>
      <trkpt lat="43.89055" lon="4.67756">
        <ele>13.76</ele>
        <time>2019-05-29T13:20:18.000Z</time>
      </trkpt>
      <trkpt lat="43.89038" lon="4.67732">
        <ele>13.76</ele>
        <time>2019-05-29T13:20:23.000Z</time>
      </trkpt>
      <trkpt lat="43.8902" lon="4.67708">
        <ele>12.76</ele>
        <time>2019-05-29T13:20:28.000Z</time>
      </trkpt>
      <trkpt lat="43.89002" lon="4.67683">
        <ele>12.76</ele>
        <time>2019-05-29T13:20:33.000Z</time>
      </trkpt>
      <trkpt lat="43.88985" lon="4.67657">
        <ele>13.51</ele>
        <time>2019-05-29T13:20:38.000Z</time>
      </trkpt>
      <trkpt lat="43.88976" lon="4.67635">
        <ele>14.51</ele>
        <time>2019-05-29T13:20:43.000Z</time>
      </trkpt>
      <trkpt lat="43.88982" lon="4.67608">
        <ele>13.76</ele>
        <time>2019-05-29T13:20:48.000Z</time>
      </trkpt>
      <trkpt lat="43.88987" lon="4.67577">
        <ele>13.76</ele>
        <time>2019-05-29T13:20:53.000Z</time>
      </trkpt>
      <trkpt lat="43.88988" lon="4.67544">
        <ele>13.76</ele>
        <time>2019-05-29T13:20:58.000Z</time>
      </trkpt>
      <trkpt lat="43.88988" lon="4.67508">
        <ele>14.76</ele>
        <time>2019-05-29T13:21:03.000Z</time>
      </trkpt>
      <trkpt lat="43.88987" lon="4.67474">
        <ele>13.76</ele>
        <time>2019-05-29T13:21:08.000Z</time>
      </trkpt>
      <trkpt lat="43.88986" lon="4.67436">
        <ele>13.74</ele>
        <time>2019-05-29T13:21:13.000Z</time>
      </trkpt>
      <trkpt lat="43.88987" lon="4.674">
        <ele>14.01</ele>
        <time>2019-05-29T13:21:18.000Z</time>
      </trkpt>
      <trkpt lat="43.88985" lon="4.67363">
        <ele>13.76</ele>
        <time>2019-05-29T13:21:23.000Z</time>
      </trkpt>
      <trkpt lat="43.88984" lon="4.67325">
        <ele>14.76</ele>
        <time>2019-05-29T13:21:28.000Z</time>
      </trkpt>
      <trkpt lat="43.88986" lon="4.67286">
        <ele>14.01</ele>
        <time>2019-05-29T13:21:33.000Z</time>
      </trkpt>
      <trkpt lat="43.88991" lon="4.6725">
        <ele>13.77</ele>
        <time>2019-05-29T13:21:38.000Z</time>
      </trkpt>
      <trkpt lat="43.88997" lon="4.67218">
        <ele>13.77</ele>
        <time>2019-05-29T13:21:43.000Z</time>
      </trkpt>
      <trkpt lat="43.89" lon="4.67187">
        <ele>13.51</ele>
        <time>2019-05-29T13:21:48.000Z</time>
      </trkpt>
      <trkpt lat="43.89004" lon="4.67157">
        <ele>13.76</ele>
        <time>2019-05-29T13:21:53.000Z</time>
      </trkpt>
      <trkpt lat="43.8901" lon="4.67124">
        <ele>14.76</ele>
        <time>2019-05-29T13:21:58.000Z</time>
      </trkpt>
      <trkpt lat="43.89014" lon="4.67091">
        <ele>14.76</ele>
        <time>2019-05-29T13:22:03.000Z</time>
      </trkpt>
      <trkpt lat="43.89018" lon="4.67055">
        <ele>16.74</ele>
        <time>2019-05-29T13:22:08.000Z</time>
      </trkpt>
      <trkpt lat="43.89023" lon="4.67018">
        <ele>16.76</ele>
        <time>2019-05-29T13:22:13.000Z</time>
      </trkpt>
      <trkpt lat="43.89026" lon="4.66981">
        <ele>16.51</ele>
        <time>2019-05-29T13:22:18.000Z</time>
      </trkpt>
      <trkpt lat="43.89027" lon="4.66944">
        <ele>14.77</ele>
        <time>2019-05-29T13:22:23.000Z</time>
      </trkpt>
      <trkpt lat="43.89026" lon="4.66909">
        <ele>14.76</ele>
        <time>2019-05-29T13:22:28.000Z</time>
      </trkpt>
      <trkpt lat="43.89026" lon="4.66872">
        <ele>13.99</ele>
        <time>2019-05-29T13:22:33.000Z</time>
      </trkpt>
      <trkpt lat="43.89026" lon="4.66834">
        <ele>13.76</ele>
        <time>2019-05-29T13:22:38.000Z</time>
      </trkpt>
      <trkpt lat="43.8903" lon="4.66798">
        <ele>12.76</ele>
        <time>2019-05-29T13:22:43.000Z</time>
      </trkpt>
      <trkpt lat="43.89037" lon="4.66763">
        <ele>13.76</ele>
        <time>2019-05-29T13:22:48.000Z</time>
      </trkpt>
      <trkpt lat="43.89041" lon="4.6673">
        <ele>14.76</ele>
        <time>2019-05-29T13:22:53.000Z</time>
      </trkpt>
      <trkpt lat="43.89045" lon="4.66702">
        <ele>14.76</ele>
        <time>2019-05-29T13:22:58.000Z</time>
      </trkpt>
      <trkpt lat="43.89047" lon="4.66681">
        <ele>15.76</ele>
        <time>2019-05-29T13:23:03.000Z</time>
      </trkpt>
      <trkpt lat="43.8905" lon="4.66654">
        <ele>13.76</ele>
        <time>2019-05-29T13:23:08.000Z</time>
      </trkpt>
      <trkpt lat="43.89052" lon="4.6662">
        <ele>14.74</ele>
        <time>2019-05-29T13:23:13.000Z</time>
      </trkpt>
      <trkpt lat="43.89054" lon="4.66584">
        <ele>13.77</ele>
        <time>2019-05-29T13:23:18.000Z</time>
      </trkpt>
      <trkpt lat="43.89055" lon="4.66547">
        <ele>13.74</ele>
        <time>2019-05-29T13:23:23.000Z</time>
      </trkpt>
      <trkpt lat="43.89057" lon="4.66511">
        <ele>13.76</ele>
        <time>2019-05-29T13:23:28.000Z</time>
      </trkpt>
      <trkpt lat="43.89061" lon="4.66475">
        <ele>13.76</ele>
        <time>2019-05-29T13:23:33.000Z</time>
      </trkpt>
      <trkpt lat="43.89065" lon="4.66442">
        <ele>14.76</ele>
        <time>2019-05-29T13:23:38.000Z</time>
      </trkpt>
      <trkpt lat="43.8907" lon="4.66409">
        <ele>15.01</ele>
        <time>2019-05-29T13:23:43.000Z</time>
      </trkpt>
      <trkpt lat="43.89073" lon="4.66376">
        <ele>14.76</ele>
        <time>2019-05-29T13:23:48.000Z</time>
      </trkpt>
      <trkpt lat="43.89076" lon="4.66345">
        <ele>14.76</ele>
        <time>2019-05-29T13:23:53.000Z</time>
      </trkpt>
      <trkpt lat="43.89081" lon="4.66311">
        <ele>15.52</ele>
        <time>2019-05-29T13:23:58.000Z</time>
      </trkpt>
      <trkpt lat="43.89088" lon="4.66276">
        <ele>13.77</ele>
        <time>2019-05-29T13:24:03.000Z</time>
      </trkpt>
      <trkpt lat="43.89096" lon="4.66243">
        <ele>14.76</ele>
        <time>2019-05-29T13:24:08.000Z</time>
      </trkpt>
      <trkpt lat="43.89106" lon="4.66213">
        <ele>15.01</ele>
        <time>2019-05-29T13:24:13.000Z</time>
      </trkpt>
      <trkpt lat="43.89116" lon="4.6618">
        <ele>13.76</ele>
        <time>2019-05-29T13:24:18.000Z</time>
      </trkpt>
      <trkpt lat="43.89124" lon="4.66148">
        <ele>12.77</ele>
        <time>2019-05-29T13:24:23.000Z</time>
      </trkpt>
      <trkpt lat="43.89132" lon="4.66119">
        <ele>13.75</ele>
        <time>2019-05-29T13:24:28.000Z</time>
      </trkpt>
      <trkpt lat="43.89137" lon="4.66086">
        <ele>13.74</ele>
        <time>2019-05-29T13:24:33.000Z</time>
      </trkpt>
      <trkpt lat="43.89139" lon="4.66056">
        <ele>13.76</ele>
        <time>2019-05-29T13:24:38.000Z</time>
      </trkpt>
      <trkpt lat="43.89138" lon="4.66023">
        <ele>13.75</ele>
        <time>2019-05-29T13:24:43.000Z</time>
      </trkpt>
      <trkpt lat="43.89138" lon="4.65992">
        <ele>14.76</ele>
        <time>2019-05-29T13:24:48.000Z</time>
      </trkpt>
      <trkpt lat="43.89138" lon="4.65958">
        <ele>13.77</ele>
        <time>2019-05-29T13:24:53.000Z</time>
      </trkpt>
      <trkpt lat="43.89137" lon="4.65921">
        <ele>13.76</ele>
        <time>2019-05-29T13:24:58.000Z</time>
      </trkpt>
      <trkpt lat="43.89134" lon="4.65884">
        <ele>13.76</ele>
        <time>2019-05-29T13:25:03.000Z</time>
      </trkpt>
      <trkpt lat="43.8913" lon="4.65846">
        <ele>13.76</ele>
        <time>2019-05-29T13:25:08.000Z</time>
      </trkpt>
      <trkpt lat="43.89125" lon="4.65809">
        <ele>12.77</ele>
        <time>2019-05-29T13:25:13.000Z</time>
      </trkpt>
      <trkpt lat="43.8912" lon="4.65775">
        <ele>12.01</ele>
        <time>2019-05-29T13:25:18.000Z</time>
      </trkpt>
      <trkpt lat="43.89115" lon="4.65747">
        <ele>12.74</ele>
        <time>2019-05-29T13:25:23.000Z</time>
      </trkpt>
      <trkpt lat="43.89109" lon="4.65717">
        <ele>11.76</ele>
        <time>2019-05-29T13:25:28.000Z</time>
      </trkpt>
      <trkpt lat="43.89105" lon="4.65685">
        <ele>11.76</ele>
        <time>2019-05-29T13:25:33.000Z</time>
      </trkpt>
      <trkpt lat="43.89104" lon="4.65649">
        <ele>12.76</ele>
        <time>2019-05-29T13:25:38.000Z</time>
      </trkpt>
      <trkpt lat="43.89107" lon="4.65615">
        <ele>11.77</ele>
        <time>2019-05-29T13:25:43.000Z</time>
      </trkpt>
      <trkpt lat="43.8911" lon="4.65581">
        <ele>11.76</ele>
        <time>2019-05-29T13:25:48.000Z</time>
      </trkpt>
      <trkpt lat="43.89113" lon="4.65548">
        <ele>12.51</ele>
        <time>2019-05-29T13:25:53.000Z</time>
      </trkpt>
      <trkpt lat="43.89115" lon="4.65514">
        <ele>13.75</ele>
        <time>2019-05-29T13:25:58.000Z</time>
      </trkpt>
      <trkpt lat="43.89118" lon="4.6548">
        <ele>13.75</ele>
        <time>2019-05-29T13:26:03.000Z</time>
      </trkpt>
      <trkpt lat="43.8912" lon="4.65447">
        <ele>13.75</ele>
        <time>2019-05-29T13:26:08.000Z</time>
      </trkpt>
      <trkpt lat="43.89122" lon="4.65415">
        <ele>12.77</ele>
        <time>2019-05-29T13:26:13.000Z</time>
      </trkpt>
      <trkpt lat="43.89125" lon="4.65382">
        <ele>13.75</ele>
        <time>2019-05-29T13:26:18.000Z</time>
      </trkpt>
      <trkpt lat="43.89127" lon="4.65349">
        <ele>13.74</ele>
        <time>2019-05-29T13:26:23.000Z</time>
      </trkpt>
      <trkpt lat="43.89128" lon="4.65313">
        <ele>12.76</ele>
        <time>2019-05-29T13:26:28.000Z</time>
      </trkpt>
      <trkpt lat="43.8913" lon="4.65279">
        <ele>12.75</ele>
        <time>2019-05-29T13:26:33.000Z</time>
      </trkpt>
      <trkpt lat="43.89133" lon="4.65247">
        <ele>12.75</ele>
        <time>2019-05-29T13:26:38.000Z</time>
      </trkpt>
      <trkpt lat="43.89136" lon="4.65219">
        <ele>11.77</ele>
        <time>2019-05-29T13:26:43.000Z</time>
      </trkpt>
      <trkpt lat="43.89142" lon="4.65193">
        <ele>11.77</ele>
        <time>2019-05-29T13:26:48.000Z</time>
      </trkpt>
      <trkpt lat="43.89148" lon="4.65166">
        <ele>11.75</ele>
        <time>2019-05-29T13:26:53.000Z</time>
      </trkpt>
      <trkpt lat="43.8915" lon="4.65139">
        <ele>11.75</ele>
        <time>2019-05-29T13:26:58.000Z</time>
      </trkpt>
      <trkpt lat="43.89152" lon="4.6511">
        <ele>10.77</ele>
        <time>2019-05-29T13:27:03.000Z</time>
      </trkpt>
      <trkpt lat="43.89153" lon="4.65082">
        <ele>9.77</ele>
        <time>2019-05-29T13:27:08.000Z</time>
      </trkpt>
      <trkpt lat="43.89154" lon="4.65054">
        <ele>9.75</ele>
        <time>2019-05-29T13:27:13.000Z</time>
      </trkpt>
      <trkpt lat="43.89156" lon="4.65026">
        <ele>9.5</ele>
        <time>2019-05-29T13:27:18.000Z</time>
      </trkpt>
      <trkpt lat="43.89159" lon="4.64998">
        <ele>10.74</ele>
        <time>2019-05-29T13:27:23.000Z</time>
      </trkpt>
      <trkpt lat="43.89162" lon="4.64973">
        <ele>12.75</ele>
        <time>2019-05-29T13:27:28.000Z</time>
      </trkpt>
      <trkpt lat="43.89162" lon="4.64952">
        <ele>12.75</ele>
        <time>2019-05-29T13:27:33.000Z</time>
      </trkpt>
      <trkpt lat="43.89161" lon="4.64929">
        <ele>12.75</ele>
        <time>2019-05-29T13:27:38.000Z</time>
      </trkpt>
      <trkpt lat="43.89159" lon="4.64905">
        <ele>11.75</ele>
        <time>2019-05-29T13:27:43.000Z</time>
      </trkpt>
      <trkpt lat="43.89154" lon="4.64879">
        <ele>12</ele>
        <time>2019-05-29T13:27:48.000Z</time>
      </trkpt>
      <trkpt lat="43.89145" lon="4.64851">
        <ele>12.75</ele>
        <time>2019-05-29T13:27:53.000Z</time>
      </trkpt>
      <trkpt lat="43.89134" lon="4.64823">
        <ele>12.75</ele>
        <time>2019-05-29T13:27:58.000Z</time>
      </trkpt>
      <trkpt lat="43.89127" lon="4.64788">
        <ele>12.75</ele>
        <time>2019-05-29T13:28:03.000Z</time>
      </trkpt>
      <trkpt lat="43.8912" lon="4.64754">
        <ele>13</ele>
        <time>2019-05-29T13:28:08.000Z</time>
      </trkpt>
      <trkpt lat="43.89112" lon="4.6472">
        <ele>13.5</ele>
        <time>2019-05-29T13:28:13.000Z</time>
      </trkpt>
      <trkpt lat="43.89103" lon="4.64686">
        <ele>12.75</ele>
        <time>2019-05-29T13:28:18.000Z</time>
      </trkpt>
      <trkpt lat="43.89094" lon="4.64652">
        <ele>12.75</ele>
        <time>2019-05-29T13:28:23.000Z</time>
      </trkpt>
      <trkpt lat="43.89086" lon="4.64619">
        <ele>11.77</ele>
        <time>2019-05-29T13:28:28.000Z</time>
      </trkpt>
      <trkpt lat="43.8908" lon="4.64584">
        <ele>11.75</ele>
        <time>2019-05-29T13:28:33.000Z</time>
      </trkpt>
      <trkpt lat="43.89075" lon="4.64551">
        <ele>11.75</ele>
        <time>2019-05-29T13:28:38.000Z</time>
      </trkpt>
      <trkpt lat="43.89069" lon="4.64518">
        <ele>12.75</ele>
        <time>2019-05-29T13:28:43.000Z</time>
      </trkpt>
      <trkpt lat="43.89062" lon="4.64487">
        <ele>12.75</ele>
        <time>2019-05-29T13:28:48.000Z</time>
      </trkpt>
      <trkpt lat="43.89054" lon="4.64458">
        <ele>13.75</ele>
        <time>2019-05-29T13:28:53.000Z</time>
      </trkpt>
      <trkpt lat="43.89047" lon="4.64427">
        <ele>13.75</ele>
        <time>2019-05-29T13:28:58.000Z</time>
      </trkpt>
      <trkpt lat="43.89039" lon="4.64399">
        <ele>12.75</ele>
        <time>2019-05-29T13:29:03.000Z</time>
      </trkpt>
      <trkpt lat="43.89034" lon="4.64369">
        <ele>12.75</ele>
        <time>2019-05-29T13:29:08.000Z</time>
      </trkpt>
      <trkpt lat="43.8903" lon="4.64338">
        <ele>12.75</ele>
        <time>2019-05-29T13:29:13.000Z</time>
      </trkpt>
      <trkpt lat="43.89028" lon="4.6431">
        <ele>12.75</ele>
        <time>2019-05-29T13:29:18.000Z</time>
      </trkpt>
      <trkpt lat="43.89025" lon="4.64285">
        <ele>12.75</ele>
        <time>2019-05-29T13:29:23.000Z</time>
      </trkpt>
      <trkpt lat="43.89022" lon="4.64259">
        <ele>12.75</ele>
        <time>2019-05-29T13:29:28.000Z</time>
      </trkpt>
      <trkpt lat="43.89017" lon="4.64232">
        <ele>12.75</ele>
        <time>2019-05-29T13:29:33.000Z</time>
      </trkpt>
      <trkpt lat="43.8901" lon="4.64204">
        <ele>12.75</ele>
        <time>2019-05-29T13:29:38.000Z</time>
      </trkpt>
      <trkpt lat="43.89002" lon="4.64178">
        <ele>12.75</ele>
        <time>2019-05-29T13:29:43.000Z</time>
      </trkpt>
      <trkpt lat="43.88992" lon="4.64152">
        <ele>11.75</ele>
        <time>2019-05-29T13:29:48.000Z</time>
      </trkpt>
      <trkpt lat="43.88983" lon="4.64121">
        <ele>12</ele>
        <time>2019-05-29T13:29:53.000Z</time>
      </trkpt>
      <trkpt lat="43.88975" lon="4.64087">
        <ele>12.5</ele>
        <time>2019-05-29T13:29:58.000Z</time>
      </trkpt>
      <trkpt lat="43.88974" lon="4.64054">
        <ele>12.75</ele>
        <time>2019-05-29T13:30:03.000Z</time>
      </trkpt>
      <trkpt lat="43.88977" lon="4.64025">
        <ele>13.75</ele>
        <time>2019-05-29T13:30:08.000Z</time>
      </trkpt>
      <trkpt lat="43.88979" lon="4.63999">
        <ele>13.75</ele>
        <time>2019-05-29T13:30:13.000Z</time>
      </trkpt>
      <trkpt lat="43.88979" lon="4.63969">
        <ele>14.99</ele>
        <time>2019-05-29T13:30:18.000Z</time>
      </trkpt>
      <trkpt lat="43.88981" lon="4.63935">
        <ele>13.77</ele>
        <time>2019-05-29T13:30:23.000Z</time>
      </trkpt>
      <trkpt lat="43.88982" lon="4.63902">
        <ele>13.99</ele>
        <time>2019-05-29T13:30:28.000Z</time>
      </trkpt>
      <trkpt lat="43.88981" lon="4.63869">
        <ele>13</ele>
        <time>2019-05-29T13:30:33.000Z</time>
      </trkpt>
      <trkpt lat="43.8898" lon="4.63832">
        <ele>12.74</ele>
        <time>2019-05-29T13:30:38.000Z</time>
      </trkpt>
      <trkpt lat="43.88978" lon="4.63795">
        <ele>12.02</ele>
        <time>2019-05-29T13:30:43.000Z</time>
      </trkpt>
      <trkpt lat="43.88976" lon="4.63761">
        <ele>14.5</ele>
        <time>2019-05-29T13:30:48.000Z</time>
      </trkpt>
      <trkpt lat="43.88972" lon="4.63726">
        <ele>14.75</ele>
        <time>2019-05-29T13:30:53.000Z</time>
      </trkpt>
      <trkpt lat="43.88969" lon="4.6369">
        <ele>13.77</ele>
        <time>2019-05-29T13:30:58.000Z</time>
      </trkpt>
      <trkpt lat="43.88964" lon="4.63657">
        <ele>13.75</ele>
        <time>2019-05-29T13:31:03.000Z</time>
      </trkpt>
      <trkpt lat="43.88957" lon="4.63627">
        <ele>13.5</ele>
        <time>2019-05-29T13:31:08.000Z</time>
      </trkpt>
      <trkpt lat="43.88948" lon="4.63595">
        <ele>12.75</ele>
        <time>2019-05-29T13:31:13.000Z</time>
      </trkpt>
      <trkpt lat="43.88941" lon="4.63558">
        <ele>12.74</ele>
        <time>2019-05-29T13:31:18.000Z</time>
      </trkpt>
      <trkpt lat="43.88936" lon="4.63524">
        <ele>12.75</ele>
        <time>2019-05-29T13:31:23.000Z</time>
      </trkpt>
      <trkpt lat="43.88931" lon="4.6349">
        <ele>12.74</ele>
        <time>2019-05-29T13:31:28.000Z</time>
      </trkpt>
      <trkpt lat="43.88927" lon="4.63457">
        <ele>12.75</ele>
        <time>2019-05-29T13:31:33.000Z</time>
      </trkpt>
      <trkpt lat="43.88927" lon="4.63425">
        <ele>12.75</ele>
        <time>2019-05-29T13:31:38.000Z</time>
      </trkpt>
      <trkpt lat="43.88926" lon="4.63393">
        <ele>12.5</ele>
        <time>2019-05-29T13:31:43.000Z</time>
      </trkpt>
      <trkpt lat="43.88925" lon="4.63362">
        <ele>12.75</ele>
        <time>2019-05-29T13:31:48.000Z</time>
      </trkpt>
      <trkpt lat="43.88925" lon="4.63335">
        <ele>13.74</ele>
        <time>2019-05-29T13:31:53.000Z</time>
      </trkpt>
      <trkpt lat="43.88923" lon="4.63307">
        <ele>14.5</ele>
        <time>2019-05-29T13:31:58.000Z</time>
      </trkpt>
      <trkpt lat="43.8892" lon="4.63276">
        <ele>14.74</ele>
        <time>2019-05-29T13:32:03.000Z</time>
      </trkpt>
      <trkpt lat="43.88913" lon="4.63242">
        <ele>14.75</ele>
        <time>2019-05-29T13:32:08.000Z</time>
      </trkpt>
      <trkpt lat="43.88905" lon="4.63209">
        <ele>13.52</ele>
        <time>2019-05-29T13:32:13.000Z</time>
      </trkpt>
      <trkpt lat="43.88896" lon="4.63175">
        <ele>13.75</ele>
        <time>2019-05-29T13:32:18.000Z</time>
      </trkpt>
      <trkpt lat="43.88893" lon="4.63139">
        <ele>13.75</ele>
        <time>2019-05-29T13:32:23.000Z</time>
      </trkpt>
      <trkpt lat="43.88905" lon="4.63108">
        <ele>13.75</ele>
        <time>2019-05-29T13:32:28.000Z</time>
      </trkpt>
      <trkpt lat="43.88923" lon="4.63085">
        <ele>12.75</ele>
        <time>2019-05-29T13:32:33.000Z</time>
      </trkpt>
      <trkpt lat="43.88938" lon="4.63059">
        <ele>12.75</ele>
        <time>2019-05-29T13:32:38.000Z</time>
      </trkpt>
      <trkpt lat="43.88955" lon="4.63034">
        <ele>12.75</ele>
        <time>2019-05-29T13:32:43.000Z</time>
      </trkpt>
      <trkpt lat="43.88975" lon="4.63016">
        <ele>13.74</ele>
        <time>2019-05-29T13:32:48.000Z</time>
      </trkpt>
      <trkpt lat="43.88993" lon="4.62998">
        <ele>11.77</ele>
        <time>2019-05-29T13:32:53.000Z</time>
      </trkpt>
      <trkpt lat="43.89013" lon="4.62982">
        <ele>13.75</ele>
        <time>2019-05-29T13:32:58.000Z</time>
      </trkpt>
      <trkpt lat="43.89031" lon="4.62966">
        <ele>13.75</ele>
        <time>2019-05-29T13:33:03.000Z</time>
      </trkpt>
      <trkpt lat="43.89047" lon="4.62948">
        <ele>13.75</ele>
        <time>2019-05-29T13:33:08.000Z</time>
      </trkpt>
      <trkpt lat="43.89064" lon="4.6293">
        <ele>13</ele>
        <time>2019-05-29T13:33:13.000Z</time>
      </trkpt>
      <trkpt lat="43.89083" lon="4.62915">
        <ele>11.75</ele>
        <time>2019-05-29T13:33:18.000Z</time>
      </trkpt>
      <trkpt lat="43.89104" lon="4.629">
        <ele>11.75</ele>
        <time>2019-05-29T13:33:23.000Z</time>
      </trkpt>
      <trkpt lat="43.89123" lon="4.62887">
        <ele>11.75</ele>
        <time>2019-05-29T13:33:28.000Z</time>
      </trkpt>
      <trkpt lat="43.89142" lon="4.62873">
        <ele>12.74</ele>
        <time>2019-05-29T13:33:33.000Z</time>
      </trkpt>
      <trkpt lat="43.8916" lon="4.62861">
        <ele>13.75</ele>
        <time>2019-05-29T13:33:38.000Z</time>
      </trkpt>
      <trkpt lat="43.89178" lon="4.62847">
        <ele>13.75</ele>
        <time>2019-05-29T13:33:43.000Z</time>
      </trkpt>
      <trkpt lat="43.89195" lon="4.62832">
        <ele>12.75</ele>
        <time>2019-05-29T13:33:48.000Z</time>
      </trkpt>
      <trkpt lat="43.89212" lon="4.62818">
        <ele>12.75</ele>
        <time>2019-05-29T13:33:53.000Z</time>
      </trkpt>
      <trkpt lat="43.8923" lon="4.62803">
        <ele>12.75</ele>
        <time>2019-05-29T13:33:58.000Z</time>
      </trkpt>
      <trkpt lat="43.89248" lon="4.62786">
        <ele>12.75</ele>
        <time>2019-05-29T13:34:03.000Z</time>
      </trkpt>
      <trkpt lat="43.89266" lon="4.62769">
        <ele>12.75</ele>
        <time>2019-05-29T13:34:08.000Z</time>
      </trkpt>
      <trkpt lat="43.89288" lon="4.62753">
        <ele>11.77</ele>
        <time>2019-05-29T13:34:13.000Z</time>
      </trkpt>
      <trkpt lat="43.89308" lon="4.62733">
        <ele>11.75</ele>
        <time>2019-05-29T13:34:18.000Z</time>
      </trkpt>
      <trkpt lat="43.89322" lon="4.62705">
        <ele>12</ele>
        <time>2019-05-29T13:34:23.000Z</time>
      </trkpt>
      <trkpt lat="43.89328" lon="4.62672">
        <ele>11.75</ele>
        <time>2019-05-29T13:34:28.000Z</time>
      </trkpt>
      <trkpt lat="43.8933" lon="4.62637">
        <ele>12.75</ele>
        <time>2019-05-29T13:34:33.000Z</time>
      </trkpt>
      <trkpt lat="43.89329" lon="4.62604">
        <ele>13.75</ele>
        <time>2019-05-29T13:34:38.000Z</time>
      </trkpt>
      <trkpt lat="43.8933" lon="4.62572">
        <ele>13.75</ele>
        <time>2019-05-29T13:34:43.000Z</time>
      </trkpt>
      <trkpt lat="43.89333" lon="4.62555">
        <ele>12.75</ele>
        <time>2019-05-29T13:34:48.000Z</time>
      </trkpt>
      <trkpt lat="43.89322" lon="4.62549">
        <ele>12.75</ele>
        <time>2019-05-29T13:35:56.000Z</time>
      </trkpt>
      <trkpt lat="43.89302" lon="4.62556">
        <ele>13.5</ele>
        <time>2019-05-29T13:36:01.000Z</time>
      </trkpt>
      <trkpt lat="43.89276" lon="4.62561">
        <ele>13.73</ele>
        <time>2019-05-29T13:36:06.000Z</time>
      </trkpt>
      <trkpt lat="43.89249" lon="4.62569">
        <ele>14.5</ele>
        <time>2019-05-29T13:36:11.000Z</time>
      </trkpt>
      <trkpt lat="43.89219" lon="4.62577">
        <ele>14.5</ele>
        <time>2019-05-29T13:36:16.000Z</time>
      </trkpt>
      <trkpt lat="43.89188" lon="4.62585">
        <ele>14.5</ele>
        <time>2019-05-29T13:36:21.000Z</time>
      </trkpt>
      <trkpt lat="43.89155" lon="4.62596">
        <ele>13.75</ele>
        <time>2019-05-29T13:36:26.000Z</time>
      </trkpt>
      <trkpt lat="43.89123" lon="4.6261">
        <ele>13</ele>
        <time>2019-05-29T13:36:31.000Z</time>
      </trkpt>
      <trkpt lat="43.89094" lon="4.62635">
        <ele>11.77</ele>
        <time>2019-05-29T13:36:36.000Z</time>
      </trkpt>
      <trkpt lat="43.89059" lon="4.62649">
        <ele>12.75</ele>
        <time>2019-05-29T13:36:41.000Z</time>
      </trkpt>
      <trkpt lat="43.89021" lon="4.62654">
        <ele>12.75</ele>
        <time>2019-05-29T13:36:46.000Z</time>
      </trkpt>
      <trkpt lat="43.88983" lon="4.62656">
        <ele>13.74</ele>
        <time>2019-05-29T13:36:51.000Z</time>
      </trkpt>
      <trkpt lat="43.88946" lon="4.62662">
        <ele>13.74</ele>
        <time>2019-05-29T13:36:56.000Z</time>
      </trkpt>
      <trkpt lat="43.88912" lon="4.62681">
        <ele>13.75</ele>
        <time>2019-05-29T13:37:01.000Z</time>
      </trkpt>
      <trkpt lat="43.88879" lon="4.62703">
        <ele>13</ele>
        <time>2019-05-29T13:37:06.000Z</time>
      </trkpt>
      <trkpt lat="43.88845" lon="4.62724">
        <ele>12</ele>
        <time>2019-05-29T13:37:11.000Z</time>
      </trkpt>
      <trkpt lat="43.88812" lon="4.62745">
        <ele>11.75</ele>
        <time>2019-05-29T13:37:16.000Z</time>
      </trkpt>
      <trkpt lat="43.88776" lon="4.62765">
        <ele>11.75</ele>
        <time>2019-05-29T13:37:21.000Z</time>
      </trkpt>
      <trkpt lat="43.8874" lon="4.62783">
        <ele>9.75</ele>
        <time>2019-05-29T13:37:26.000Z</time>
      </trkpt>
      <trkpt lat="43.88702" lon="4.62803">
        <ele>10.74</ele>
        <time>2019-05-29T13:37:31.000Z</time>
      </trkpt>
      <trkpt lat="43.88667" lon="4.62822">
        <ele>11.74</ele>
        <time>2019-05-29T13:37:36.000Z</time>
      </trkpt>
      <trkpt lat="43.8863" lon="4.62826">
        <ele>11.74</ele>
        <time>2019-05-29T13:37:41.000Z</time>
      </trkpt>
      <trkpt lat="43.88592" lon="4.6283">
        <ele>12.5</ele>
        <time>2019-05-29T13:37:46.000Z</time>
      </trkpt>
      <trkpt lat="43.88554" lon="4.62832">
        <ele>13.75</ele>
        <time>2019-05-29T13:37:51.000Z</time>
      </trkpt>
      <trkpt lat="43.88516" lon="4.62834">
        <ele>14.75</ele>
        <time>2019-05-29T13:37:56.000Z</time>
      </trkpt>
      <trkpt lat="43.88481" lon="4.62833">
        <ele>15.75</ele>
        <time>2019-05-29T13:38:01.000Z</time>
      </trkpt>
      <trkpt lat="43.88446" lon="4.62834">
        <ele>15.75</ele>
        <time>2019-05-29T13:38:06.000Z</time>
      </trkpt>
      <trkpt lat="43.8841" lon="4.62834">
        <ele>15.76</ele>
        <time>2019-05-29T13:38:11.000Z</time>
      </trkpt>
      <trkpt lat="43.88374" lon="4.62835">
        <ele>14.99</ele>
        <time>2019-05-29T13:38:16.000Z</time>
      </trkpt>
      <trkpt lat="43.88339" lon="4.62834">
        <ele>14.76</ele>
        <time>2019-05-29T13:38:21.000Z</time>
      </trkpt>
      <trkpt lat="43.88303" lon="4.62835">
        <ele>14.76</ele>
        <time>2019-05-29T13:38:26.000Z</time>
      </trkpt>
      <trkpt lat="43.88267" lon="4.62839">
        <ele>13.76</ele>
        <time>2019-05-29T13:38:31.000Z</time>
      </trkpt>
      <trkpt lat="43.88231" lon="4.62842">
        <ele>13.76</ele>
        <time>2019-05-29T13:38:36.000Z</time>
      </trkpt>
      <trkpt lat="43.88194" lon="4.62839">
        <ele>14.76</ele>
        <time>2019-05-29T13:38:41.000Z</time>
      </trkpt>
      <trkpt lat="43.88157" lon="4.62839">
        <ele>14.77</ele>
        <time>2019-05-29T13:38:46.000Z</time>
      </trkpt>
      <trkpt lat="43.88119" lon="4.6284">
        <ele>15.01</ele>
        <time>2019-05-29T13:38:51.000Z</time>
      </trkpt>
      <trkpt lat="43.88084" lon="4.6284">
        <ele>14.99</ele>
        <time>2019-05-29T13:38:56.000Z</time>
      </trkpt>
      <trkpt lat="43.88051" lon="4.62841">
        <ele>15.52</ele>
        <time>2019-05-29T13:39:01.000Z</time>
      </trkpt>
      <trkpt lat="43.88019" lon="4.62842">
        <ele>14.01</ele>
        <time>2019-05-29T13:39:06.000Z</time>
      </trkpt>
      <trkpt lat="43.87999" lon="4.62843">
        <ele>14.01</ele>
        <time>2019-05-29T13:39:11.000Z</time>
      </trkpt>
      <trkpt lat="43.87989" lon="4.62843">
        <ele>13.76</ele>
        <time>2019-05-29T13:39:16.000Z</time>
      </trkpt>
      <trkpt lat="43.8797" lon="4.62842">
        <ele>14.51</ele>
        <time>2019-05-29T13:39:21.000Z</time>
      </trkpt>
      <trkpt lat="43.87947" lon="4.62835">
        <ele>13.76</ele>
        <time>2019-05-29T13:39:26.000Z</time>
      </trkpt>
      <trkpt lat="43.87921" lon="4.62823">
        <ele>13.76</ele>
        <time>2019-05-29T13:39:31.000Z</time>
      </trkpt>
      <trkpt lat="43.87896" lon="4.62808">
        <ele>12.76</ele>
        <time>2019-05-29T13:39:36.000Z</time>
      </trkpt>
      <trkpt lat="43.8787" lon="4.62792">
        <ele>12.51</ele>
        <time>2019-05-29T13:39:41.000Z</time>
      </trkpt>
      <trkpt lat="43.87844" lon="4.62774">
        <ele>12.74</ele>
        <time>2019-05-29T13:39:46.000Z</time>
      </trkpt>
      <trkpt lat="43.87815" lon="4.62756">
        <ele>13.76</ele>
        <time>2019-05-29T13:39:51.000Z</time>
      </trkpt>
      <trkpt lat="43.87784" lon="4.62736">
        <ele>12.77</ele>
        <time>2019-05-29T13:39:56.000Z</time>
      </trkpt>
      <trkpt lat="43.87752" lon="4.62715">
        <ele>12.01</ele>
        <time>2019-05-29T13:40:01.000Z</time>
      </trkpt>
      <trkpt lat="43.87721" lon="4.62694">
        <ele>12.76</ele>
        <time>2019-05-29T13:40:06.000Z</time>
      </trkpt>
      <trkpt lat="43.87688" lon="4.62673">
        <ele>13.76</ele>
        <time>2019-05-29T13:40:11.000Z</time>
      </trkpt>
      <trkpt lat="43.87656" lon="4.62653">
        <ele>13.74</ele>
        <time>2019-05-29T13:40:16.000Z</time>
      </trkpt>
      <trkpt lat="43.87624" lon="4.62636">
        <ele>12.78</ele>
        <time>2019-05-29T13:40:21.000Z</time>
      </trkpt>
      <trkpt lat="43.87592" lon="4.62615">
        <ele>11.76</ele>
        <time>2019-05-29T13:40:26.000Z</time>
      </trkpt>
      <trkpt lat="43.87558" lon="4.62597">
        <ele>12.51</ele>
        <time>2019-05-29T13:40:31.000Z</time>
      </trkpt>
      <trkpt lat="43.87527" lon="4.62575">
        <ele>14.76</ele>
        <time>2019-05-29T13:40:36.000Z</time>
      </trkpt>
      <trkpt lat="43.87495" lon="4.62554">
        <ele>14.76</ele>
        <time>2019-05-29T13:40:41.000Z</time>
      </trkpt>
      <trkpt lat="43.87464" lon="4.62533">
        <ele>14.51</ele>
        <time>2019-05-29T13:40:46.000Z</time>
      </trkpt>
      <trkpt lat="43.87432" lon="4.62513">
        <ele>14.76</ele>
        <time>2019-05-29T13:40:51.000Z</time>
      </trkpt>
      <trkpt lat="43.874" lon="4.62493">
        <ele>13.78</ele>
        <time>2019-05-29T13:40:56.000Z</time>
      </trkpt>
      <trkpt lat="43.87368" lon="4.62471">
        <ele>13.76</ele>
        <time>2019-05-29T13:41:01.000Z</time>
      </trkpt>
      <trkpt lat="43.87335" lon="4.62448">
        <ele>14.75</ele>
        <time>2019-05-29T13:41:06.000Z</time>
      </trkpt>
      <trkpt lat="43.87302" lon="4.62424">
        <ele>14.76</ele>
        <time>2019-05-29T13:41:11.000Z</time>
      </trkpt>
      <trkpt lat="43.87276" lon="4.62389">
        <ele>13.78</ele>
        <time>2019-05-29T13:41:16.000Z</time>
      </trkpt>
      <trkpt lat="43.87251" lon="4.62353">
        <ele>13.76</ele>
        <time>2019-05-29T13:41:21.000Z</time>
      </trkpt>
      <trkpt lat="43.87216" lon="4.6233">
        <ele>13.76</ele>
        <time>2019-05-29T13:41:26.000Z</time>
      </trkpt>
      <trkpt lat="43.87179" lon="4.62312">
        <ele>13.76</ele>
        <time>2019-05-29T13:41:31.000Z</time>
      </trkpt>
      <trkpt lat="43.87142" lon="4.62294">
        <ele>13.76</ele>
        <time>2019-05-29T13:41:36.000Z</time>
      </trkpt>
      <trkpt lat="43.87106" lon="4.62277">
        <ele>13.76</ele>
        <time>2019-05-29T13:41:41.000Z</time>
      </trkpt>
      <trkpt lat="43.8707" lon="4.62269">
        <ele>13.78</ele>
        <time>2019-05-29T13:41:46.000Z</time>
      </trkpt>
      <trkpt lat="43.87039" lon="4.6229">
        <ele>13.76</ele>
        <time>2019-05-29T13:41:51.000Z</time>
      </trkpt>
      <trkpt lat="43.87016" lon="4.62261">
        <ele>13.76</ele>
        <time>2019-05-29T13:41:56.000Z</time>
      </trkpt>
      <trkpt lat="43.87001" lon="4.62222">
        <ele>12.76</ele>
        <time>2019-05-29T13:42:01.000Z</time>
      </trkpt>
      <trkpt lat="43.86985" lon="4.62183">
        <ele>12.01</ele>
        <time>2019-05-29T13:42:06.000Z</time>
      </trkpt>
      <trkpt lat="43.86965" lon="4.62145">
        <ele>11.78</ele>
        <time>2019-05-29T13:42:11.000Z</time>
      </trkpt>
      <trkpt lat="43.86944" lon="4.62111">
        <ele>10.78</ele>
        <time>2019-05-29T13:42:16.000Z</time>
      </trkpt>
      <trkpt lat="43.8692" lon="4.62079">
        <ele>11.76</ele>
        <time>2019-05-29T13:42:21.000Z</time>
      </trkpt>
      <trkpt lat="43.86892" lon="4.62053">
        <ele>12.75</ele>
        <time>2019-05-29T13:42:26.000Z</time>
      </trkpt>
      <trkpt lat="43.86864" lon="4.62032">
        <ele>13.76</ele>
        <time>2019-05-29T13:42:31.000Z</time>
      </trkpt>
      <trkpt lat="43.8684" lon="4.62016">
        <ele>11.76</ele>
        <time>2019-05-29T13:42:36.000Z</time>
      </trkpt>
      <trkpt lat="43.86847" lon="4.61992">
        <ele>10.76</ele>
        <time>2019-05-29T13:42:41.000Z</time>
      </trkpt>
      <trkpt lat="43.86855" lon="4.61968">
        <ele>10.76</ele>
        <time>2019-05-29T13:42:46.000Z</time>
      </trkpt>
      <trkpt lat="43.86863" lon="4.61943">
        <ele>10.53</ele>
        <time>2019-05-29T13:42:51.000Z</time>
      </trkpt>
      <trkpt lat="43.86875" lon="4.61918">
        <ele>11.76</ele>
        <time>2019-05-29T13:42:56.000Z</time>
      </trkpt>
      <trkpt lat="43.86896" lon="4.61907">
        <ele>12.76</ele>
        <time>2019-05-29T13:43:01.000Z</time>
      </trkpt>
      <trkpt lat="43.8691" lon="4.61883">
        <ele>13.75</ele>
        <time>2019-05-29T13:43:06.000Z</time>
      </trkpt>
      <trkpt lat="43.86916" lon="4.61849">
        <ele>13.76</ele>
        <time>2019-05-29T13:43:11.000Z</time>
      </trkpt>
      <trkpt lat="43.86917" lon="4.61811">
        <ele>11.76</ele>
        <time>2019-05-29T13:43:16.000Z</time>
      </trkpt>
      <trkpt lat="43.86925" lon="4.61775">
        <ele>9.76</ele>
        <time>2019-05-29T13:43:21.000Z</time>
      </trkpt>
      <trkpt lat="43.8693" lon="4.61741">
        <ele>9.76</ele>
        <time>2019-05-29T13:43:26.000Z</time>
      </trkpt>
      <trkpt lat="43.86935" lon="4.61709">
        <ele>10.76</ele>
        <time>2019-05-29T13:43:31.000Z</time>
      </trkpt>
      <trkpt lat="43.86938" lon="4.61682">
        <ele>10.76</ele>
        <time>2019-05-29T13:43:36.000Z</time>
      </trkpt>
      <trkpt lat="43.86942" lon="4.61655">
        <ele>10.76</ele>
        <time>2019-05-29T13:43:41.000Z</time>
      </trkpt>
      <trkpt lat="43.86945" lon="4.61626">
        <ele>10.76</ele>
        <time>2019-05-29T13:43:46.000Z</time>
      </trkpt>
      <trkpt lat="43.86952" lon="4.61593">
        <ele>10.77</ele>
        <time>2019-05-29T13:43:51.000Z</time>
      </trkpt>
      <trkpt lat="43.86955" lon="4.61559">
        <ele>11.76</ele>
        <time>2019-05-29T13:43:56.000Z</time>
      </trkpt>
      <trkpt lat="43.8696" lon="4.61525">
        <ele>11.78</ele>
        <time>2019-05-29T13:44:01.000Z</time>
      </trkpt>
      <trkpt lat="43.86965" lon="4.61492">
        <ele>10.76</ele>
        <time>2019-05-29T13:44:06.000Z</time>
      </trkpt>
      <trkpt lat="43.86969" lon="4.61459">
        <ele>10.76</ele>
        <time>2019-05-29T13:44:11.000Z</time>
      </trkpt>
      <trkpt lat="43.86974" lon="4.61425">
        <ele>10.76</ele>
        <time>2019-05-29T13:44:16.000Z</time>
      </trkpt>
      <trkpt lat="43.8698" lon="4.61397">
        <ele>9.78</ele>
        <time>2019-05-29T13:44:21.000Z</time>
      </trkpt>
      <trkpt lat="43.8699" lon="4.6137">
        <ele>9.51</ele>
        <time>2019-05-29T13:44:26.000Z</time>
      </trkpt>
      <trkpt lat="43.87001" lon="4.61346">
        <ele>8.76</ele>
        <time>2019-05-29T13:44:31.000Z</time>
      </trkpt>
      <trkpt lat="43.8701" lon="4.61317">
        <ele>8.76</ele>
        <time>2019-05-29T13:44:36.000Z</time>
      </trkpt>
      <trkpt lat="43.87015" lon="4.61286">
        <ele>9.53</ele>
        <time>2019-05-29T13:44:41.000Z</time>
      </trkpt>
      <trkpt lat="43.87019" lon="4.61259">
        <ele>10.01</ele>
        <time>2019-05-29T13:44:46.000Z</time>
      </trkpt>
      <trkpt lat="43.87022" lon="4.61232">
        <ele>10.75</ele>
        <time>2019-05-29T13:44:51.000Z</time>
      </trkpt>
      <trkpt lat="43.87026" lon="4.61204">
        <ele>11.76</ele>
        <time>2019-05-29T13:44:56.000Z</time>
      </trkpt>
      <trkpt lat="43.8703" lon="4.61176">
        <ele>11.76</ele>
        <time>2019-05-29T13:45:01.000Z</time>
      </trkpt>
      <trkpt lat="43.87036" lon="4.61148">
        <ele>11.78</ele>
        <time>2019-05-29T13:45:06.000Z</time>
      </trkpt>
      <trkpt lat="43.87051" lon="4.61123">
        <ele>11.78</ele>
        <time>2019-05-29T13:45:11.000Z</time>
      </trkpt>
      <trkpt lat="43.87072" lon="4.61112">
        <ele>11.76</ele>
        <time>2019-05-29T13:45:16.000Z</time>
      </trkpt>
      <trkpt lat="43.8709" lon="4.61095">
        <ele>12.99</ele>
        <time>2019-05-29T13:45:21.000Z</time>
      </trkpt>
      <trkpt lat="43.87105" lon="4.61071">
        <ele>13.01</ele>
        <time>2019-05-29T13:45:26.000Z</time>
      </trkpt>
      <trkpt lat="43.87109" lon="4.6104">
        <ele>10.53</ele>
        <time>2019-05-29T13:45:31.000Z</time>
      </trkpt>
      <trkpt lat="43.87109" lon="4.61006">
        <ele>11.51</ele>
        <time>2019-05-29T13:45:36.000Z</time>
      </trkpt>
      <trkpt lat="43.8711" lon="4.60972">
        <ele>10.76</ele>
        <time>2019-05-29T13:45:41.000Z</time>
      </trkpt>
      <trkpt lat="43.87109" lon="4.60938">
        <ele>10.53</ele>
        <time>2019-05-29T13:45:46.000Z</time>
      </trkpt>
      <trkpt lat="43.87109" lon="4.60901">
        <ele>10.77</ele>
        <time>2019-05-29T13:45:51.000Z</time>
      </trkpt>
      <trkpt lat="43.87111" lon="4.60865">
        <ele>10.01</ele>
        <time>2019-05-29T13:45:56.000Z</time>
      </trkpt>
      <trkpt lat="43.87114" lon="4.6083">
        <ele>10.76</ele>
        <time>2019-05-29T13:46:01.000Z</time>
      </trkpt>
      <trkpt lat="43.87119" lon="4.60795">
        <ele>11.74</ele>
        <time>2019-05-29T13:46:06.000Z</time>
      </trkpt>
      <trkpt lat="43.87126" lon="4.60758">
        <ele>12.01</ele>
        <time>2019-05-29T13:46:11.000Z</time>
      </trkpt>
      <trkpt lat="43.87132" lon="4.60721">
        <ele>12.76</ele>
        <time>2019-05-29T13:46:16.000Z</time>
      </trkpt>
      <trkpt lat="43.87136" lon="4.60695">
        <ele>11.01</ele>
        <time>2019-05-29T13:46:21.000Z</time>
      </trkpt>
      <trkpt lat="43.87132" lon="4.60708">
        <ele>10.74</ele>
        <time>2019-05-29T13:46:26.000Z</time>
      </trkpt>
      <trkpt lat="43.87129" lon="4.60732">
        <ele>9.76</ele>
        <time>2019-05-29T13:46:31.000Z</time>
      </trkpt>
      <trkpt lat="43.87123" lon="4.60754">
        <ele>10.76</ele>
        <time>2019-05-29T13:46:36.000Z</time>
      </trkpt>
      <trkpt lat="43.87109" lon="4.60748">
        <ele>11.53</ele>
        <time>2019-05-29T13:46:41.000Z</time>
      </trkpt>
      <trkpt lat="43.87093" lon="4.60721">
        <ele>9.78</ele>
        <time>2019-05-29T13:46:46.000Z</time>
      </trkpt>
      <trkpt lat="43.87076" lon="4.60697">
        <ele>10.01</ele>
        <time>2019-05-29T13:46:51.000Z</time>
      </trkpt>
      <trkpt lat="43.87059" lon="4.60674">
        <ele>10.76</ele>
        <time>2019-05-29T13:46:56.000Z</time>
      </trkpt>
      <trkpt lat="43.87041" lon="4.60648">
        <ele>9.76</ele>
        <time>2019-05-29T13:47:01.000Z</time>
      </trkpt>
      <trkpt lat="43.87022" lon="4.60621">
        <ele>9.76</ele>
        <time>2019-05-29T13:47:06.000Z</time>
      </trkpt>
      <trkpt lat="43.87002" lon="4.60595">
        <ele>10.51</ele>
        <time>2019-05-29T13:47:11.000Z</time>
      </trkpt>
      <trkpt lat="43.86982" lon="4.60568">
        <ele>11.74</ele>
        <time>2019-05-29T13:47:16.000Z</time>
      </trkpt>
      <trkpt lat="43.86962" lon="4.60541">
        <ele>11.76</ele>
        <time>2019-05-29T13:47:21.000Z</time>
      </trkpt>
      <trkpt lat="43.86941" lon="4.60513">
        <ele>11.76</ele>
        <time>2019-05-29T13:47:26.000Z</time>
      </trkpt>
      <trkpt lat="43.8692" lon="4.60483">
        <ele>11.01</ele>
        <time>2019-05-29T13:47:31.000Z</time>
      </trkpt>
      <trkpt lat="43.86899" lon="4.60454">
        <ele>11.51</ele>
        <time>2019-05-29T13:47:36.000Z</time>
      </trkpt>
      <trkpt lat="43.86878" lon="4.60423">
        <ele>11.76</ele>
        <time>2019-05-29T13:47:41.000Z</time>
      </trkpt>
      <trkpt lat="43.86856" lon="4.60395">
        <ele>11.76</ele>
        <time>2019-05-29T13:47:46.000Z</time>
      </trkpt>
      <trkpt lat="43.86836" lon="4.60366">
        <ele>10.76</ele>
        <time>2019-05-29T13:47:51.000Z</time>
      </trkpt>
      <trkpt lat="43.86815" lon="4.60337">
        <ele>11.74</ele>
        <time>2019-05-29T13:47:56.000Z</time>
      </trkpt>
      <trkpt lat="43.86799" lon="4.60303">
        <ele>10.76</ele>
        <time>2019-05-29T13:48:01.000Z</time>
      </trkpt>
      <trkpt lat="43.86781" lon="4.60271">
        <ele>11.51</ele>
        <time>2019-05-29T13:48:06.000Z</time>
      </trkpt>
      <trkpt lat="43.86762" lon="4.60238">
        <ele>11.76</ele>
        <time>2019-05-29T13:48:11.000Z</time>
      </trkpt>
      <trkpt lat="43.86749" lon="4.60199">
        <ele>13.5</ele>
        <time>2019-05-29T13:48:16.000Z</time>
      </trkpt>
      <trkpt lat="43.86746" lon="4.60158">
        <ele>14.76</ele>
        <time>2019-05-29T13:48:21.000Z</time>
      </trkpt>
      <trkpt lat="43.86746" lon="4.60118">
        <ele>12.03</ele>
        <time>2019-05-29T13:48:26.000Z</time>
      </trkpt>
      <trkpt lat="43.86745" lon="4.60079">
        <ele>12</ele>
        <time>2019-05-29T13:48:31.000Z</time>
      </trkpt>
      <trkpt lat="43.86745" lon="4.60042">
        <ele>11.76</ele>
        <time>2019-05-29T13:48:36.000Z</time>
      </trkpt>
      <trkpt lat="43.86748" lon="4.6001">
        <ele>11.01</ele>
        <time>2019-05-29T13:48:41.000Z</time>
      </trkpt>
      <trkpt lat="43.86753" lon="4.59979">
        <ele>10.76</ele>
        <time>2019-05-29T13:48:46.000Z</time>
      </trkpt>
      <trkpt lat="43.8676" lon="4.59947">
        <ele>10.74</ele>
        <time>2019-05-29T13:48:51.000Z</time>
      </trkpt>
      <trkpt lat="43.86767" lon="4.59915">
        <ele>11.01</ele>
        <time>2019-05-29T13:48:56.000Z</time>
      </trkpt>
      <trkpt lat="43.86774" lon="4.59884">
        <ele>10.76</ele>
        <time>2019-05-29T13:49:01.000Z</time>
      </trkpt>
      <trkpt lat="43.86782" lon="4.59859">
        <ele>10.01</ele>
        <time>2019-05-29T13:49:06.000Z</time>
      </trkpt>
      <trkpt lat="43.86787" lon="4.59837">
        <ele>10.02</ele>
        <time>2019-05-29T13:49:11.000Z</time>
      </trkpt>
      <trkpt lat="43.86791" lon="4.59814">
        <ele>9.76</ele>
        <time>2019-05-29T13:49:16.000Z</time>
      </trkpt>
      <trkpt lat="43.86792" lon="4.59788">
        <ele>10.76</ele>
        <time>2019-05-29T13:49:21.000Z</time>
      </trkpt>
      <trkpt lat="43.86794" lon="4.5976">
        <ele>10.76</ele>
        <time>2019-05-29T13:49:26.000Z</time>
      </trkpt>
      <trkpt lat="43.86795" lon="4.59732">
        <ele>11.01</ele>
        <time>2019-05-29T13:49:31.000Z</time>
      </trkpt>
      <trkpt lat="43.86797" lon="4.59704">
        <ele>10.76</ele>
        <time>2019-05-29T13:49:36.000Z</time>
      </trkpt>
      <trkpt lat="43.86802" lon="4.59676">
        <ele>8.76</ele>
        <time>2019-05-29T13:49:41.000Z</time>
      </trkpt>
      <trkpt lat="43.8681" lon="4.59649">
        <ele>8.76</ele>
        <time>2019-05-29T13:49:46.000Z</time>
      </trkpt>
      <trkpt lat="43.86821" lon="4.59625">
        <ele>8.76</ele>
        <time>2019-05-29T13:49:51.000Z</time>
      </trkpt>
      <trkpt lat="43.86835" lon="4.59604">
        <ele>8.76</ele>
        <time>2019-05-29T13:49:56.000Z</time>
      </trkpt>
      <trkpt lat="43.8685" lon="4.5959">
        <ele>8.76</ele>
        <time>2019-05-29T13:50:01.000Z</time>
      </trkpt>
      <trkpt lat="43.86865" lon="4.59581">
        <ele>9.74</ele>
        <time>2019-05-29T13:50:06.000Z</time>
      </trkpt>
      <trkpt lat="43.86879" lon="4.59571">
        <ele>8.76</ele>
        <time>2019-05-29T13:50:11.000Z</time>
      </trkpt>
      <trkpt lat="43.86891" lon="4.59559">
        <ele>8.76</ele>
        <time>2019-05-29T13:50:16.000Z</time>
      </trkpt>
      <trkpt lat="43.86903" lon="4.59544">
        <ele>8.76</ele>
        <time>2019-05-29T13:50:21.000Z</time>
      </trkpt>
      <trkpt lat="43.86915" lon="4.59529">
        <ele>8.76</ele>
        <time>2019-05-29T13:50:26.000Z</time>
      </trkpt>
      <trkpt lat="43.86928" lon="4.59514">
        <ele>8.76</ele>
        <time>2019-05-29T13:50:31.000Z</time>
      </trkpt>
      <trkpt lat="43.86938" lon="4.59502">
        <ele>8.01</ele>
        <time>2019-05-29T13:50:36.000Z</time>
      </trkpt>
      <trkpt lat="43.86948" lon="4.59488">
        <ele>8.76</ele>
        <time>2019-05-29T13:50:41.000Z</time>
      </trkpt>
      <trkpt lat="43.86959" lon="4.59476">
        <ele>8.76</ele>
        <time>2019-05-29T13:50:46.000Z</time>
      </trkpt>
      <trkpt lat="43.86972" lon="4.59461">
        <ele>8.76</ele>
        <time>2019-05-29T13:50:51.000Z</time>
      </trkpt>
      <trkpt lat="43.86985" lon="4.59444">
        <ele>8.01</ele>
        <time>2019-05-29T13:50:56.000Z</time>
      </trkpt>
      <trkpt lat="43.86999" lon="4.59425">
        <ele>7.01</ele>
        <time>2019-05-29T13:51:01.000Z</time>
      </trkpt>
      <trkpt lat="43.87011" lon="4.59406">
        <ele>7.51</ele>
        <time>2019-05-29T13:51:06.000Z</time>
      </trkpt>
      <trkpt lat="43.87022" lon="4.59386">
        <ele>7.76</ele>
        <time>2019-05-29T13:51:11.000Z</time>
      </trkpt>
      <trkpt lat="43.87033" lon="4.59366">
        <ele>6.76</ele>
        <time>2019-05-29T13:51:16.000Z</time>
      </trkpt>
      <trkpt lat="43.87044" lon="4.59345">
        <ele>6.76</ele>
        <time>2019-05-29T13:51:21.000Z</time>
      </trkpt>
      <trkpt lat="43.87057" lon="4.59324">
        <ele>6.76</ele>
        <time>2019-05-29T13:51:26.000Z</time>
      </trkpt>
      <trkpt lat="43.8707" lon="4.59302">
        <ele>7.52</ele>
        <time>2019-05-29T13:51:31.000Z</time>
      </trkpt>
      <trkpt lat="43.87088" lon="4.59282">
        <ele>6.76</ele>
        <time>2019-05-29T13:51:36.000Z</time>
      </trkpt>
      <trkpt lat="43.87112" lon="4.59269">
        <ele>6.76</ele>
        <time>2019-05-29T13:51:41.000Z</time>
      </trkpt>
      <trkpt lat="43.87125" lon="4.59247">
        <ele>8.74</ele>
        <time>2019-05-29T13:51:46.000Z</time>
      </trkpt>
      <trkpt lat="43.87139" lon="4.59223">
        <ele>7.76</ele>
        <time>2019-05-29T13:51:51.000Z</time>
      </trkpt>
      <trkpt lat="43.87154" lon="4.592">
        <ele>9.51</ele>
        <time>2019-05-29T13:51:56.000Z</time>
      </trkpt>
      <trkpt lat="43.8717" lon="4.5918">
        <ele>9.77</ele>
        <time>2019-05-29T13:52:01.000Z</time>
      </trkpt>
      <trkpt lat="43.87187" lon="4.5916">
        <ele>8.76</ele>
        <time>2019-05-29T13:52:06.000Z</time>
      </trkpt>
      <trkpt lat="43.87205" lon="4.59147">
        <ele>9.51</ele>
        <time>2019-05-29T13:52:11.000Z</time>
      </trkpt>
      <trkpt lat="43.87225" lon="4.59142">
        <ele>8.77</ele>
        <time>2019-05-29T13:52:16.000Z</time>
      </trkpt>
      <trkpt lat="43.87245" lon="4.59142">
        <ele>9.76</ele>
        <time>2019-05-29T13:52:21.000Z</time>
      </trkpt>
      <trkpt lat="43.87267" lon="4.59145">
        <ele>10.51</ele>
        <time>2019-05-29T13:52:26.000Z</time>
      </trkpt>
      <trkpt lat="43.87287" lon="4.59145">
        <ele>10.74</ele>
        <time>2019-05-29T13:52:31.000Z</time>
      </trkpt>
      <trkpt lat="43.87304" lon="4.59129">
        <ele>12.74</ele>
        <time>2019-05-29T13:52:36.000Z</time>
      </trkpt>
      <trkpt lat="43.87319" lon="4.59107">
        <ele>12.01</ele>
        <time>2019-05-29T13:52:41.000Z</time>
      </trkpt>
      <trkpt lat="43.8733" lon="4.59092">
        <ele>10.77</ele>
        <time>2019-05-29T13:52:46.000Z</time>
      </trkpt>
      <trkpt lat="43.87322" lon="4.59101">
        <ele>12.76</ele>
        <time>2019-05-29T13:53:15.000Z</time>
      </trkpt>
      <trkpt lat="43.8731" lon="4.59123">
        <ele>12.76</ele>
        <time>2019-05-29T13:53:20.000Z</time>
      </trkpt>
      <trkpt lat="43.87305" lon="4.59144">
        <ele>12.77</ele>
        <time>2019-05-29T13:53:25.000Z</time>
      </trkpt>
      <trkpt lat="43.87322" lon="4.59151">
        <ele>13.74</ele>
        <time>2019-05-29T13:53:30.000Z</time>
      </trkpt>
      <trkpt lat="43.8734" lon="4.59154">
        <ele>13.99</ele>
        <time>2019-05-29T13:53:35.000Z</time>
      </trkpt>
      <trkpt lat="43.87359" lon="4.59155">
        <ele>14.75</ele>
        <time>2019-05-29T13:53:40.000Z</time>
      </trkpt>
      <trkpt lat="43.87378" lon="4.59157">
        <ele>15.51</ele>
        <time>2019-05-29T13:53:45.000Z</time>
      </trkpt>
      <trkpt lat="43.87395" lon="4.5916">
        <ele>15.76</ele>
        <time>2019-05-29T13:53:50.000Z</time>
      </trkpt>
      <trkpt lat="43.87411" lon="4.59161">
        <ele>16.76</ele>
        <time>2019-05-29T13:53:55.000Z</time>
      </trkpt>
      <trkpt lat="43.87421" lon="4.59164">
        <ele>17.01</ele>
        <time>2019-05-29T13:54:03.000Z</time>
      </trkpt>
      <trkpt lat="43.87419" lon="4.59185">
        <ele>16.77</ele>
        <time>2019-05-29T13:54:08.000Z</time>
      </trkpt>
      <trkpt lat="43.87413" lon="4.59211">
        <ele>16.76</ele>
        <time>2019-05-29T13:54:13.000Z</time>
      </trkpt>
      <trkpt lat="43.87407" lon="4.5924">
        <ele>14.77</ele>
        <time>2019-05-29T13:54:18.000Z</time>
      </trkpt>
      <trkpt lat="43.87397" lon="4.59269">
        <ele>14.76</ele>
        <time>2019-05-29T13:54:23.000Z</time>
      </trkpt>
      <trkpt lat="43.87388" lon="4.59287">
        <ele>14.74</ele>
        <time>2019-05-29T13:54:28.000Z</time>
      </trkpt>
      <trkpt lat="43.87381" lon="4.59294">
        <ele>14.76</ele>
        <time>2019-05-29T13:55:05.000Z</time>
      </trkpt>
      <trkpt lat="43.87394" lon="4.59302">
        <ele>14.76</ele>
        <time>2019-05-29T13:55:10.000Z</time>
      </trkpt>
      <trkpt lat="43.87413" lon="4.59305">
        <ele>14.01</ele>
        <time>2019-05-29T13:55:15.000Z</time>
      </trkpt>
      <trkpt lat="43.8743" lon="4.59307">
        <ele>14.75</ele>
        <time>2019-05-29T13:55:20.000Z</time>
      </trkpt>
      <trkpt lat="43.87448" lon="4.59308">
        <ele>16.74</ele>
        <time>2019-05-29T13:55:25.000Z</time>
      </trkpt>
      <trkpt lat="43.87466" lon="4.59308">
        <ele>18.51</ele>
        <time>2019-05-29T13:55:30.000Z</time>
      </trkpt>
      <trkpt lat="43.87483" lon="4.59309">
        <ele>18.51</ele>
        <time>2019-05-29T13:55:35.000Z</time>
      </trkpt>
      <trkpt lat="43.875" lon="4.59308">
        <ele>19.75</ele>
        <time>2019-05-29T13:55:40.000Z</time>
      </trkpt>
      <trkpt lat="43.87518" lon="4.59309">
        <ele>20.75</ele>
        <time>2019-05-29T13:55:45.000Z</time>
      </trkpt>
      <trkpt lat="43.87536" lon="4.5931">
        <ele>20.75</ele>
        <time>2019-05-29T13:55:50.000Z</time>
      </trkpt>
      <trkpt lat="43.8755" lon="4.59312">
        <ele>19.52</ele>
        <time>2019-05-29T13:55:55.000Z</time>
      </trkpt>
      <trkpt lat="43.87565" lon="4.59312">
        <ele>18.75</ele>
        <time>2019-05-29T13:56:00.000Z</time>
      </trkpt>
      <trkpt lat="43.87581" lon="4.59309">
        <ele>20.5</ele>
        <time>2019-05-29T13:56:05.000Z</time>
      </trkpt>
      <trkpt lat="43.87593" lon="4.59298">
        <ele>20.75</ele>
        <time>2019-05-29T13:56:10.000Z</time>
      </trkpt>
      <trkpt lat="43.87603" lon="4.59288">
        <ele>21.51</ele>
        <time>2019-05-29T13:56:15.000Z</time>
      </trkpt>
      <trkpt lat="43.87612" lon="4.59277">
        <ele>18.77</ele>
        <time>2019-05-29T13:56:20.000Z</time>
      </trkpt>
      <trkpt lat="43.87615" lon="4.59265">
        <ele>17.77</ele>
        <time>2019-05-29T13:56:27.000Z</time>
      </trkpt>
      <trkpt lat="43.87621" lon="4.59256">
        <ele>16.74</ele>
        <time>2019-05-29T13:57:11.000Z</time>
      </trkpt>
      <trkpt lat="43.87618" lon="4.59254">
        <ele>26.82</ele>
        <time>2019-05-29T13:59:41.000Z</time>
      </trkpt>
      <trkpt lat="43.87514" lon="4.5916">
        <ele>16</ele>
        <time>2019-05-29T15:00:32.000Z</time>
      </trkpt>
      <trkpt lat="43.87434" lon="4.59068">
        <ele>15</ele>
        <time>2019-05-29T15:01:24.000Z</time>
      </trkpt>
      <trkpt lat="43.87403" lon="4.59054">
        <ele>15</ele>
        <time>2019-05-29T15:01:33.000Z</time>
      </trkpt>
      <trkpt lat="43.87371" lon="4.59089">
        <ele>14</ele>
        <time>2019-05-29T15:01:38.000Z</time>
      </trkpt>
      <trkpt lat="43.87276" lon="4.59078">
        <ele>14</ele>
        <time>2019-05-29T15:01:43.000Z</time>
      </trkpt>
      <trkpt lat="43.87228" lon="4.59068">
        <ele>14</ele>
        <time>2019-05-29T15:01:48.000Z</time>
      </trkpt>
      <trkpt lat="43.87181" lon="4.58978">
        <ele>15</ele>
        <time>2019-05-29T15:01:53.000Z</time>
      </trkpt>
      <trkpt lat="43.87108" lon="4.58751">
        <ele>15</ele>
        <time>2019-05-29T15:01:58.000Z</time>
      </trkpt>
      <trkpt lat="43.86998" lon="4.58761">
        <ele>15</ele>
        <time>2019-05-29T15:02:03.000Z</time>
      </trkpt>
      <trkpt lat="43.86933" lon="4.58753">
        <ele>14</ele>
        <time>2019-05-29T15:02:08.000Z</time>
      </trkpt>
      <trkpt lat="43.86834" lon="4.58724">
        <ele>14</ele>
        <time>2019-05-29T15:02:13.000Z</time>
      </trkpt>
      <trkpt lat="43.86782" lon="4.58698">
        <ele>14</ele>
        <time>2019-05-29T15:02:18.000Z</time>
      </trkpt>
      <trkpt lat="43.86737" lon="4.5864">
        <ele>14</ele>
        <time>2019-05-29T15:02:23.000Z</time>
      </trkpt>
      <trkpt lat="43.86674" lon="4.58457">
        <ele>14</ele>
        <time>2019-05-29T15:02:28.000Z</time>
      </trkpt>
      <trkpt lat="43.8655" lon="4.58251">
        <ele>16</ele>
        <time>2019-05-29T15:02:33.000Z</time>
      </trkpt>
      <trkpt lat="43.86433" lon="4.58125">
        <ele>21</ele>
        <time>2019-05-29T15:02:38.000Z</time>
      </trkpt>
      <trkpt lat="43.86221" lon="4.58327">
        <ele>22</ele>
        <time>2019-05-29T15:02:43.000Z</time>
      </trkpt>
      <trkpt lat="43.85889" lon="4.58649">
        <ele>20</ele>
        <time>2019-05-29T15:02:48.000Z</time>
      </trkpt>
      <trkpt lat="43.85903" lon="4.58741">
        <ele>17</ele>
        <time>2019-05-29T15:02:53.000Z</time>
      </trkpt>
      <trkpt lat="43.85836" lon="4.58759">
        <ele>17</ele>
        <time>2019-05-29T15:02:58.000Z</time>
      </trkpt>
      <trkpt lat="43.85793" lon="4.5875">
        <ele>17</ele>
        <time>2019-05-29T15:03:03.000Z</time>
      </trkpt>
      <trkpt lat="43.85385" lon="4.59146">
        <ele>17</ele>
        <time>2019-05-29T15:03:08.000Z</time>
      </trkpt>
      <trkpt lat="43.85126" lon="4.59376">
        <ele>19</ele>
        <time>2019-05-29T15:03:13.000Z</time>
      </trkpt>
      <trkpt lat="43.85007" lon="4.59587">
        <ele>21</ele>
        <time>2019-05-29T15:03:18.000Z</time>
      </trkpt>
      <trkpt lat="43.84931" lon="4.59992">
        <ele>16</ele>
        <time>2019-05-29T15:03:23.000Z</time>
      </trkpt>
      <trkpt lat="43.84878" lon="4.60337">
        <ele>17</ele>
        <time>2019-05-29T15:03:28.000Z</time>
      </trkpt>
      <trkpt lat="43.84768" lon="4.60535">
        <ele>17</ele>
        <time>2019-05-29T15:03:33.000Z</time>
      </trkpt>
      <trkpt lat="43.84543" lon="4.60742">
        <ele>17</ele>
        <time>2019-05-29T15:03:47.000Z</time>
      </trkpt>
      <trkpt lat="43.84437" lon="4.60898">
        <ele>18</ele>
        <time>2019-05-29T15:03:52.000Z</time>
      </trkpt>
      <trkpt lat="43.844" lon="4.61087">
        <ele>27</ele>
        <time>2019-05-29T15:03:57.000Z</time>
      </trkpt>
      <trkpt lat="43.8431" lon="4.61358">
        <ele>21</ele>
        <time>2019-05-29T15:04:02.000Z</time>
      </trkpt>
      <trkpt lat="43.84191" lon="4.61717">
        <ele>24</ele>
        <time>2019-05-29T15:04:07.000Z</time>
      </trkpt>
      <trkpt lat="43.84095" lon="4.61859">
        <ele>38</ele>
        <time>2019-05-29T15:04:12.000Z</time>
      </trkpt>
      <trkpt lat="43.83916" lon="4.61933">
        <ele>26</ele>
        <time>2019-05-29T15:04:17.000Z</time>
      </trkpt>
      <trkpt lat="43.83813" lon="4.61961">
        <ele>18</ele>
        <time>2019-05-29T15:04:22.000Z</time>
      </trkpt>
      <trkpt lat="43.8363" lon="4.61836">
        <ele>22</ele>
        <time>2019-05-29T15:04:27.000Z</time>
      </trkpt>
      <trkpt lat="43.83431" lon="4.61758">
        <ele>23</ele>
        <time>2019-05-29T15:04:32.000Z</time>
      </trkpt>
      <trkpt lat="43.83239" lon="4.61722">
        <ele>24</ele>
        <time>2019-05-29T15:04:37.000Z</time>
      </trkpt>
      <trkpt lat="43.83126" lon="4.61749">
        <ele>22</ele>
        <time>2019-05-29T15:04:42.000Z</time>
      </trkpt>
      <trkpt lat="43.82953" lon="4.61961">
        <ele>19</ele>
        <time>2019-05-29T15:04:47.000Z</time>
      </trkpt>
      <trkpt lat="43.82788" lon="4.62108">
        <ele>17</ele>
        <time>2019-05-29T15:04:52.000Z</time>
      </trkpt>
      <trkpt lat="43.82698" lon="4.62315">
        <ele>19</ele>
        <time>2019-05-29T15:04:57.000Z</time>
      </trkpt>
      <trkpt lat="43.82612" lon="4.62563">
        <ele>22</ele>
        <time>2019-05-29T15:05:02.000Z</time>
      </trkpt>
      <trkpt lat="43.82442" lon="4.6266">
        <ele>21</ele>
        <time>2019-05-29T15:05:07.000Z</time>
      </trkpt>
      <trkpt lat="43.82287" lon="4.62701">
        <ele>21</ele>
        <time>2019-05-29T15:05:12.000Z</time>
      </trkpt>
      <trkpt lat="43.8222" lon="4.62761">
        <ele>17</ele>
        <time>2019-05-29T15:05:17.000Z</time>
      </trkpt>
      <trkpt lat="43.82041" lon="4.62802">
        <ele>25</ele>
        <time>2019-05-29T15:05:22.000Z</time>
      </trkpt>
      <trkpt lat="43.82077" lon="4.62871">
        <ele>13</ele>
        <time>2019-05-29T15:05:27.000Z</time>
      </trkpt>
      <trkpt lat="43.82048" lon="4.6294">
        <ele>10</ele>
        <time>2019-05-29T15:05:32.000Z</time>
      </trkpt>
      <trkpt lat="43.81945" lon="4.63249">
        <ele>15</ele>
        <time>2019-05-29T15:05:37.000Z</time>
      </trkpt>
      <trkpt lat="43.81845" lon="4.6358">
        <ele>17</ele>
        <time>2019-05-29T15:05:42.000Z</time>
      </trkpt>
      <trkpt lat="43.81772" lon="4.63851">
        <ele>13</ele>
        <time>2019-05-29T15:05:47.000Z</time>
      </trkpt>
      <trkpt lat="43.81663" lon="4.63998">
        <ele>16</ele>
        <time>2019-05-29T15:05:52.000Z</time>
      </trkpt>
      <trkpt lat="43.81603" lon="4.64113">
        <ele>11</ele>
        <time>2019-05-29T15:07:41.000Z</time>
      </trkpt>
      <trkpt lat="43.81593" lon="4.64178">
        <ele>10</ele>
        <time>2019-05-29T15:07:48.000Z</time>
      </trkpt>
      <trkpt lat="43.8148" lon="4.64214">
        <ele>13</ele>
        <time>2019-05-29T15:08:37.000Z</time>
      </trkpt>
      <trkpt lat="43.81278" lon="4.64297">
        <ele>14</ele>
        <time>2019-05-29T15:08:52.000Z</time>
      </trkpt>
      <trkpt lat="43.81437" lon="4.64555">
        <ele>11</ele>
        <time>2019-05-29T15:08:57.000Z</time>
      </trkpt>
      <trkpt lat="43.81334" lon="4.64688">
        <ele>10</ele>
        <time>2019-05-29T15:09:04.000Z</time>
      </trkpt>
      <trkpt lat="43.81304" lon="4.64661">
        <ele>12</ele>
        <time>2019-05-29T15:09:09.000Z</time>
      </trkpt>
      <trkpt lat="43.81268" lon="4.64716">
        <ele>11</ele>
        <time>2019-05-29T15:10:28.000Z</time>
      </trkpt>
      <trkpt lat="43.81065" lon="4.64716">
        <ele>12</ele>
        <time>2019-05-29T15:11:26.000Z</time>
      </trkpt>
      <trkpt lat="43.80863" lon="4.6473">
        <ele>13</ele>
        <time>2019-05-29T15:11:38.000Z</time>
      </trkpt>
      <trkpt lat="43.80756" lon="4.64803">
        <ele>11</ele>
        <time>2019-05-29T15:11:51.000Z</time>
      </trkpt>
      <trkpt lat="43.80604" lon="4.64831">
        <ele>12</ele>
        <time>2019-05-29T15:12:02.000Z</time>
      </trkpt>
      <trkpt lat="43.80555" lon="4.64853">
        <ele>8.9</ele>
        <time>2019-05-29T15:12:11.000Z</time>
      </trkpt>
      <trkpt lat="43.80509" lon="4.64827">
        <ele>10</ele>
        <time>2019-05-29T15:12:18.000Z</time>
      </trkpt>
      <trkpt lat="43.8053" lon="4.64726">
        <ele>11</ele>
        <time>2019-05-29T15:12:27.000Z</time>
      </trkpt>
      <trkpt lat="43.80528" lon="4.64673">
        <ele>10</ele>
        <time>2019-05-29T15:12:45.000Z</time>
      </trkpt>
      <trkpt lat="43.80507" lon="4.64736">
        <ele>8.56</ele>
        <time>2019-05-29T15:20:07.000Z</time>
      </trkpt>
      <trkpt lat="43.80507" lon="4.64722">
        <ele>5.82</ele>
        <time>2019-05-29T15:20:13.000Z</time>
      </trkpt>
      <trkpt lat="43.80497" lon="4.64718">
        <ele>4.81</ele>
        <time>2019-05-29T15:20:20.000Z</time>
      </trkpt>
      <trkpt lat="43.80493" lon="4.64738">
        <ele>3.82</ele>
      </trkpt>
      <trkpt lat="43.80487" lon="4.64761">
        <ele>4.81</ele>
      </trkpt>
      <trkpt lat="43.80481" lon="4.64784">
        <ele>7.04</ele>
      </trkpt>
      <trkpt lat="43.80476" lon="4.64806">
        <ele>8.79</ele>
      </trkpt>
      <trkpt lat="43.8047" lon="4.64827">
        <ele>8.81</ele>
      </trkpt>
      <trkpt lat="43.80465" lon="4.64849">
        <ele>9.81</ele>
      </trkpt>
      <trkpt lat="43.80461" lon="4.64871">
        <ele>10.79</ele>
      </trkpt>
      <trkpt lat="43.80461" lon="4.64897">
        <ele>11.81</ele>
      </trkpt>
      <trkpt lat="43.80463" lon="4.64923">
        <ele>13.56</ele>
      </trkpt>
      <trkpt lat="43.80463" lon="4.6495">
        <ele>13.81</ele>
      </trkpt>
      <trkpt lat="43.80463" lon="4.64977">
        <ele>14.56</ele>
      </trkpt>
      <trkpt lat="43.80464" lon="4.65005">
        <ele>14.81</ele>
      </trkpt>
      <trkpt lat="43.80464" lon="4.65038">
        <ele>14.81</ele>
      </trkpt>
      <trkpt lat="43.80463" lon="4.65069">
        <ele>14.56</ele>
      </trkpt>
      <trkpt lat="43.80464" lon="4.65099">
        <ele>13.81</ele>
      </trkpt>
      <trkpt lat="43.80464" lon="4.6513">
        <ele>13.81</ele>
      </trkpt>
      <trkpt lat="43.80465" lon="4.65164">
        <ele>14.81</ele>
      </trkpt>
      <trkpt lat="43.80465" lon="4.65198">
        <ele>15.79</ele>
      </trkpt>
      <trkpt lat="43.80465" lon="4.65235">
        <ele>13.82</ele>
      </trkpt>
      <trkpt lat="43.80465" lon="4.65276">
        <ele>13.81</ele>
      </trkpt>
      <trkpt lat="43.80465" lon="4.6532">
        <ele>12.81</ele>
      </trkpt>
      <trkpt lat="43.80466" lon="4.65363">
        <ele>11.81</ele>
      </trkpt>
      <trkpt lat="43.80466" lon="4.65405">
        <ele>10.81</ele>
      </trkpt>
      <trkpt lat="43.80467" lon="4.65433">
        <ele>10.79</ele>
      </trkpt>
      <trkpt lat="43.80471" lon="4.65444">
        <ele>9.81</ele>
      </trkpt>
      <trkpt lat="43.80487" lon="4.65467">
        <ele>10.81</ele>
      </trkpt>
      <trkpt lat="43.80517" lon="4.65477">
        <ele>9.82</ele>
      </trkpt>
      <trkpt lat="43.80552" lon="4.65474">
        <ele>7.81</ele>
      </trkpt>
      <trkpt lat="43.80583" lon="4.65483">
        <ele>8.81</ele>
      </trkpt>
      <trkpt lat="43.80588" lon="4.65518">
        <ele>9.79</ele>
      </trkpt>
      <trkpt lat="43.80597" lon="4.65544">
        <ele>9.81</ele>
      </trkpt>
      <trkpt lat="43.80623" lon="4.65552">
        <ele>10.04</ele>
      </trkpt>
      <trkpt lat="43.80645" lon="4.65561">
        <ele>8.81</ele>
      </trkpt>
      <trkpt lat="43.80666" lon="4.65569">
        <ele>8.82</ele>
      </trkpt>
      <trkpt lat="43.8069" lon="4.65582">
        <ele>9.82</ele>
      </trkpt>
      <trkpt lat="43.80698" lon="4.65588">
        <ele>11.81</ele>
      </trkpt>
      <trkpt lat="43.80708" lon="4.65601">
        <ele>11.56</ele>
      </trkpt>
      <trkpt lat="43.80727" lon="4.65609">
        <ele>12.79</ele>
      </trkpt>
      <trkpt lat="43.80753" lon="4.65608">
        <ele>11.81</ele>
      </trkpt>
      <trkpt lat="43.80773" lon="4.65604">
        <ele>11.81</ele>
      </trkpt>
      <trkpt lat="43.80793" lon="4.65599">
        <ele>12.78</ele>
      </trkpt>
      <trkpt lat="43.80814" lon="4.65595">
        <ele>12.8</ele>
      </trkpt>
      <trkpt lat="43.80836" lon="4.65589">
        <ele>13.79</ele>
      </trkpt>
      <trkpt lat="43.80853" lon="4.65583">
        <ele>13.56</ele>
      </trkpt>
      <trkpt lat="43.80859" lon="4.65572">
        <ele>11.82</ele>
      </trkpt>
      <trkpt lat="43.80829" lon="4.65568">
        <ele>10.06</ele>
      </trkpt>
      <trkpt lat="43.80797" lon="4.65568">
        <ele>8.57</ele>
      </trkpt>
      <trkpt lat="43.80775" lon="4.65553">
        <ele>7.06</ele>
      </trkpt>
      <trkpt lat="43.80779" lon="4.65528">
        <ele>5.07</ele>
      </trkpt>
      <trkpt lat="43.80789" lon="4.65514">
        <ele>5.82</ele>
      </trkpt>
      <trkpt lat="43.80797" lon="4.65523">
        <ele>11.06</ele>
      </trkpt>
      <trkpt lat="43.80804" lon="4.65532">
        <ele>6.09</ele>
      </trkpt>
      <trkpt lat="43.80794" lon="4.65532">
        <ele>12.06</ele>
      </trkpt>
      <trkpt lat="43.80805" lon="4.65533">
        <ele>13.73</ele>
      </trkpt>
      <trkpt lat="43.80818" lon="4.65525">
        <ele>11.82</ele>
      </trkpt>
      <trkpt lat="43.80812" lon="4.65513">
        <ele>9.81</ele>
      </trkpt>
      <trkpt lat="43.80802" lon="4.6551">
        <ele>8.06</ele>
      </trkpt>
      <trkpt lat="43.8081" lon="4.65532">
        <ele>13.81</ele>
      </trkpt>
      <trkpt lat="43.80795" lon="4.65534">
        <ele>12.81</ele>
      </trkpt>
      <trkpt lat="43.808" lon="4.65523">
        <ele>10.81</ele>
      </trkpt>
      <trkpt lat="43.80792" lon="4.65519">
        <ele>10.81</ele>
      </trkpt>
      <trkpt lat="43.808" lon="4.65512">
        <ele>10.79</ele>
      </trkpt>
      <trkpt lat="43.80809" lon="4.65505">
        <ele>10.29</ele>
      </trkpt>
      <trkpt lat="43.80817" lon="4.65498">
        <ele>6.06</ele>
      </trkpt>
      <trkpt lat="43.80827" lon="4.65496">
        <ele>6.8</ele>
      </trkpt>
      <trkpt lat="43.80826" lon="4.65509">
        <ele>8.55</ele>
      </trkpt>
      <trkpt lat="43.80817" lon="4.65502">
        <ele>1.81</ele>
      </trkpt>
      <trkpt lat="43.80808" lon="4.65505">
        <ele>4.56</ele>
      </trkpt>
      <trkpt lat="43.80798" lon="4.6551">
        <ele>2.82</ele>
      </trkpt>
    </trkseg>
  </trk>
</gpx>